[[{"header":{"parameterUnit":"m.s-1","parameterCategory":1,"la1":30.6,"la2":28.766,"lo1":-90.7593,"lo2":-88.6598,"dx":0.0162,"dy":0.0183,"nx":116,"ny":114,"refTime":"2022-12-22T06:00:00:Z","depth":0,"parameterNumber":2,"parameterNumberName":"U-component_of_WINDS"},"data":[0.0,0.0,0.0,0.0,0.0,0.0,0.0,0.0,0.0,0.0,0.0,0.0,0.0,0.0,0.0,0.0,0.0,0.0,0.0,0.0,0.0,0.0,0.0,0.0,0.0,0.0,0.0,0.0,0.0,0.0,0.0,0.0,0.0,0.0,0.0,0.0,0.0,0.0,0.0,0.0,0.0,0.0,0.0,0.0,0.0,0.0,0.0,0.0,0.0,0.0,0.0,0.0,0.0,0.0,0.0,0.0,0.0,0.0,0.0,0.0,0.0,0.0,0.0,0.0,0.0,0.0,0.0,0.0,0.0,0.0,0.0,0.0,0.0,0.0,0.0,0.0,0.0,0.0,0.0,0.0,0.0,0.0,0.0,0.0,0.0,0.0,0.0,0.0,0.0,0.0,0.0,0.0,0.0,0.0,0.0,0.0,0.0,0.0,0.0,0.0,0.0,0.0,0.0,0.0,0.0,0.0,0.0,0.0,0.0,0.0,0.0,0.0,0.0,0.0,0.0,0.0,0.0,0.0,0.0,0.0,0.0,0.0,0.0,0.0,0.0,0.0,0.0,0.0,0.0,0.0,0.0,0.0,0.0,0.0,0.0,0.0,0.0,0.0,0.0,0.0,0.0,0.0,0.0,0.0,0.0,0.0,0.0,0.0,0.0,0.0,0.0,0.0,0.0,0.0,0.0,0.0,0.0,0.0,0.0,0.0,0.0,0.0,0.0,0.0,0.0,0.0,0.0,0.0,0.0,0.0,0.0,0.0,0.0,0.0,0.0,0.0,0.0,0.0,0.0,0.0,0.0,0.0,0.0,0.0,0.0,0.0,0.0,0.0,0.0,0.0,0.0,0.0,0.0,0.0,0.0,0.0,0.0,0.0,0.0,0.0,0.0,0.0,0.0,0.0,0.0,0.0,0.0,0.0,0.0,0.0,0.0,0.0,0.0,0.0,0.0,0.0,0.0,0.0,0.0,0.0,0.0,0.0,0.0,0.0,0.0,0.0,0.0,0.0,0.0,0.0,0.0,0.0,0.0,0.0,0.0,0.0,0.0,0.0,0.0,0.0,0.0,0.0,0.0,0.0,0.0,0.0,0.0,0.0,0.0,0.0,0.0,0.0,0.0,0.0,0.0,0.0,0.0,0.0,0.0,0.0,0.0,0.0,0.0,0.0,0.0,0.0,0.0,0.0,0.0,0.0,0.0,0.0,0.0,0.0,0.0,0.0,0.0,0.0,0.0,0.0,0.0,0.0,0.0,0.0,0.0,0.0,0.0,0.0,0.0,0.0,0.0,0.0,0.0,0.0,0.0,0.0,0.0,0.0,0.0,0.0,0.0,0.0,0.0,0.0,0.0,0.0,0.0,0.0,0.0,0.0,0.0,0.0,0.0,0.0,0.0,0.0,0.0,0.0,0.0,0.0,0.0,0.0,0.0,0.0,0.0,0.0,0.0,0.0,0.0,0.0,0.0,0.0,0.0,0.0,0.0,0.0,0.0,0.0,0.0,0.0,0.0,0.0,0.0,0.0,0.0,0.0,0.0,0.0,0.0,0.0,0.0,0.0,0.0,0.0,0.0,0.0,0.0,0.0,0.0,0.0,0.0,0.0,0.0,0.0,0.0,0.0,0.0,0.0,0.0,0.0,0.0,0.0,0.0,0.0,0.0,0.0,0.0,0.0,0.0,0.0,0.0,0.0,0.0,0.0,0.0,0.0,0.0,0.0,0.0,0.0,0.0,0.0,0.0,0.0,0.0,0.0,0.0,0.0,0.0,0.0,0.0,0.0,0.0,0.0,0.0,0.0,0.0,0.0,0.0,0.0,0.0,0.0,0.0,0.0,0.0,0.0,0.0,0.0,0.0,0.0,0.0,0.0,0.0,0.0,0.0,0.0,0.0,0.0,0.0,0.0,0.0,0.0,0.0,0.0,0.0,0.0,0.0,0.0,0.0,0.0,0.0,0.0,0.0,0.0,0.0,0.0,0.0,0.0,0.0,0.0,0.0,0.0,0.0,0.0,0.0,0.0,0.0,0.0,0.0,0.0,0.0,0.0,0.0,0.0,0.0,0.0,0.0,0.0,0.0,0.0,0.0,0.0,0.0,0.0,0.0,0.0,0.0,0.0,0.0,0.0,0.0,0.0,0.0,0.0,0.0,0.0,0.0,0.0,0.0,0.0,0.0,0.0,0.0,0.0,0.0,0.0,0.0,0.0,0.0,0.0,0.0,0.0,0.0,0.0,0.0,0.0,0.0,0.0,0.0,0.0,0.0,0.0,0.0,0.0,0.0,0.0,0.0,0.0,0.0,0.0,0.0,0.0,0.0,0.0,0.0,0.0,0.0,0.0,0.0,0.0,0.0,0.0,0.0,0.0,0.0,0.0,0.0,0.0,0.0,0.0,0.0,0.0,0.0,0.0,0.0,0.0,0.0,0.0,0.0,0.0,0.0,0.0,0.0,0.0,0.0,0.0,0.0,0.0,0.0,0.0,0.0,0.0,0.0,0.0,0.0,0.0,0.0,0.0,0.0,0.0,0.0,0.0,0.0,0.0,0.0,0.0,0.0,0.0,0.0,0.0,0.0,0.0,0.0,0.0,0.0,0.0,0.0,0.0,0.0,0.0,0.0,0.0,0.0,0.0,0.0,0.0,0.0,0.0,0.0,0.0,0.0,0.0,0.0,0.0,0.0,0.0,0.0,0.0,0.0,0.0,0.0,0.0,0.0,0.0,0.0,0.0,0.0,0.0,0.0,0.0,0.0,0.0,0.0,0.0,0.0,0.0,0.0,0.0,0.0,0.0,0.0,0.0,0.0,0.0,0.0,0.0,0.0,0.0,0.0,0.0,0.0,0.0,0.0,0.0,0.0,0.0,0.0,0.0,0.0,0.0,0.0,0.0,0.0,0.0,0.0,0.0,0.0,0.0,0.0,0.0,0.0,0.0,0.0,0.0,0.0,0.0,0.0,0.0,0.0,0.0,0.0,0.0,0.0,0.0,0.0,0.0,0.0,0.0,0.0,0.0,0.0,0.0,0.0,0.0,0.0,0.0,0.0,0.0,0.0,0.0,0.0,0.0,0.0,0.0,0.0,0.0,0.0,0.0,0.0,0.0,0.0,0.0,0.0,0.0,0.0,0.0,0.0,0.0,0.0,0.0,0.0,0.0,0.0,0.0,0.0,0.0,0.0,0.0,0.0,0.0,0.0,0.0,0.0,0.0,0.0,0.0,0.0,0.0,0.0,0.0,0.0,0.0,0.0,0.0,0.0,0.0,0.0,0.0,0.0,0.0,0.0,0.0,0.0,0.0,0.0,0.0,0.0,0.0,0.0,0.0,0.0,0.0,0.0,0.0,0.0,0.0,0.0,0.0,0.0,0.0,0.0,0.0,0.0,0.0,0.0,0.0,0.0,0.0,0.0,0.0,0.0,0.0,0.0,0.0,0.0,0.0,0.0,0.0,0.0,0.0,0.0,0.0,0.0,0.0,0.0,0.0,0.0,0.0,0.0,0.0,0.0,0.0,0.0,0.0,0.0,0.0,0.0,0.0,0.0,0.0,0.0,0.0,0.0,0.0,0.0,0.0,0.0,0.0,0.0,0.0,0.0,0.0,0.0,0.0,0.0,0.0,0.0,0.0,0.0,0.0,0.0,0.0,0.0,0.0,0.0,0.0,0.0,0.0,0.0,0.0,0.0,0.0,0.0,0.0,0.0,0.0,0.0,0.0,0.0,0.0,0.0,0.0,0.0,0.0,0.0,0.0,0.0,0.0,0.0,0.0,0.0,0.0,0.0,0.0,0.0,0.0,0.0,0.0,0.0,0.0,0.0,0.0,0.0,0.0,0.0,0.0,0.0,0.0,0.0,0.0,0.0,0.0,0.0,0.0,0.0,0.0,0.0,0.0,0.0,0.0,0.0,0.0,0.0,0.0,0.0,0.0,0.0,0.0,0.0,0.0,0.0,0.0,0.0,0.0,0.0,0.0,0.0,0.0,0.0,0.0,0.0,0.0,0.0,0.0,0.0,0.0,0.0,0.0,0.0,0.0,0.0,0.0,0.0,0.0,0.0,0.0,0.0,0.0,0.0,0.0,0.0,0.0,0.0,0.0,0.0,0.0,0.0,0.0,0.0,0.0,0.0,0.0,0.0,0.0,0.0,0.0,0.0,0.0,0.0,0.0,0.0,0.0,0.0,0.0,0.0,0.0,0.0,0.0,0.0,0.0,0.0,0.0,0.0,0.0,0.0,0.0,0.0,0.0,0.0,0.0,0.0,0.0,0.0,0.0,0.0,0.0,0.0,0.0,0.0,0.0,0.0,0.0,0.0,0.0,0.0,0.0,0.0,0.0,0.0,0.0,0.0,0.0,0.0,0.0,0.0,0.0,0.0,0.0,0.0,0.0,0.0,0.0,0.0,0.0,0.0,0.0,0.0,0.0,0.0,0.0,0.0,0.0,0.0,0.0,0.0,0.0,0.0,0.0,0.0,0.0,0.0,0.0,0.0,0.0,0.0,0.0,0.0,0.0,0.0,0.0,0.0,0.0,0.0,0.0,0.0,0.0,0.0,0.0,0.0,0.0,0.0,0.0,0.0,0.0,0.0,0.0,0.0,0.0,0.0,0.0,0.0,0.0,0.0,0.0,0.0,0.0,0.0,0.0,0.0,0.0,0.0,0.0,0.0,0.0,0.0,0.0,0.0,0.0,0.0,0.0,0.0,0.0,0.0,0.0,0.0,0.0,0.0,0.0,0.0,0.0,0.0,0.0,0.0,0.0,0.0,0.0,0.0,0.0,0.0,0.0,0.0,0.0,0.0,0.0,0.0,0.0,0.0,0.0,0.0,0.0,0.0,0.0,0.0,0.0,0.0,0.0,0.0,0.0,0.0,0.0,0.0,0.0,0.0,0.0,0.0,0.0,0.0,0.0,0.0,0.0,0.0,0.0,0.0,0.0,0.0,0.0,0.0,0.0,0.0,0.0,0.0,0.0,0.0,0.0,0.0,0.0,0.0,0.0,0.0,0.0,0.0,0.0,0.0,0.0,0.0,0.0,0.0,0.0,0.0,0.0,0.0,0.0,0.0,0.0,0.0,0.0,0.0,0.0,0.0,0.0,0.0,0.0,0.0,0.0,0.0,0.0,0.0,0.0,0.0,0.0,0.0,0.0,0.0,0.0,0.0,0.0,0.0,0.0,0.0,0.0,0.0,0.0,0.0,0.0,0.0,0.0,0.0,0.0,0.0,0.0,0.0,0.0,0.0,0.0,0.0,0.0,0.0,0.0,0.0,0.0,0.0,0.0,0.0,0.0,0.0,0.0,0.0,0.0,0.0,0.0,0.0,0.0,0.0,0.0,0.0,0.0,0.0,0.0,0.0,0.0,0.0,0.0,0.0,0.0,0.0,0.0,0.0,0.0,0.0,0.0,0.0,0.0,0.0,0.0,0.0,0.0,0.0,0.0,0.0,0.0,0.0,0.0,0.0,0.0,0.0,0.0,0.0,0.0,0.0,0.0,0.0,0.0,0.0,0.0,0.0,0.0,0.0,0.0,0.0,0.0,0.0,0.0,0.0,0.0,0.0,0.0,0.0,0.0,0.0,0.0,0.0,0.0,0.0,0.0,0.0,0.0,0.0,0.0,0.0,0.0,0.0,0.0,0.0,0.0,0.0,0.0,0.0,0.0,0.0,0.0,0.0,0.0,0.0,0.0,0.0,0.0,0.0,0.0,0.0,0.0,0.0,0.0,0.0,0.0,0.0,0.0,0.0,0.0,0.0,0.0,0.0,0.0,0.0,0.0,0.0,0.0,0.0,0.0,0.0,0.0,0.0,0.0,0.0,0.0,0.0,0.0,0.0,0.0,0.0,0.0,0.0,0.0,0.0,0.0,0.0,0.0,0.0,0.0,0.0,0.0,0.0,0.0,0.0,0.0,0.0,0.0,0.0,0.0,0.0,0.0,0.0,0.0,0.0,0.0,0.0,0.0,0.0,0.0,0.0,0.0,0.0,0.0,0.0,0.0,0.0,0.0,0.0,0.0,0.0,0.0,0.0,0.0,0.0,0.0,0.0,0.0,0.0,0.0,0.0,0.0,0.0,0.0,0.0,0.0,0.0,0.0,0.0,0.0,0.0,0.0,3.4426,3.1943,0.0,0.0,0.0,0.0,0.0,0.0,0.0,0.0,0.0,0.0,0.0,0.0,0.0,0.0,0.0,0.0,0.0,0.0,0.0,0.0,0.0,0.0,0.0,1.2518,1.301,1.2963,1.2963,0.0,0.0,0.0,0.0,0.0,0.0,0.0,0.0,0.0,1.5237,1.742,1.8447,1.9849,2.1526,1.9729,1.8502,1.7765,0.0,0.0,0.0,0.0,0.0,0.0,0.0,0.0,0.0,0.0,0.0,0.0,0.0,0.0,0.0,0.0,0.0,0.0,0.0,0.0,0.0,0.0,0.0,0.0,0.0,0.0,0.0,0.0,0.0,0.0,0.0,0.0,0.0,0.0,0.0,0.0,0.0,0.0,0.0,0.0,0.0,0.0,0.0,0.0,0.0,0.0,0.0,0.0,0.0,0.0,0.0,0.0,0.0,0.0,0.0,0.0,0.0,0.0,0.0,0.0,0.0,0.0,0.0,0.0,0.0,0.0,0.0,0.0,0.0,0.0,3.8438,3.6146,0.0,0.0,0.0,0.0,0.0,0.0,0.0,0.0,0.0,0.0,0.0,0.0,0.0,0.0,0.0,0.0,0.0,0.0,0.0,0.0,0.0,1.3146,1.3195,1.4016,1.4493,1.4304,1.439,1.4381,1.4269,1.3489,0.0,0.0,0.0,0.0,0.0,1.5486,1.7287,2.0633,2.1712,2.3267,2.5094,2.5094,2.4401,2.3102,2.1311,0.0,0.0,0.0,0.0,0.0,0.0,0.0,0.0,0.0,0.0,0.0,0.0,0.0,0.0,0.0,0.0,0.0,0.0,0.0,0.0,0.0,0.0,0.0,0.0,0.0,0.0,0.0,0.0,0.0,0.0,0.0,0.0,0.0,0.0,0.0,0.0,0.0,0.0,0.0,0.0,0.0,0.0,0.0,0.0,0.0,0.0,0.0,0.0,0.0,0.0,0.0,0.0,0.0,0.0,0.0,0.0,0.0,0.0,0.0,0.0,0.0,0.0,0.0,4.1836,4.2466,4.3153,4.35,4.4017,4.4513,4.1915,4.0272,3.9279,3.7177,0.0,0.0,0.0,0.0,0.0,0.0,0.0,0.0,0.0,0.0,0.0,0.0,0.0,0.0,0.0,0.0,0.0,0.0,0.0,1.5135,1.5792,1.72,1.7748,1.7056,1.7524,1.7573,1.6849,1.6071,0.0,0.0,0.0,1.6034,1.6962,1.828,1.9818,2.1527,2.4644,2.6871,2.8298,2.8298,2.8193,2.7877,2.4963,0.0,0.0,0.0,0.0,0.0,0.0,0.0,0.0,0.0,0.0,0.0,0.0,0.0,0.0,0.0,0.0,0.0,0.0,0.0,0.0,0.0,0.0,0.0,0.0,0.0,0.0,0.0,0.0,0.0,0.0,0.0,0.0,0.0,0.0,0.0,0.0,0.0,0.0,0.0,0.0,0.0,0.0,0.0,3.1376,2.9936,0.0,0.0,0.0,0.0,0.0,0.0,0.0,0.0,0.0,0.0,0.0,0.0,0.0,3.9144,3.8812,4.0354,4.0979,4.0754,4.3213,4.4431,4.4583,4.6336,4.7226,4.7341,4.7608,0.0,4.1151,4.0807,0.0,0.0,0.0,0.0,0.0,0.0,0.0,0.0,0.0,0.0,0.0,0.0,0.0,0.0,0.0,0.0,0.0,0.0,0.0,0.0,0.0,1.9477,2.019,2.0186,2.0465,2.0277,1.9413,1.9037,0.0,0.0,1.885,1.945,2.0765,2.1243,2.274,2.5311,2.7591,2.9444,3.0861,3.0861,3.0861,3.0826,2.9457,2.7806,2.5981,2.4567,0.0,0.0,0.0,0.0,0.0,0.0,0.0,0.0,0.0,0.0,0.0,0.0,0.0,0.0,0.0,0.0,0.0,0.0,0.0,0.0,0.0,0.0,0.0,0.0,0.0,0.0,0.0,0.0,0.0,0.0,0.0,0.0,0.0,0.0,0.0,0.0,0.0,0.0,0.0,3.0757,3.1584,3.1727,3.1821,3.214,0.0,0.0,0.0,0.0,0.0,0.0,0.0,0.0,0.0,4.1157,4.112,4.1651,4.2865,4.3473,4.4109,4.4749,4.6017,4.6826,4.7307,4.8173,4.8596,4.8634,4.8975,4.7651,4.5079,4.4043,4.2679,4.1227,0.0,0.0,0.0,0.0,4.0731,4.0578,0.0,0.0,0.0,0.0,0.0,0.0,0.0,0.0,0.0,0.0,0.0,0.0,2.0909,2.1731,2.2422,2.2938,2.3145,2.298,2.2318,2.2281,2.2379,2.2567,2.2567,2.3281,2.4707,2.4745,2.6145,2.8941,3.0113,3.1493,3.3003,3.3003,3.3003,3.3003,3.3003,3.1249,2.8211,2.7347,2.6398,2.5355,0.0,0.0,0.0,0.0,0.0,0.0,0.0,0.0,0.0,0.0,0.0,0.0,0.0,0.0,0.0,0.0,0.0,0.0,0.0,0.0,0.0,0.0,0.0,0.0,0.0,0.0,0.0,0.0,0.0,0.0,0.0,0.0,0.0,0.0,0.0,0.0,0.0,3.2305,3.305,3.3697,3.4241,3.486,0.0,0.0,0.0,0.0,0.0,0.0,4.1332,4.0603,4.1169,4.3458,4.3274,4.4102,4.596,4.6153,4.6861,4.8054,4.8375,4.8819,4.9417,4.9701,4.9909,5.0002,5.0002,4.9695,4.906,4.667,4.5217,4.4407,4.315,4.3,4.3405,4.3176,4.31,4.3329,0.0,0.0,0.0,0.0,0.0,0.0,0.0,0.0,0.0,0.0,0.0,2.1066,2.3543,2.4357,2.4709,2.4771,2.5423,2.5812,2.5737,2.5737,2.6113,2.6848,2.6885,2.7298,2.8144,2.9052,3.0134,3.1232,3.1947,3.3073,3.4582,3.4582,3.4582,3.4582,3.4582,3.391,3.2535,2.9351,2.8733,2.9578,2.625,0.0,0.0,0.0,0.0,0.0,0.0,0.0,0.0,0.0,0.0,0.0,0.0,0.0,0.0,0.0,0.0,0.0,0.0,0.0,0.0,0.0,0.0,0.0,0.0,0.0,0.0,0.0,0.0,0.0,0.0,0.0,0.0,0.0,0.0,0.0,0.0,0.0,0.0,3.6352,3.7936,0.0,0.0,0.0,0.0,3.99,4.0561,4.1368,4.2176,4.2907,4.4046,4.5699,4.6471,4.6912,4.7022,4.7793,4.8197,4.8271,4.938,4.993,5.0003,5.1058,5.1757,5.2163,5.2163,5.2292,5.2272,4.8334,4.6375,4.5887,4.5874,4.5589,4.5354,4.692,4.7494,4.7608,0.0,0.0,0.0,1.2273,1.2817,1.3633,1.507,1.6744,1.841,2.0187,2.2197,2.3984,2.5335,2.6123,2.6677,2.7102,2.7934,2.8124,2.7599,2.9551,3.064,3.0377,3.1391,3.164,3.0941,3.161,3.199,3.2017,3.3284,3.4653,3.6162,3.6162,3.6689,3.7637,3.6619,3.5715,3.4782,3.2386,3.1207,3.0813,2.8443,2.6516,0.0,0.0,0.0,0.0,0.0,0.0,0.0,0.0,0.0,0.0,0.0,0.0,0.0,0.0,0.0,0.0,0.0,0.0,0.0,0.0,0.0,0.0,0.0,0.0,0.0,0.0,0.0,0.0,0.0,0.0,0.0,0.0,0.0,0.0,0.0,0.0,0.0,3.7287,3.9121,0.0,4.1401,4.1919,4.2653,4.3681,4.4048,4.4562,4.5369,4.5663,4.6581,4.8233,4.8563,4.8967,4.9481,5.0288,5.0692,5.0692,5.1624,5.2069,5.2069,5.2486,5.2752,5.2865,5.2865,5.294,5.29,5.0935,4.9926,4.9542,4.8996,4.8686,4.8602,4.9175,4.9404,4.9442,0.0,0.0,0.0,1.3173,1.3947,1.4879,1.6006,1.8142,2.0158,2.1551,2.4068,2.6121,2.7098,2.7891,2.8442,2.8816,2.9418,2.9701,2.9664,3.1729,3.3081,3.3381,3.4433,3.4447,3.3223,3.3452,3.3633,3.3635,3.4865,3.6127,3.7356,3.7637,3.8304,3.9287,3.8234,3.7457,3.6775,3.4863,3.3259,3.1765,3.0314,2.9082,2.7926,0.0,0.0,0.0,0.0,0.0,0.0,0.0,0.0,0.0,0.0,0.0,0.0,0.0,0.0,0.0,0.0,0.0,0.0,0.0,0.0,0.0,0.0,0.0,0.0,0.0,0.0,0.0,0.0,0.0,0.0,0.0,0.0,0.0,0.0,3.8251,3.9399,3.8793,4.0693,4.2312,4.302,4.4085,4.5149,4.6214,4.6838,4.7388,4.7902,4.8196,4.8967,5.0362,5.0398,5.0802,5.161,5.2123,5.2417,5.2417,5.2968,5.3225,5.3225,5.3225,5.3272,5.3359,5.3359,5.344,5.3563,5.3008,5.2663,5.2379,5.1158,5.0783,5.0977,5.0977,5.1242,5.162,0.0,0.0,1.3134,1.3985,1.4762,1.5889,1.7637,1.9381,2.1401,2.3964,2.5677,2.7286,2.8852,2.9692,3.006,2.9842,2.9808,3.0489,3.2032,3.22,3.3381,3.5935,0.0,0.0,3.499,3.4746,3.5151,3.6111,3.6735,3.7426,3.8199,3.8971,3.9357,3.9392,3.9357,3.9111,3.8624,3.68,3.4776,3.2696,3.1967,3.1593,3.1427,0.0,0.0,0.0,0.0,0.0,0.0,0.0,0.0,0.0,0.0,0.0,0.0,0.0,0.0,0.0,0.0,0.0,0.0,0.0,0.0,0.0,0.0,0.0,0.0,0.0,0.0,0.0,0.0,0.0,0.0,0.0,0.0,0.0,3.9463,3.9203,3.9756,4.1107,4.2881,4.4239,4.4818,4.6287,4.7205,4.7241,4.8746,4.9664,4.9664,5.0435,5.1242,5.2013,5.205,5.2417,5.3188,5.3225,5.3225,5.3225,5.3225,5.3225,5.3261,5.3261,5.3433,5.3756,5.3756,5.3981,5.4337,5.4337,5.4337,5.4153,5.2156,5.1794,5.2352,5.2352,5.3117,5.4256,1.461,1.461,1.4685,1.4918,1.5151,1.5889,1.7637,1.9381,2.1401,2.3964,2.6753,2.8627,2.8967,3.0279,3.0786,3.0022,3.0516,3.1347,3.2461,3.4566,3.6866,3.9352,0.0,0.0,3.6699,3.6339,3.6391,3.696,3.7545,3.848,3.9814,4.0059,4.0446,4.0937,4.0411,3.9791,3.9054,3.8037,3.632,3.4187,3.2895,3.21,3.1527,0.0,0.0,0.0,0.0,0.0,0.0,0.0,0.0,0.0,0.0,0.0,0.0,0.0,0.0,0.0,0.0,0.0,0.0,0.0,0.0,0.0,0.0,0.0,0.0,0.0,0.0,0.0,0.0,0.0,0.0,0.0,4.0603,4.1282,4.0651,4.2051,4.3526,4.4452,4.5551,4.6728,4.8086,4.8636,4.915,4.9738,5.0729,5.1316,5.1316,5.2087,5.2637,5.2858,5.2858,5.3004,5.3225,5.3225,5.3225,5.3225,5.3225,5.3518,5.4069,5.4069,5.4448,5.5049,5.5049,5.5133,5.5258,5.5258,5.5258,5.5114,5.3944,5.3587,5.3752,5.3752,5.4125,5.4762,1.5306,1.5306,1.531,1.5359,1.5624,1.632,1.7688,1.9662,2.1944,2.4508,2.745,2.9524,3.0142,3.1041,3.1341,3.0737,3.1422,3.2278,3.3178,3.6121,3.8244,0.0,0.0,3.7601,3.8,3.7567,3.7682,3.8386,3.8889,3.9568,4.0524,4.0797,4.1183,4.1569,4.1148,4.0593,3.9937,3.9076,3.7835,3.6419,3.511,3.3723,3.2531,3.2531,3.1689,3.0482,2.9921,2.9436,2.8887,2.8115,0.0,0.0,0.0,0.0,0.0,0.0,0.0,0.0,0.0,0.0,0.0,0.0,0.0,0.0,0.0,0.0,0.0,0.0,0.0,0.0,0.0,0.0,0.0,0.0,4.2073,4.3004,4.3534,4.4525,4.559,4.6726,4.7607,4.8673,4.9918,5.0321,5.0721,5.1161,5.193,5.2407,5.2407,5.2926,5.3225,5.3225,5.3146,5.3329,5.3702,5.3659,5.3842,5.4216,5.4216,5.4436,5.4913,5.4913,5.5133,5.5574,5.5574,5.5574,5.5574,5.5574,5.5574,5.5544,0.0,0.0,0.0,0.0,5.5775,5.6216,1.5306,1.5306,1.5313,1.5371,1.6062,1.6914,1.778,2.0059,2.2615,2.5141,2.7777,2.997,3.1456,3.1787,3.1802,3.1619,3.2404,3.3311,3.4357,3.6898,0.0,3.7422,3.7962,3.8514,3.8966,3.8564,3.8902,4.0078,4.0382,4.0586,4.0762,4.1429,4.178,4.185,4.178,4.1485,4.1,3.9877,3.9151,3.8606,3.7619,3.5943,3.4021,3.3955,3.3061,3.1868,3.1725,3.094,2.9855,2.9393,0.0,0.0,0.0,0.0,0.0,0.0,0.0,0.0,0.0,0.0,0.0,0.0,0.0,0.0,0.0,0.0,0.0,0.0,0.0,0.0,0.0,0.0,0.0,0.0,4.4173,4.583,4.7021,4.6874,4.7094,4.8443,4.9328,5.0138,5.0785,5.1517,5.1956,5.1956,5.2615,5.298,5.298,5.3103,0.0,0.0,0.0,5.3616,5.4509,5.4378,5.4789,5.5574,5.5574,5.5647,5.5721,5.5721,5.5757,5.5868,5.5868,5.5868,5.5868,5.5868,5.5868,5.5831,5.5647,5.5797,5.6134,5.6877,5.7408,5.7711,1.5306,1.5306,1.5313,1.5371,1.6113,1.697,1.7838,2.0122,2.2444,2.4307,2.7362,2.9504,2.9782,3.1723,3.2645,3.1826,3.3179,3.4892,3.6778,3.6767,3.7406,3.9038,3.8601,3.8826,3.9954,3.9433,3.9839,4.1094,4.0713,4.1113,4.2377,4.2517,4.2903,4.343,4.2833,4.2149,4.1454,4.0568,3.9478,3.8299,3.8063,3.7036,3.5512,3.4916,3.4121,3.3292,3.2696,3.2696,3.2928,3.2851,3.255,3.2337,3.2916,3.1737,0.0,0.0,0.0,0.0,0.0,0.0,0.0,0.0,0.0,0.0,0.0,0.0,0.0,0.0,0.0,0.0,0.0,0.0,0.0,4.3906,4.5626,4.7022,4.7897,4.9625,5.0949,5.1202,5.1344,5.1663,5.2468,5.2688,5.2761,5.2761,5.2907,5.298,5.298,5.3103,5.3433,5.3835,5.4012,5.4503,5.5221,5.531,5.5427,5.5574,5.5574,0.0,5.6565,5.6565,5.6932,5.7519,5.7519,5.7519,5.7519,5.7519,5.7519,5.7409,5.6088,5.5618,5.5754,5.6174,5.6369,5.6631,1.5306,1.5316,1.5365,1.5379,1.5743,1.6493,1.7792,1.9417,2.1581,2.4572,2.6801,2.8787,3.0451,3.1809,3.274,3.3119,3.4691,3.6419,3.8202,3.7793,3.7923,3.8925,3.9352,3.9922,4.0748,4.0646,4.118,4.2374,4.1866,4.2236,4.336,4.336,4.3535,4.3886,4.3266,4.2805,4.2393,4.1154,4.0238,3.9487,3.8997,3.8295,3.7533,3.6406,3.5545,3.4783,3.4054,3.3789,3.3723,3.3359,3.2994,3.284,3.3711,3.285,3.1879,0.0,0.0,0.0,0.0,0.0,0.0,0.0,0.0,0.0,0.0,0.0,0.0,0.0,0.0,4.1361,4.1867,0.0,4.4455,4.6176,4.7167,4.8267,4.9878,5.1083,5.1773,5.1688,5.2096,5.2498,5.2769,5.285,5.2893,5.2893,5.2893,5.3076,5.3478,5.3559,5.3924,5.4683,5.4765,5.5221,5.6108,5.6108,5.6337,5.6785,5.6785,5.7005,5.7409,5.7409,5.7629,5.7997,5.7997,5.7997,5.8033,5.8437,5.8621,5.8547,5.8143,5.7618,5.7149,5.7521,5.7492,5.7484,1.5316,1.5377,1.5394,1.5394,1.5685,1.6399,1.7771,1.8975,2.0955,2.4411,2.5909,2.7712,3.0445,3.1452,3.2765,3.4816,3.5999,3.7243,0.0,3.8629,3.8436,3.8324,3.9765,4.0819,4.1311,4.1489,4.223,4.3519,4.3032,4.3254,4.4132,4.4132,4.4202,4.4343,4.3868,4.3554,4.3251,4.1698,4.0961,4.0735,3.9714,3.9189,3.8957,3.7765,3.687,3.6108,3.5214,3.4618,3.4087,3.3193,3.289,3.2957,3.3544,3.3345,3.3314,3.5142,3.5813,0.0,0.0,0.0,0.0,0.0,0.0,0.0,0.0,3.8355,3.984,3.984,4.1687,4.3359,4.3579,4.5039,4.6686,4.8229,4.8781,4.9661,5.1642,5.1877,5.1821,5.1645,5.2404,5.285,5.2635,5.2717,5.2806,5.2761,5.2907,5.3271,5.3927,5.4155,5.4675,5.5524,5.5524,5.5971,5.6997,5.6868,5.7244,5.7997,5.7997,5.7997,5.7997,5.8143,5.8217,5.8253,5.84,5.8474,5.851,5.9171,5.9428,5.9501,6.0162,5.9808,5.8985,5.9278,5.9253,5.9152,1.5387,1.5376,1.5387,1.5415,1.6676,1.7773,1.7968,2.0,2.1678,2.2146,2.4288,2.5876,2.6286,2.9714,3.3283,3.6533,3.6163,3.6354,3.7763,3.7661,3.7785,3.8263,3.9201,4.039,4.1781,4.1103,4.1796,4.4044,4.3215,4.3535,4.4975,4.4975,4.5326,4.5923,4.5207,4.4466,4.3665,4.2159,4.1118,4.0425,3.9607,3.8891,3.8328,3.8162,3.7632,3.6804,3.5413,3.528,3.5545,3.4154,3.3862,3.3946,3.2991,3.3394,3.4549,3.5936,3.6968,3.7826,3.8755,3.9043,3.926,3.9731,4.0057,4.0202,0.0,4.0745,4.147,4.147,4.281,4.4225,4.495,4.6481,4.7984,4.894,5.0415,5.1438,5.1609,5.2352,5.2747,5.2526,5.2688,5.2761,5.259,5.2717,5.2761,5.2635,5.3244,5.3717,5.379,5.4711,5.5524,5.6091,5.6456,5.6951,5.7711,5.7664,5.7747,5.7997,5.7904,5.7904,5.8033,5.8767,5.9098,5.9134,5.9832,6.0126,6.0126,6.0236,6.0272,6.0272,6.0382,6.032,6.022,6.0267,6.0478,6.0878,1.5412,1.5389,1.539,1.5391,1.6014,1.6829,1.7841,1.89,2.031,2.2304,2.3476,2.4719,2.6193,3.0177,3.3523,3.5471,3.6137,3.6445,3.646,3.6654,3.7072,3.7759,3.8959,4.0052,4.0989,4.0997,4.1716,4.324,4.3137,4.3764,4.5115,4.5536,4.5923,4.6154,4.5354,4.4526,4.3697,4.2146,4.1042,4.0282,3.9123,3.8493,3.8129,3.7268,3.6473,3.5843,3.6108,3.6108,0.0,3.4783,3.4084,3.3532,3.2781,3.3114,3.4196,3.5972,3.7506,3.8833,3.9805,4.0709,4.1071,3.955,4.0528,4.1651,4.0709,4.1868,4.3099,4.3099,4.4805,4.6404,4.6731,4.8275,4.9747,5.0592,5.1412,5.1998,5.2389,5.2718,5.2937,5.2761,5.2761,5.2761,5.259,5.3072,5.3363,5.3281,5.4044,5.4745,5.5265,5.5676,5.627,5.712,5.7204,5.7444,5.781,5.7726,5.7763,5.7904,5.8286,5.8553,5.8731,5.9538,5.9905,5.9942,6.0272,6.0419,6.0456,6.0896,6.108,6.1153,6.163,6.1814,6.1716,6.1043,6.0604,6.0487,1.5387,1.539,1.5381,1.5381,1.5415,1.5992,1.7745,1.818,1.9319,2.2022,2.2575,2.3711,2.6287,2.9567,3.1984,3.3099,3.4886,3.5655,3.4874,3.5782,3.6537,3.6992,3.8252,3.9202,3.9832,4.0267,4.1046,4.2045,4.2696,4.3483,4.4483,4.522,4.5572,4.5523,4.4939,4.4078,4.3116,4.1735,4.0634,3.9686,3.8427,3.7665,3.7168,3.6108,3.5379,3.5081,3.634,3.6439,3.5991,3.5819,3.5127,3.4296,3.3888,3.4324,3.5261,3.6791,3.8762,4.06,4.1035,4.2339,4.2918,4.0166,4.1542,4.3208,4.1832,4.3027,4.4476,4.4729,4.644,4.8006,4.8442,4.981,5.1104,5.1907,5.2139,5.2364,5.282,5.2893,5.285,5.2761,5.2899,5.2999,5.2917,5.3463,5.3899,5.4106,5.4833,5.568,5.6564,5.6782,5.734,5.8336,5.8105,5.7996,5.8092,5.7692,5.774,5.8139,5.8677,5.9127,5.9575,6.0382,6.086,6.108,6.108,6.108,6.1117,6.1704,6.1924,6.1998,6.2585,6.2805,6.2708,6.1828,6.1241,6.0964,1.5391,1.5382,1.5405,1.5405,1.5397,1.5977,1.7727,1.8668,1.9487,2.0464,2.1321,2.2815,2.5453,2.6596,2.7851,2.9529,3.1967,3.3256,3.2908,3.5133,3.6362,3.6054,3.6754,3.7549,3.8351,3.8619,3.9386,4.0666,4.1701,4.2455,4.2903,4.3605,4.3957,4.3957,4.3957,4.3075,4.1629,4.0827,3.9631,3.8228,3.7466,3.6274,3.4982,3.4949,3.4916,3.4982,3.5777,3.6009,3.6206,3.7483,3.7581,3.718,3.7001,3.7895,3.8942,3.9014,4.1358,4.3788,4.3027,4.4005,4.4838,4.3172,4.4005,4.5019,4.4186,4.4657,4.549,4.6287,4.712,4.817,4.9727,5.0838,5.1718,5.2445,5.268,5.2725,5.2635,5.259,5.259,5.259,5.3261,5.3686,5.379,5.379,5.4106,5.4798,5.5558,5.6319,5.7116,5.8065,5.8914,5.9714,5.9088,5.8786,5.8786,5.7837,5.7935,5.8981,5.8835,5.9371,6.0382,6.119,6.1998,6.2732,6.2732,6.2732,6.2732,6.2768,6.2768,6.2768,6.2805,6.2805,6.2805,6.2768,6.3036,6.3379,1.5384,1.5409,1.5394,1.5394,1.5899,1.6675,1.7805,1.8234,1.8899,2.0305,2.1279,0.0,0.0,0.0,0.0,0.0,2.9648,3.1196,3.2199,3.3854,3.5254,3.6285,3.6831,3.7474,3.83,3.8313,3.8818,3.9792,4.0601,4.1109,4.1288,4.2026,4.2377,4.2377,4.2102,4.1276,4.0041,3.951,3.8304,3.6738,3.6473,3.6075,3.5678,3.6174,3.6075,3.5892,0.0,3.782,3.6871,3.7848,3.7684,3.7031,3.6986,3.8167,3.9942,4.1863,4.3604,4.4729,4.3896,4.4476,4.5055,4.3969,4.491,4.6033,4.5743,4.6323,4.6975,4.7265,4.7953,4.8822,4.9872,5.0867,5.1754,5.2481,5.2717,5.2761,5.2761,5.2806,5.3032,5.349,5.3727,5.4309,5.5316,5.5293,5.5354,5.5595,5.6355,5.6949,5.7338,5.8101,5.8528,5.8323,5.9088,5.9219,5.8674,5.8892,5.9233,5.9638,6.0335,6.1129,6.1998,6.2291,6.2548,6.2805,6.2805,6.2805,6.2805,6.2805,6.2805,6.2805,6.2805,6.2805,6.2805,6.2805,6.2904,6.3014,1.5843,1.61,1.613,1.5507,1.6364,0.0,0.0,0.0,0.0,0.0,0.0,0.0,0.0,0.0,0.0,0.0,0.0,2.914,3.0489,3.2454,3.4044,3.5119,3.5988,3.6755,3.7514,3.7685,3.8234,3.9186,3.9761,4.0091,4.0276,4.0637,4.0797,4.0797,4.0533,3.9732,3.8654,3.8269,3.7648,3.6903,3.5958,3.6173,3.6952,3.6337,3.6067,0.0,3.8112,3.8241,3.7681,3.9044,3.897,3.8269,3.8192,3.9432,4.1384,4.3818,4.5309,4.5924,4.4838,4.5345,4.5961,4.5164,4.5961,4.6939,4.6939,4.7337,4.7699,4.7699,4.8568,4.9474,4.9981,5.1048,5.2154,5.2872,5.3108,5.3153,5.3108,5.3235,5.3417,5.3836,5.4163,5.4807,5.5982,5.6296,5.6428,5.6428,5.7152,5.7819,5.8159,5.8667,5.9009,5.9183,5.9263,5.932,5.9357,5.9387,5.9743,6.0528,6.2155,6.3025,6.3282,6.3282,6.3282,6.3246,6.2952,6.2805,6.2805,6.2805,6.2805,6.2805,6.2805,6.2805,6.2805,6.2805,6.2805,6.2805,1.6776,1.7387,1.7416,0.0,0.0,0.0,0.0,0.0,0.0,0.0,0.0,0.0,0.0,0.0,0.0,0.0,0.0,0.0,2.7891,3.1003,0.0,3.2728,3.4323,3.5463,3.6045,3.678,3.7638,3.867,3.8976,3.9265,3.9646,3.9282,3.9147,3.9147,3.9182,3.8594,3.7525,3.7178,3.7589,3.8286,3.5871,3.6367,3.8235,3.5487,3.5033,3.5994,3.6615,3.7386,3.8471,4.0815,4.1279,4.0816,4.0599,4.1687,4.3244,4.4802,4.6359,4.7265,4.5743,4.6468,4.7482,4.6757,4.7156,4.7699,4.7699,4.7699,4.7735,4.7772,4.8967,5.0053,5.0198,5.1484,5.2799,5.3566,5.3697,5.3707,5.3686,5.3675,5.3711,5.3748,5.4472,5.5233,5.5993,5.6754,5.7188,5.7188,5.7949,5.8746,5.9506,5.9615,6.0339,6.1788,5.9724,5.9289,6.081,5.9517,5.9721,6.1519,6.4075,6.4897,6.409,6.4127,6.4163,6.4127,6.3282,6.2952,6.2915,6.2879,6.2879,6.2879,6.2842,6.2805,6.2805,6.2879,6.2879,6.2879,0.0,0.0,0.0,0.0,0.0,0.0,0.0,0.0,0.0,0.0,0.0,0.0,0.0,0.0,0.0,0.0,0.0,0.0,2.6987,2.9074,0.0,0.0,0.0,0.0,0.0,3.5989,3.6581,3.7166,3.6868,3.6591,3.6328,3.66,3.6689,3.6724,3.7321,3.73,3.6762,3.6388,3.5892,3.5374,3.47,3.488,3.5441,3.5606,3.5814,3.6191,3.7289,3.7988,3.8526,3.9868,4.0753,4.1274,4.1359,4.252,4.386,4.4295,4.5128,4.5961,4.6142,4.6504,4.6902,4.7301,4.7554,4.7699,4.7699,4.7699,4.788,4.8496,4.8931,4.9764,5.1538,5.1765,5.2091,5.3458,5.3225,5.2917,5.2872,5.3463,5.4127,5.4615,5.5377,5.6128,5.6826,5.708,5.7188,5.7188,5.7949,5.8492,5.8709,5.9832,6.0122,5.9361,6.0484,6.1045,6.0933,6.1995,6.2493,6.2462,6.442,6.4897,6.4127,6.4714,6.5007,6.4971,6.4787,6.4677,6.464,6.4016,6.3759,6.3686,6.3062,6.2805,6.2879,6.3539,6.3759,6.3833,0.0,0.0,0.0,0.0,0.0,0.0,0.0,0.0,0.0,0.0,0.0,0.0,0.0,0.0,0.0,0.0,0.0,0.0,0.0,2.6718,0.0,0.0,0.0,0.0,0.0,3.4394,3.5135,3.6293,3.5832,3.5608,3.558,3.5544,3.5508,3.5507,3.5852,3.591,3.5715,3.5283,3.5377,0.0,0.0,3.4573,3.5659,3.4822,3.4806,3.5269,3.6033,3.7145,3.8401,3.926,4.0161,4.1105,4.1578,4.2556,4.3643,4.4005,4.491,4.5924,4.6395,4.6504,4.6685,4.7518,4.7699,4.7808,4.817,4.8242,4.846,4.9257,4.9727,5.0379,5.1719,5.19,5.2272,5.3552,5.337,5.309,5.3135,5.3535,5.4153,5.4858,5.5366,5.6006,5.708,5.7188,5.7478,5.8202,5.8347,5.8383,5.8383,5.9615,6.0013,5.947,6.0448,6.1171,6.16,6.3033,6.3774,6.3906,6.5228,6.5595,6.5154,6.5632,6.5852,6.5815,6.5448,6.5118,6.4787,6.4677,6.442,6.409,6.3943,6.3906,6.398,6.4457,6.464,6.4677,0.0,0.0,0.0,0.0,0.0,0.0,0.0,0.0,0.0,2.1012,2.0751,2.055,2.037,2.0361,0.0,0.0,0.0,0.0,0.0,0.0,0.0,0.0,0.0,0.0,3.1965,3.2095,3.3066,3.4956,3.4607,3.476,3.5394,3.4862,3.4577,3.4652,3.4482,3.4372,3.4372,3.4036,3.495,3.6456,3.393,3.4404,3.6353,0.0,3.2754,3.3583,3.4002,3.5918,3.8282,3.8725,3.9626,4.06,4.1216,4.2013,4.2882,4.3679,4.5091,4.6359,4.6468,4.6576,4.683,4.7554,4.7627,4.7772,4.8713,4.8749,4.8894,4.9872,5.056,5.1031,5.1249,5.1864,5.2671,5.3681,5.3842,5.3831,5.3826,5.3951,5.4218,5.4834,5.4979,5.5631,5.7043,5.7188,5.7768,5.918,5.8637,5.8383,5.8709,5.9398,6.0122,6.0955,6.0356,6.0788,6.2542,6.3325,6.4197,6.5301,6.6109,6.6439,6.6366,6.6549,6.6586,6.6476,6.5888,6.5228,6.4604,6.5228,6.5044,6.4457,6.5081,6.5301,6.5301,6.5411,6.5485,6.5485,0.0,0.0,0.0,0.0,0.0,0.0,2.1466,2.2102,2.293,2.4099,2.317,2.2081,2.1281,2.1196,0.0,0.0,0.0,0.0,0.0,0.0,0.0,0.0,0.0,0.0,2.7838,2.8366,2.9117,3.0038,2.9533,2.9975,3.1335,3.1297,3.1684,3.2295,3.2647,3.2792,3.2757,3.2366,3.2537,3.2889,3.1627,3.1528,3.1986,3.1167,0.0,0.0,3.3682,3.6114,3.821,3.8321,3.9298,4.0419,3.9948,4.0782,4.2085,4.2846,4.4258,4.5635,4.6323,4.7011,4.7554,4.7663,4.7192,4.7083,4.8568,4.788,4.7518,4.9655,4.9691,4.9727,5.1031,5.1393,5.2019,5.3644,5.4407,5.4542,5.3971,5.4942,5.5547,5.4979,5.545,5.6174,5.7116,5.7188,5.7333,5.7587,5.7478,5.8275,6.0303,6.052,6.0991,6.1788,6.1858,6.2381,6.3381,6.3826,6.4442,6.5301,6.6109,6.6145,6.5558,6.688,6.7136,6.6512,6.7063,6.7173,6.7026,6.6512,6.6219,6.6035,6.5521,6.5301,6.5375,6.6035,6.6292,6.6402,0.0,0.0,0.0,0.0,0.0,0.0,0.0,2.4728,2.6044,2.8055,2.807,2.672,2.3595,2.249,2.1644,0.0,0.0,0.0,0.0,0.0,0.0,0.0,0.0,0.0,2.5479,2.577,2.6256,2.695,0.0,2.7428,2.8033,2.832,2.8587,2.8828,2.8934,2.9122,2.9386,2.9257,2.9709,3.0475,2.9927,2.9916,3.0163,0.0,0.0,0.0,3.316,3.553,3.7631,3.8029,3.9224,4.0456,4.0093,4.0492,4.1578,4.4041,4.5019,4.5671,4.7301,4.7735,4.7699,4.7699,4.712,4.7047,4.9075,4.8279,4.7808,5.0234,5.009,4.9764,5.0524,5.0995,5.1584,5.2518,5.3281,5.3644,5.3244,5.3862,5.4324,5.4255,5.4979,5.5884,5.708,5.7188,5.755,5.8383,5.8058,5.8347,5.9506,6.0375,6.1172,6.2005,6.2222,6.2927,6.4184,6.403,6.4846,6.6549,6.6512,6.6512,6.6549,6.6916,6.71,6.71,6.71,6.7063,6.7063,6.71,6.688,6.6512,6.6549,6.6549,6.6586,6.699,6.71,6.7173,0.0,0.0,0.0,0.0,0.0,0.0,0.0,2.7115,2.8845,3.1477,3.2124,3.0798,2.6773,2.4674,2.2968,0.0,0.0,0.0,0.0,0.0,0.0,0.0,0.0,0.0,0.0,0.0,0.0,2.4408,2.4996,0.0,0.0,0.0,0.0,0.0,2.5769,2.5938,2.647,2.6579,2.7343,0.0,0.0,2.8656,2.9071,0.0,0.0,0.0,0.0,3.4806,3.712,3.7703,3.8971,4.0311,4.0456,4.0745,4.1723,4.52,4.5924,4.5961,4.788,4.8061,4.7663,4.7482,4.6975,4.7047,4.9112,4.846,4.8025,5.009,4.9916,4.9372,4.9329,5.0025,5.0794,5.1427,5.2409,5.3017,5.2881,5.3172,5.3406,5.3675,5.4399,5.545,5.679,5.708,5.7732,5.8999,5.8999,5.8927,5.8927,6.0303,6.1353,6.2005,6.2168,6.3056,6.4767,6.4161,6.516,6.7687,6.688,6.6843,6.743,6.6953,6.699,6.7393,6.6953,6.6769,6.6806,6.743,6.732,6.6806,6.743,6.7687,6.7687,6.7687,6.7687,6.7687,0.0,0.0,0.0,0.0,0.0,0.0,0.0,2.7115,2.9769,3.3069,3.2234,3.1156,3.0701,2.8464,2.5473,0.0,0.0,0.0,0.0,0.0,0.0,0.0,0.0,0.0,0.0,0.0,0.0,2.1859,2.1927,0.0,0.0,0.0,0.0,0.0,0.0,2.5466,2.6069,2.6069,0.0,0.0,0.0,0.0,0.0,0.0,0.0,0.0,0.0,3.4335,3.7011,3.7087,3.8174,3.9623,4.0311,4.1506,4.3027,4.4874,4.5888,4.6432,4.6649,4.7192,4.7518,4.6794,4.654,4.6757,4.7699,4.7228,4.6902,4.7844,4.7493,4.6989,4.683,4.7565,4.8841,5.11,5.3298,5.4484,5.3862,5.4894,5.516,5.3856,5.4399,5.5233,5.6029,5.6754,5.7261,5.7406,5.9398,6.0593,6.0593,6.1426,6.1933,6.2005,6.2275,6.3162,6.4767,6.4302,6.5301,6.7687,6.688,6.6549,6.6623,6.7283,6.721,6.6659,6.7283,6.7577,6.7577,6.765,6.765,6.7577,6.765,6.7687,6.7687,6.7687,6.7687,6.7687,0.0,0.0,0.0,0.0,0.0,0.0,2.6091,2.8199,3.0663,3.3998,3.4301,3.3619,3.2103,3.0625,2.7646,2.2486,0.0,0.0,0.0,0.0,0.0,0.0,0.0,0.0,0.0,0.0,2.0876,2.1623,2.2069,0.0,0.0,0.0,0.0,0.0,0.0,2.3985,2.4076,2.4018,0.0,0.0,0.0,0.0,0.0,0.0,0.0,0.0,0.0,0.0,3.5711,3.6653,3.8065,3.9695,4.1397,4.2701,4.3932,4.5562,4.5924,4.5997,4.6975,4.6757,4.6178,4.5852,4.5417,4.5526,4.7301,4.6323,4.5562,4.7337,4.6726,4.6005,4.6513,4.7316,4.8483,5.0496,5.2381,5.3644,5.3826,5.4724,5.5003,5.382,5.4798,5.5848,5.6645,5.7007,5.7587,5.8565,5.9977,6.1245,6.2186,6.2549,6.273,6.273,6.2966,6.3892,6.5496,6.5563,6.6256,6.7687,6.7357,6.721,6.721,6.7026,6.7063,6.721,6.7026,6.7247,6.7687,6.7687,6.7687,6.7687,6.7687,6.7687,6.7687,6.7687,6.7687,6.7687,0.0,0.0,0.0,0.0,0.0,2.3499,2.6318,2.8609,3.0924,3.3468,3.4567,3.4301,3.2293,3.089,2.8237,2.3651,2.2871,0.0,0.0,0.0,0.0,0.0,0.0,0.0,0.0,0.0,2.1298,2.2066,2.2843,2.3488,0.0,0.0,2.4647,2.4067,0.0,0.0,0.0,0.0,0.0,0.0,0.0,0.0,0.0,0.0,0.0,0.0,0.0,0.0,0.0,0.0,0.0,3.9404,4.1252,4.2737,4.4041,4.5671,4.5743,4.5562,4.6685,4.6178,4.5236,4.4983,4.4874,4.5128,4.6359,4.5707,4.5164,4.6395,4.5784,4.5207,4.5867,4.667,4.7838,4.9737,5.1559,5.3008,5.3681,5.4651,5.5075,5.4436,5.574,5.6826,5.7152,5.7188,5.7985,5.9832,6.0701,6.186,6.3454,6.378,6.378,6.3563,6.3803,6.4621,6.597,6.6316,6.688,6.7687,6.7687,6.7687,6.765,6.71,6.7136,6.765,6.71,6.7173,6.7724,6.7944,6.7907,6.7724,6.7944,6.7907,6.7687,6.7687,6.7687,6.7687,0.0,0.0,0.0,0.0,0.0,0.0,2.4777,2.7909,3.0358,3.1134,3.1951,3.2141,3.1307,2.8995,2.6849,2.5143,2.3498,0.0,0.0,0.0,0.0,0.0,0.0,0.0,0.0,0.0,2.2196,2.2983,2.3864,2.4225,2.4099,2.4763,2.5473,2.6121,0.0,0.0,0.0,0.0,0.0,0.0,0.0,0.0,0.0,0.0,0.0,0.0,0.0,0.0,0.0,0.0,0.0,0.0,0.0,4.1035,4.3208,4.4838,4.5309,4.5309,4.5309,4.5309,4.5091,4.4295,4.5309,4.6069,4.4476,4.5345,4.6033,4.444,4.4227,4.4304,4.4304,4.5035,4.6424,4.8831,5.1108,5.2917,5.3681,5.5075,5.5993,5.5957,5.7406,5.8058,5.7261,5.7188,5.8202,6.0629,6.1534,6.2693,6.4287,6.512,6.5192,6.4396,6.4639,6.5168,6.597,6.6316,6.688,6.7687,6.7687,6.7687,6.7687,6.7687,6.7687,6.7687,6.7687,6.7687,6.776,6.8568,6.8421,6.776,6.8568,6.8385,6.7687,6.7687,6.7687,6.7687,0.0,0.0,0.0,0.0,0.0,0.0,0.0,2.559,2.7352,2.9223,2.9699,2.9964,3.0267,2.8616,2.6849,2.5143,2.3536,0.0,0.0,0.0,0.0,0.0,0.0,0.0,0.0,0.0,2.2763,2.4779,2.5649,2.6592,2.7614,2.8384,2.8427,2.7909,2.7637,2.6927,0.0,0.0,0.0,0.0,0.0,0.0,2.9254,0.0,0.0,0.0,0.0,0.0,0.0,0.0,0.0,0.0,0.0,0.0,0.0,4.2812,4.408,4.5164,4.4621,4.4874,4.5236,4.4983,4.4551,4.4338,4.4919,4.4231,4.3614,4.416,4.3906,4.3725,4.4382,4.5186,4.6577,4.9069,5.1317,5.3235,5.4675,5.5582,5.5958,5.5414,5.6151,5.6912,5.7302,5.7746,5.8616,6.001,6.0791,6.2114,6.4287,6.5156,6.554,6.5363,6.5532,6.6062,6.7012,6.7212,6.743,6.7687,6.7687,6.7687,6.7687,6.7687,6.7687,6.7687,6.7687,6.7687,6.776,6.8568,6.8421,6.776,6.8605,6.8752,6.8458,6.7907,6.8054,6.8531,0.0,0.0,0.0,0.0,0.0,0.0,0.0,2.4164,2.5539,2.6702,2.738,2.8085,2.8919,2.7252,2.5787,2.5067,2.3208,0.0,0.0,0.0,0.0,0.0,0.0,0.0,0.0,2.2563,2.414,2.7056,2.8267,2.9497,3.0746,3.1516,3.1338,3.0305,2.9639,2.8703,0.0,0.0,0.0,0.0,0.0,0.0,2.9533,0.0,0.0,0.0,0.0,0.0,0.0,0.0,0.0,0.0,0.0,0.0,0.0,0.0,4.2886,4.43,4.3425,4.3788,4.4331,4.408,4.3576,4.3359,4.4378,4.3506,4.2704,4.3761,4.3543,4.3506,4.4419,4.526,4.6505,4.8746,5.1224,5.3434,5.5176,5.6161,5.6746,5.6806,5.6889,5.7325,5.8224,5.8123,5.8631,6.015,6.0574,6.2005,6.4722,6.5337,6.5851,6.6276,6.6389,6.6755,6.747,6.7633,6.7687,6.7687,6.7687,6.7687,6.7687,6.7687,6.7687,6.7687,6.7687,6.7687,0.0,6.8568,6.8605,6.8238,6.9045,6.9339,6.9302,6.8788,6.8715,6.8935,0.0,0.0,0.0,0.0,0.0,0.0,0.0,2.3419,2.464,2.3824,2.4993,2.6242,2.7077,2.5015,2.3916,2.4636,0.0,0.0,0.0,0.0,0.0,0.0,0.0,0.0,0.0,2.3936,2.6113,2.9601,3.1194,3.2526,3.3509,3.4115,3.3953,3.3081,3.1234,3.0228,0.0,0.0,0.0,0.0,2.7335,2.8304,0.0,0.0,0.0,0.0,0.0,0.0,0.0,0.0,0.0,0.0,0.0,0.0,0.0,0.0,0.0,0.0,0.0,4.2339,4.292,4.2305,4.2632,4.3141,4.3251,4.3214,0.0,4.3251,4.3287,4.3579,4.4528,4.5333,4.6469,4.8233,5.1046,5.3676,5.5249,5.6619,5.7972,5.9459,5.8878,5.8732,5.9641,5.8333,5.8405,6.084,6.0864,6.2223,6.541,6.5591,6.6126,6.7174,6.721,6.7322,6.747,6.7633,6.7687,6.7687,6.7687,6.7687,6.7687,6.7687,6.7687,6.7687,6.7687,6.7687,6.776,6.8568,6.8898,6.8972,6.9779,7.011,7.0183,7.011,6.9669,6.9192,0.0,0.0,0.0,0.0,0.0,0.0,0.0,0.0,0.0,0.0,2.317,2.3461,2.3651,2.312,2.259,0.0,0.0,0.0,0.0,0.0,0.0,0.0,0.0,0.0,0.0,2.4773,2.6942,3.0502,3.1561,3.3141,3.5212,3.5366,3.5262,3.4908,3.3197,3.086,0.0,0.0,0.0,0.0,2.7317,2.8207,0.0,0.0,0.0,0.0,3.1803,3.2298,0.0,0.0,0.0,0.0,0.0,0.0,0.0,0.0,4.0955,4.2814,4.1394,0.0,4.4924,4.4704,4.3943,4.3397,0.0,4.3286,4.2842,4.4088,4.4344,4.4601,4.5443,4.625,4.7534,4.9848,5.2291,5.4517,5.6226,5.6173,5.6473,5.7935,5.6782,5.6709,5.8846,5.7919,5.8355,6.0944,6.0917,6.2277,6.5581,6.5727,6.6296,6.7378,6.7414,6.7524,6.7633,6.7687,6.7687,6.7687,6.7687,6.7687,6.7687,6.7687,6.7687,6.7687,6.7687,6.7687,6.776,6.8568,6.8898,6.8972,6.9779,7.0477,7.0954,7.033,7.0367,7.077,0.0,0.0,0.0,0.0,0.0,0.0,0.0,0.0,0.0,0.0,0.0,0.0,0.0,0.0,0.0,0.0,0.0,0.0,0.0,0.0,0.0,0.0,0.0,0.0,2.5356,2.6623,2.9017,3.2547,3.3434,3.4919,3.6999,3.6985,3.6744,3.6203,3.4042,3.1158,0.0,0.0,0.0,0.0,2.7381,0.0,0.0,0.0,0.0,0.0,3.1569,3.2205,0.0,3.4602,3.5349,3.5615,0.0,0.0,0.0,0.0,4.0221,4.2083,4.157,4.2923,4.4379,4.409,4.3652,4.3577,4.4346,4.3978,4.3754,4.5002,4.5259,4.5626,4.6801,4.7682,4.882,5.0508,5.2779,5.4862,5.6475,5.7235,5.7617,5.7486,5.7134,5.7218,5.8166,5.7741,5.8505,6.0996,6.0695,6.1933,6.5602,6.5456,6.5951,6.7433,6.747,6.7524,6.7687,6.7687,6.7687,6.7687,6.7687,6.7687,6.7687,6.7687,6.7687,6.7687,6.7687,6.7687,6.7724,6.8164,6.8788,6.9486,6.9926,7.0807,7.1798,7.1358,7.1248,7.1358,0.0,0.0,0.0,0.0,0.0,0.0,0.0,0.0,0.0,0.0,0.0,0.0,0.0,0.0,0.0,0.0,0.0,0.0,0.0,0.0,0.0,0.0,0.0,0.0,2.714,2.9045,3.1565,3.4798,3.5955,3.7343,3.9016,3.9013,3.8319,3.6984,3.4331,3.128,0.0,0.0,0.0,2.6467,2.7285,0.0,0.0,0.0,0.0,0.0,0.0,0.0,0.0,3.5058,3.5752,3.5866,3.6868,0.0,0.0,0.0,0.0,0.0,4.2331,4.2959,4.3142,4.2372,4.2917,4.3759,4.438,4.4709,4.5149,4.6067,4.6177,4.6617,4.8379,4.9187,4.9958,5.1169,5.3261,5.5236,5.6649,5.837,5.9042,5.7813,5.8215,5.8421,5.7886,5.7788,5.8702,6.1047,6.0471,6.1693,6.5476,6.5112,6.5642,6.7305,6.7488,6.7579,6.7687,6.7687,6.7687,6.7687,6.7687,6.7687,6.7687,6.7687,6.7687,6.7687,6.7687,6.7687,6.7687,6.7687,6.8641,7.011,7.011,7.1064,7.2496,7.2496,7.2092,7.1578,0.0,0.0,0.0,0.0,0.0,0.0,0.0,0.0,0.0,0.0,0.0,0.0,0.0,0.0,0.0,0.0,0.0,0.0,0.0,0.0,0.0,0.0,0.0,0.0,0.0,0.0,3.3621,3.5694,3.8068,4.0078,4.1704,4.1696,4.0064,3.6984,3.4404,3.1708,2.9062,0.0,2.7108,2.5645,2.652,0.0,0.0,0.0,0.0,0.0,0.0,0.0,0.0,3.3974,3.4946,3.5612,3.5154,0.0,0.0,0.0,0.0,0.0,4.3719,4.4345,4.4017,4.2589,4.3391,4.4343,4.3722,4.471,4.614,4.7645,4.7388,4.7645,4.9994,4.9958,5.0508,5.3371,5.5317,5.6748,5.762,5.6969,5.6914,5.8567,5.769,5.7481,5.8677,5.8081,5.8653,6.1199,6.1135,6.2178,6.5001,6.5659,6.6152,6.6606,6.732,6.7687,6.7687,6.7687,6.7687,6.7687,6.7687,6.7687,6.7687,6.7687,6.7687,6.7687,6.7687,6.7687,6.7687,6.7687,6.8641,7.011,7.011,7.1064,7.2496,7.2496,7.2422,7.2349,0.0,0.0,0.0,0.0,0.0,0.0,0.0,0.0,0.0,0.0,0.0,0.0,0.0,0.0,0.0,0.0,0.0,0.0,0.0,0.0,0.0,0.0,0.0,0.0,0.0,0.0,3.482,3.659,3.8736,4.0184,4.0933,4.0905,3.9544,3.7016,3.4931,3.2519,2.9978,2.8695,2.7394,2.6236,0.0,0.0,0.0,0.0,0.0,0.0,0.0,0.0,0.0,0.0,3.4756,3.5627,3.5296,0.0,0.0,0.0,0.0,0.0,4.2983,4.4013,4.4271,4.2658,4.3793,4.5369,4.537,4.5993,4.7131,4.9224,4.937,4.9591,5.1169,5.1867,5.2674,5.4142,5.5023,5.575,5.6475,5.6777,5.7208,5.802,5.8055,5.8077,5.8227,5.7946,5.8798,6.1249,6.0943,6.1931,6.4835,6.5384,6.5877,6.6476,6.7283,6.7687,6.7687,6.7687,6.7687,6.7687,6.7687,6.7687,6.7687,6.7687,6.7687,6.7687,6.7687,6.7687,6.7687,6.7687,6.8641,7.011,7.011,7.1064,7.2496,7.2496,7.2496,7.2496,0.0,0.0,0.0,0.0,0.0,0.0,0.0,0.0,0.0,0.0,0.0,0.0,0.0,0.0,0.0,0.0,0.0,0.0,0.0,0.0,0.0,0.0,0.0,0.0,0.0,0.0,3.6356,3.811,4.0042,4.0879,4.0695,4.0226,3.9069,3.7311,3.5464,3.3295,3.0925,2.9206,2.7984,2.7185,0.0,0.0,0.0,0.0,0.0,0.0,0.0,0.0,0.0,0.0,0.0,0.0,0.0,0.0,0.0,3.8095,3.9239,4.0891,4.2433,4.3754,4.4488,4.3644,4.4819,4.625,4.6507,4.7131,4.8233,5.0141,5.0655,5.1096,5.2087,5.3739,5.4913,5.4693,5.484,5.5053,5.5367,5.6777,5.7684,5.7534,5.8359,5.8564,5.7704,5.7857,5.8867,6.1006,6.0604,6.1592,6.4632,6.5034,6.5563,6.6476,6.7283,6.7687,6.7687,6.7687,6.7687,6.7687,6.7687,6.7687,6.7687,6.7687,6.7687,6.7687,6.7687,6.7687,6.7687,6.7687,6.8641,7.011,7.011,7.1064,7.2496,7.2496,7.2496,7.2496,0.0,0.0,0.0,0.0,0.0,0.0,0.0,0.0,0.0,0.0,0.0,0.0,0.0,0.0,0.0,0.0,0.0,0.0,0.0,0.0,0.0,0.0,0.0,0.0,0.0,3.772,3.9084,4.0838,4.3294,4.4139,4.3305,4.1661,3.9964,3.8213,3.5783,3.37,3.1902,3.0131,2.8887,2.8072,2.7938,0.0,0.0,0.0,0.0,0.0,0.0,0.0,0.0,0.0,0.0,0.0,0.0,0.0,3.7155,3.9148,3.9313,3.9717,4.3497,4.4635,4.5039,4.6434,4.6911,4.6654,4.5223,4.7241,4.9444,4.9627,5.0288,5.1279,5.2858,5.506,5.6381,5.5611,5.6124,5.6381,5.5684,5.6345,5.7107,5.77,5.7941,5.8024,5.781,5.7904,5.8694,6.0382,6.0456,6.152,6.4016,6.4897,6.5668,6.6476,6.7283,6.7687,6.7687,6.7687,6.7687,6.7687,6.7687,6.7687,6.7687,6.7687,6.7687,6.7687,6.7687,6.7687,6.7687,6.7687,6.8641,7.011,7.011,7.1064,7.2496,7.2496,7.2496,7.2496,0.0,0.0,0.0,0.0,0.0,0.0,0.0,0.0,0.0,0.0,0.0,0.0,0.0,0.0,0.0,0.0,0.0,0.0,0.0,0.0,0.0,0.0,0.0,3.1602,3.7876,3.8344,3.9591,4.1851,4.2315,4.2383,4.2034,4.0833,3.933,3.7609,3.6679,3.4969,3.2712,3.1008,2.973,2.8845,2.8286,2.8487,0.0,0.0,0.0,0.0,0.0,0.0,0.0,0.0,3.3439,3.4812,3.4866,3.6728,3.898,3.9246,4.0099,4.1589,4.4635,4.5443,4.5847,4.7462,4.8636,4.9114,4.8012,4.871,5.0031,5.1536,5.2087,5.2784,5.4399,5.5023,5.5354,5.5574,5.5868,5.6124,5.6308,5.6602,5.707,5.77,5.7904,5.795,5.781,5.7904,5.8657,6.0272,6.086,6.1998,6.398,6.5338,6.6182,6.6476,6.7283,6.7687,6.7687,6.7687,6.7687,6.7687,6.7687,6.7687,6.7687,6.7687,6.7687,6.7687,6.7687,6.7687,6.7687,6.7687,6.8641,7.0183,7.1211,7.1945,7.2496,7.2496,7.2496,7.2496,0.0,0.0,0.0,0.0,0.0,0.0,0.0,0.0,0.0,0.0,0.0,0.0,0.0,0.0,0.0,0.0,0.0,0.0,0.0,0.0,0.0,0.0,0.0,3.1447,3.7564,3.8227,3.9747,4.2318,4.1459,4.1094,4.1072,3.9919,3.8892,3.799,3.7157,3.5632,3.3648,3.1843,3.0542,2.9668,2.9068,2.91,0.0,0.0,0.0,0.0,0.0,0.0,0.0,0.0,3.2792,3.4074,3.4321,3.6761,3.95,3.9398,4.0782,4.2763,4.4929,4.57,4.6361,4.8196,4.9554,5.0398,5.0362,5.0729,5.1426,5.2601,5.3225,5.4069,5.5684,5.5721,5.5721,5.6271,5.6345,5.6455,5.6748,5.7042,5.7327,5.7737,5.7904,5.795,5.781,5.7904,5.8657,6.0272,6.1153,6.2438,6.4383,6.5742,6.6623,6.688,6.7393,6.7687,6.7687,6.7687,6.7687,6.7687,6.7687,6.7687,6.7687,6.7687,6.7687,6.7687,6.7687,6.7687,6.7687,6.7687,6.8641,7.0257,7.1872,7.2496,7.2496,7.2496,7.2496,7.2496,0.0,0.0,0.0,0.0,0.0,0.0,0.0,0.0,0.0,0.0,0.0,0.0,0.0,0.0,0.0,0.0,0.0,0.0,0.0,2.3097,0.0,0.0,0.0,3.1486,3.5772,3.7603,3.9747,4.2318,4.1431,4.1048,4.1037,3.9316,3.8965,0.0,0.0,0.0,3.4562,3.2681,3.1414,3.0607,3.0469,3.0379,3.0379,0.0,0.0,0.0,0.0,0.0,0.0,0.0,3.2542,3.2825,3.5305,3.6873,3.8126,3.9731,4.1188,4.2653,4.4268,4.5296,4.6471,4.8893,4.9554,5.0031,5.1646,5.3261,5.3959,5.238,5.3298,5.4913,5.6528,5.7446,5.7997,5.7997,5.7997,5.7703,5.6932,5.7483,5.795,5.781,5.7904,5.795,5.781,5.7904,5.8694,6.0272,6.1153,6.2695,6.5191,6.6072,6.688,6.765,6.7687,6.7687,6.7687,6.7687,6.7687,6.7687,6.7687,6.7687,6.7687,6.7687,6.7687,6.7687,6.7687,6.7687,6.7687,6.7724,6.8641,7.0257,7.1872,7.2496,7.2496,7.2496,7.2496,7.2496,0.0,0.0,0.0,0.0,0.0,0.0,0.0,0.0,0.0,0.0,0.0,0.0,0.0,0.0,0.0,0.0,0.0,0.0,2.2983,2.3104,2.4355,2.716,2.8134,0.0,0.0,3.6084,3.9156,4.2357,4.2099,4.1094,3.9345,3.938,0.0,3.7097,0.0,0.0,3.4418,3.3293,3.2266,3.1362,3.0667,3.0402,3.0402,0.0,0.0,0.0,0.0,0.0,0.0,0.0,0.0,0.0,3.3418,3.6007,3.8738,3.8786,4.0452,4.2653,4.4268,4.4892,4.5773,4.882,5.0435,5.1536,5.2601,5.3665,5.473,5.5978,5.5684,5.5721,5.7336,5.7373,5.7336,5.7923,5.7997,5.7923,5.7666,5.785,5.7997,5.795,5.7997,5.795,5.781,5.8417,5.9234,6.0164,6.2168,6.3943,6.5228,6.6586,6.743,6.7687,6.7687,6.7687,6.7687,6.7687,6.7687,6.7687,6.7687,6.7687,6.7687,6.7687,6.7687,6.7687,6.7687,6.7687,6.776,6.8898,6.9669,7.0257,7.1872,7.2496,7.2496,7.2496,7.2496,7.2496,0.0,0.0,0.0,0.0,0.0,0.0,0.0,0.0,2.05,2.05,2.049,2.048,0.0,0.0,0.0,2.0519,2.048,0.0,2.2991,2.3108,2.4238,2.6809,2.7394,2.907,3.2036,3.5437,3.8241,4.0345,4.0695,4.0078,3.8612,0.0,0.0,3.7461,0.0,3.7375,3.5429,3.4233,3.314,3.2199,3.1261,3.0636,3.0292,0.0,0.0,0.0,0.0,0.0,0.0,0.0,0.0,0.0,3.253,3.4956,3.7809,3.8864,4.0659,4.2727,4.4672,4.5406,4.6214,4.8489,5.0068,5.1573,5.3665,5.4509,5.528,5.6748,5.6528,5.6381,5.7336,5.7409,5.7446,5.7923,5.7997,5.7997,5.7997,5.7997,5.7997,5.7997,5.7997,5.795,5.7904,5.8684,5.9637,6.0689,6.2828,6.4567,6.5742,6.699,6.7687,6.7687,6.7687,6.7687,6.7687,6.7687,6.7687,6.7687,6.7687,6.7687,6.7687,6.7687,6.7687,6.7687,6.7687,6.7687,6.7797,6.9449,7.011,7.0257,7.1872,7.2496,7.2496,7.2496,7.2496,7.2496,0.0,0.0,0.0,0.0,0.0,0.0,0.0,2.0514,2.0503,2.05,2.05,2.05,0.0,0.0,0.0,2.05,2.05,2.1201,2.2874,2.3069,2.416,2.6576,2.6887,2.8567,3.1924,3.5112,3.6816,3.6989,3.8081,3.8555,0.0,0.0,3.9,3.9543,0.0,3.802,0.0,3.5164,3.3847,3.291,3.1864,3.0957,3.0199,3.0109,0.0,0.0,0.0,0.0,0.0,0.0,0.0,0.0,3.2302,3.3901,3.5973,3.9399,4.129,4.2763,4.4966,4.6324,4.7278,4.8012,4.9077,5.0875,5.462,5.5574,5.5757,5.5978,5.6455,5.6859,5.7005,5.7556,5.7997,5.7997,5.7997,5.7997,5.7997,5.7997,5.7997,5.7997,5.7997,5.7997,5.7997,5.8877,6.0052,6.1484,6.3282,6.4934,6.6402,6.7247,6.7687,6.7687,6.7687,6.7687,6.7687,6.7687,6.7687,6.7687,6.7687,6.7687,6.7687,6.7687,6.7687,6.7687,6.7687,6.7687,6.7797,6.9449,7.011,7.0257,7.1872,7.2496,7.2496,7.2496,7.2496,7.2496,0.0,0.0,0.0,0.0,0.0,0.0,2.0492,2.0486,2.0516,2.0503,2.05,2.05,2.05,2.05,0.0,2.05,2.05,2.0968,2.2017,2.2718,2.3653,2.4861,2.6835,2.8912,3.1019,3.2483,3.3863,3.5234,3.8125,3.8865,0.0,0.0,0.0,3.7769,0.0,3.7954,0.0,3.436,3.3199,3.286,3.12,3.042,3.019,2.9448,2.8949,0.0,0.0,0.0,0.0,0.0,0.0,0.0,3.1958,3.3901,3.5751,3.8041,4.0399,4.2396,4.2947,4.5039,4.7168,4.7315,4.9921,5.2821,5.4326,5.5647,5.7079,5.8988,5.7997,5.7189,5.8474,5.8327,5.7997,5.7997,5.7997,5.7997,5.7997,5.7997,5.7997,5.7997,5.7997,5.795,5.7857,5.9821,6.1178,6.1409,6.4259,6.6109,6.6476,6.7247,6.7687,6.7687,6.7687,6.7687,6.7687,6.7687,6.7687,6.7687,6.7687,6.7687,6.7687,6.7687,6.7687,6.7687,6.7687,6.7687,6.7797,6.9449,7.011,7.0257,7.1872,7.2496,7.2496,7.2496,7.2496,7.2496,0.0,0.0,0.0,0.0,0.0,0.0,0.0,0.0,2.0494,2.0516,2.0514,2.0511,2.05,2.05,0.0,0.0,2.05,2.089,2.1747,2.2211,2.303,2.4355,2.6487,2.8059,2.8957,3.062,3.1914,3.281,3.5465,3.6942,0.0,0.0,0.0,3.7258,0.0,3.7942,0.0,0.0,3.3991,3.3416,3.1993,3.0956,3.019,2.9702,2.9039,2.8261,2.7854,0.0,0.0,0.0,0.0,0.0,0.0,0.0,3.4419,3.7934,3.9733,4.1107,4.359,4.5401,4.6911,4.8489,5.1059,5.3518,5.4693,5.5904,5.7262,5.8914,5.8253,5.7629,5.8474,5.829,5.7997,5.7997,5.7997,5.7997,5.7997,5.7997,5.7997,5.7997,5.7997,5.7997,5.7904,5.9784,6.1288,6.2008,6.4442,6.6256,6.7026,6.7467,6.7687,6.7687,6.7687,6.7687,6.7687,6.7687,6.7687,6.7687,6.7687,6.7687,6.7687,6.7687,6.7687,6.7687,6.7687,6.7687,6.7797,6.9449,7.011,7.0257,7.1872,7.2496,7.2496,7.2496,7.2496,7.2496,0.0,0.0,0.0,0.0,0.0,0.0,0.0,0.0,0.0,2.0494,2.049,2.0484,2.0511,2.0503,2.05,0.0,0.0,0.0,2.1513,2.1711,2.2569,2.4323,2.5793,2.67,2.6974,2.9062,3.0271,3.0583,3.2057,3.4081,0.0,0.0,0.0,3.7214,0.0,0.0,0.0,0.0,0.0,0.0,0.0,0.0,0.0,0.0,0.0,2.8313,2.8007,2.8338,2.8911,2.8911,0.0,0.0,0.0,0.0,3.3235,3.8153,3.9425,4.0265,4.4962,4.6389,4.7241,5.0251,5.2234,5.3812,5.5244,5.6235,5.7042,5.7813,5.7997,5.7997,5.7997,5.7997,5.7997,5.7997,5.7997,5.7997,5.7997,5.7997,5.7997,5.7997,5.8107,5.8143,5.7997,5.9722,6.1374,6.2695,6.4494,6.6145,6.7614,6.7687,6.7687,6.7687,6.7687,6.7687,6.7687,6.7687,6.7687,6.7687,6.7687,6.7687,6.7687,6.7687,6.7687,6.7687,6.7687,6.7687,6.7797,6.9449,7.011,7.0257,7.1872,7.2496,7.2496,7.2496,7.2496,7.2496,0.0,0.0,0.0,0.0,0.0,0.0,0.0,0.0,0.0,0.0,2.0495,2.0492,2.05,2.048,2.0506,2.0484,2.0509,2.0539,2.0656,0.0,0.0,2.4303,2.4606,2.5469,2.6953,2.7338,2.8268,2.9752,2.9984,0.0,0.0,0.0,0.0,3.7214,0.0,0.0,0.0,0.0,0.0,0.0,0.0,0.0,0.0,0.0,0.0,3.072,2.9254,2.8796,2.8911,2.8911,2.8987,0.0,0.0,0.0,3.4093,3.7688,4.0051,4.2053,4.4649,4.7202,4.9517,5.1389,5.3041,5.4473,5.539,5.6235,5.7042,5.7813,5.7997,5.7997,5.7997,5.7997,5.7997,5.7997,5.7997,5.7997,5.7997,5.7997,5.7997,5.7997,5.8621,5.8767,5.807,6.0713,6.2585,6.2805,6.5007,6.6733,6.765,6.7687,6.7687,6.7687,6.7687,6.7687,6.7687,6.7687,6.7687,6.7687,6.7687,6.7687,6.7687,6.7687,6.7687,6.7687,6.7687,6.7687,6.7797,6.9449,7.011,7.0257,7.1872,7.2496,7.2496,7.2496,7.2496,7.2496,0.0,0.0,0.0,0.0,0.0,0.0,0.0,0.0,0.0,0.0,0.0,2.0544,2.0504,2.0497,2.0494,2.0498,2.0494,2.049,2.049,2.1315,2.2138,2.2917,2.3398,2.4023,2.4804,2.5774,2.6663,2.7405,2.8889,0.0,0.0,3.4693,3.5693,0.0,0.0,0.0,0.0,0.0,0.0,0.0,0.0,0.0,0.0,0.0,0.0,0.0,0.0,0.0,3.1675,3.1202,3.0706,3.0414,3.0682,0.0,0.0,0.0,3.8515,4.1451,4.5462,4.7682,4.937,5.1463,5.2858,5.3959,5.473,5.5904,5.6895,5.7262,5.7703,5.7997,5.7997,5.7997,5.7997,5.7997,5.7997,5.7997,5.7997,5.7997,5.7997,5.7997,5.8327,5.84,5.8033,6.0089,6.1851,6.2732,6.4677,6.6366,6.7614,6.7687,6.7687,6.7687,6.7687,6.7687,6.7687,6.7687,6.7687,6.7687,6.7687,6.7687,6.7687,6.7687,6.7687,6.7687,6.7687,6.7687,6.7797,6.9449,7.011,7.0257,7.1872,7.2496,7.2496,7.2496,7.2496,7.2496,0.0,0.0,0.0,0.0,0.0,0.0,0.0,0.0,0.0,0.0,0.0,2.0585,2.0547,0.0,0.0,0.0,2.0505,2.0504,2.0504,2.113,2.1483,2.1483,2.2109,2.2577,2.2771,2.4053,2.4946,2.5375,0.0,0.0,3.2751,3.4055,3.5198,0.0,3.6075,0.0,0.0,0.0,0.0,0.0,0.0,0.0,0.0,0.0,0.0,0.0,0.0,0.0,3.5381,3.412,3.3127,3.2248,3.1178,3.1584,0.0,0.0,0.0,4.1327,4.5462,4.7418,4.8746,5.0701,5.2059,5.3115,5.3922,5.517,5.6308,5.6712,5.7299,5.7776,5.796,5.7997,5.7997,5.7997,5.7997,5.7997,5.7997,5.7997,5.7997,5.7997,5.818,5.829,5.829,5.9942,6.1594,6.3025,6.4677,6.6219,6.7614,6.7687,6.7687,6.7687,6.7687,6.7687,6.7687,6.7687,6.7687,6.7687,6.7687,6.7687,6.7687,6.7687,6.7687,6.7687,6.7687,6.7687,6.7797,6.9449,7.011,7.0257,7.1872,7.2496,7.2496,7.2496,7.2496,7.2496,0.0,0.0,0.0,0.0,0.0,0.0,0.0,0.0,0.0,0.0,0.0,2.0583,2.0615,2.0547,2.0545,2.0585,2.0546,2.0504,2.0504,2.0586,2.0663,2.0663,2.0697,0.0,2.194,2.2057,2.2875,0.0,0.0,0.0,3.0994,3.3448,3.5425,3.6931,3.6823,3.7167,3.7817,0.0,0.0,0.0,0.0,0.0,0.0,0.0,0.0,4.2259,4.0616,0.0,0.0,3.7139,3.5725,3.4732,3.3073,3.2615,3.3035,0.0,0.0,0.0,4.3567,4.5966,4.8419,4.8861,5.0525,5.227,5.3078,5.3922,5.495,5.6492,5.6822,5.7116,5.785,5.7997,5.7997,5.7997,5.7997,5.7997,5.7997,5.7997,5.7997,5.7997,5.8694,5.9171,5.9171,6.13,6.3062,6.3943,6.5521,6.6806,6.765,6.7687,6.7687,6.7687,6.7687,6.7687,6.7687,6.7687,6.7687,6.7687,6.7687,6.7687,6.7687,6.7687,6.7687,6.7687,6.7687,6.7687,6.7797,6.9449,7.011,7.0257,7.1872,7.2496,7.2496,7.2496,7.2496,7.2496,0.0,0.0,0.0,0.0,0.0,0.0,0.0,0.0,0.0,0.0,0.0,0.0,0.0,2.2181,2.1988,2.1477,2.0894,2.0544,2.0544,2.0581,0.0,2.0618,2.0615,2.0769,2.1042,2.1627,0.0,0.0,0.0,2.8296,3.0771,3.2789,3.4536,3.6046,3.6532,3.7462,3.8646,3.7993,0.0,0.0,0.0,0.0,0.0,0.0,4.3138,4.3367,4.1686,0.0,0.0,3.8132,3.6719,3.5763,3.4044,3.3891,3.4623,3.6158,3.8079,4.0354,4.3273,4.4797,4.6197,4.8932,5.0157,5.1152,5.2826,5.3812,5.4876,5.6492,5.6822,5.7042,5.785,5.7997,5.7997,5.7997,5.7997,5.7997,5.7997,5.7997,5.7997,5.7997,5.8253,5.8621,5.9171,6.0933,6.2622,6.398,6.5595,6.6843,6.765,6.7687,6.7687,6.7687,6.7687,6.7687,6.7687,6.7687,6.7687,6.7687,6.7687,6.7687,6.7687,6.7687,6.7687,6.7687,6.7687,6.7687,6.7797,6.9449,7.011,7.0257,7.1872,7.2496,7.2496,7.2496,7.2496,7.2496,0.0,0.0,0.0,2.0806,0.0,2.0993,2.1338,2.1889,0.0,0.0,0.0,0.0,0.0,0.0,2.2877,2.2369,2.1549,2.1042,2.1042,2.0769,2.0612,2.0612,2.0612,2.0612,2.0612,0.0,0.0,0.0,0.0,0.0,0.0,3.2096,3.3819,3.5094,3.5868,3.7132,0.0,0.0,0.0,4.1151,0.0,0.0,4.3711,0.0,4.5163,4.5889,4.4208,4.3596,4.3252,4.0998,3.9699,3.8649,3.6593,3.5874,3.5856,3.6326,3.7324,3.901,4.2058,4.339,4.4766,4.81,4.9599,5.0636,5.2055,5.3445,5.4766,5.6124,5.6198,5.6418,5.774,5.7776,5.7703,5.796,5.7997,5.7997,5.7997,5.7997,5.8107,5.8364,5.8143,5.8547,5.9905,6.097,6.2401,6.4347,6.5742,6.6843,6.765,6.7687,6.7687,6.7687,6.7687,6.7687,6.7687,6.7687,6.7687,6.7687,6.7687,6.7687,6.7687,6.7687,6.7687,6.7687,6.7687,6.7687,6.7797,6.9449,7.011,7.0257,7.1872,7.2496,7.2496,7.2496,7.2496,7.2496,0.0,2.0347,2.0626,2.1491,2.1651,2.1949,2.2859,2.3065,2.3118,0.0,0.0,0.0,0.0,0.0,0.0,2.3189,2.2406,2.1938,2.1899,2.1081,2.0612,2.0612,0.0,0.0,0.0,0.0,0.0,0.0,0.0,0.0,0.0,0.0,3.3357,3.4133,3.4885,3.6119,3.7674,0.0,3.8744,4.054,4.3023,4.4513,4.543,4.7111,4.8793,5.0015,4.8372,4.7799,4.7532,4.5851,4.4704,4.3535,4.0729,3.8531,3.6643,3.5079,3.6878,3.9464,0.0,0.0,0.0,4.6293,4.8746,5.0729,5.0729,5.2637,5.462,5.5354,5.495,5.517,5.7519,5.7336,5.7079,5.7886,5.7997,5.7997,5.7997,5.7997,5.829,5.9098,5.8474,5.8914,6.13,6.1557,6.2622,6.5081,6.6035,6.6843,6.765,6.7687,6.7687,6.7687,6.7687,6.7687,6.7687,6.7687,6.7687,6.7687,6.7687,6.7687,6.7687,6.7687,6.7687,6.7687,6.7687,6.7687,6.7797,6.9412,7.0073,7.0257,7.1835,7.2496,7.2496,7.2496,7.2496,7.2496,2.0992,2.1141,2.1421,2.2337,2.2565,2.2698,2.298,2.4102,2.4978,0.0,0.0,0.0,0.0,0.0,0.0,2.495,2.3585,2.2494,2.187,2.1023,2.0523,2.0523,2.057,2.0612,2.0612,0.0,0.0,0.0,0.0,0.0,0.0,0.0,0.0,0.0,3.3072,3.4694,3.691,3.8132,0.0,4.1342,4.3252,4.4131,4.4551,4.6233,4.7532,4.8372,4.7264,4.7264,4.7455,4.5163,4.4462,4.418,4.1958,3.9949,3.8271,3.7416,3.8153,3.941,4.0526,0.0,0.0,0.0,0.0,0.0,4.9081,5.1793,5.4289,5.3959,5.462,5.5647,5.6895,5.6969,5.7079,5.7886,5.7997,5.7997,5.7997,5.7997,5.807,5.8327,5.8143,5.8474,5.9758,6.0933,6.2401,6.4273,6.5705,6.6843,6.765,6.7687,6.7687,6.7687,6.7687,6.7687,6.7687,6.7687,6.7687,6.7687,6.7687,6.7687,6.7687,6.7687,6.7687,6.7687,6.7687,6.7687,6.776,6.8825,6.9559,7.0183,7.1248,7.1982,7.2496,7.2496,7.2496,7.2496,2.1235,2.1445,2.1818,2.3034,2.3921,2.4571,2.4982,2.6545,2.7551,0.0,0.0,0.0,0.0,0.0,0.0,0.0,2.5477,2.4456,2.3932,2.2742,2.1928,2.1523,2.1542,2.1396,2.1084,0.0,0.0,0.0,0.0,0.0,0.0,0.0,0.0,0.0,0.0,3.4105,3.6642,3.8667,4.0119,4.1189,4.3214,4.4437,4.5201,4.6538,4.822,4.9748,4.8525,4.8533,4.8871,4.7029,4.5773,4.4862,4.4168,4.2284,4.0207,3.9357,3.9554,0.0,0.0,4.1766,4.2763,4.4894,0.0,0.0,4.9152,5.1463,5.3555,5.4106,5.4693,5.5464,5.6602,5.6822,5.7079,5.7886,5.7997,5.7997,5.7997,5.7997,5.8253,5.8914,5.8694,5.9098,6.0566,6.1263,6.2291,6.3943,6.4971,6.5999,6.7136,6.7504,6.7687,6.7687,6.7687,6.7687,6.7687,6.7687,6.7687,6.7687,6.7687,6.7687,6.7687,6.7687,6.7687,6.7687,6.7687,6.7687,6.7724,6.8201,6.9082,7.0183,7.0991,7.1798,7.2496,7.2496,7.2496,7.2496,0.0,2.1598,2.2258,2.4039,2.5614,2.7012,2.8009,2.9515,3.0327,0.0,0.0,0.0,0.0,0.0,0.0,0.0,2.7979,2.7379,2.7213,2.5556,2.4191,2.336,2.3114,2.2699,2.2011,2.1895,0.0,0.0,0.0,0.0,0.0,0.0,0.0,0.0,3.1599,3.4105,3.668,3.9126,4.0425,4.1074,4.3252,4.5048,4.65,4.7532,4.9901,5.2499,5.1061,5.0786,5.0998,5.0251,4.795,4.5616,4.6607,4.4989,4.2426,4.1,4.1163,0.0,0.0,0.0,0.0,4.4692,4.6022,0.0,4.9517,5.0875,5.227,5.4252,5.4363,5.462,5.6235,5.6528,5.6895,5.796,5.7997,5.7923,5.8107,5.8143,5.8657,6.0089,5.9648,6.0052,6.2218,6.1814,6.2144,6.3833,6.4127,6.4861,6.6292,6.7136,6.7577,6.7577,6.765,6.7687,6.7687,6.7687,6.7687,6.7687,6.7687,6.7687,6.7687,6.7687,6.7687,6.7687,6.7687,6.7687,6.7687,6.7687,6.8641,7.0183,7.0881,7.1725,7.2496,7.2496,7.2496,7.2496,2.2268,2.2957,2.4192,2.66,2.7369,2.8124,2.9666,3.0829,3.17,0.0,0.0,0.0,0.0,0.0,0.0,0.0,0.0,3.0451,2.9746,2.7459,2.6086,2.5876,2.4602,2.3825,2.3722,2.303,2.2305,0.0,0.0,0.0,0.0,0.0,0.0,0.0,3.156,3.4105,3.6642,3.8476,4.1227,4.436,4.4857,4.5239,4.5774,4.799,5.0092,5.1863,5.1901,5.1954,5.1954,5.1241,4.9291,4.7114,4.7091,4.6176,4.4816,4.2823,4.2804,4.3355,4.2913,4.2752,4.2953,4.3986,4.5208,0.0,4.5112,4.7535,4.9738,4.893,5.0729,5.2968,5.4583,5.4876,5.5757,5.8547,5.7886,5.7483,5.8804,5.8988,5.9098,5.9428,5.9318,5.9391,5.9869,6.0346,6.13,6.2952,6.431,6.5191,6.5521,6.6292,6.6733,6.6733,6.7357,6.7687,6.7687,6.7687,6.7687,6.7687,6.7687,6.7687,6.7687,6.7687,6.7687,6.7687,6.7687,6.7687,6.7687,6.7687,6.8641,7.011,7.0257,7.1211,7.2496,7.2496,7.2496,7.2496,2.3138,2.3635,2.4706,2.7292,2.8502,2.9805,3.1891,3.3301,3.4302,0.0,0.0,0.0,0.0,0.0,0.0,0.0,0.0,0.0,3.2904,3.0902,2.9325,2.8434,2.7208,2.616,2.5339,2.4546,2.3674,2.284,0.0,0.0,0.0,0.0,0.0,0.0,0.0,3.5687,3.9699,4.054,4.2832,4.5889,4.5889,4.692,4.8563,4.9862,5.1926,5.4078,5.391,5.3623,5.3144,5.2011,5.0267,4.8495,4.8089,4.7574,4.6765,4.5045,4.4716,4.4764,4.4077,4.3495,4.3213,4.3656,4.4223,0.0,0.0,4.6544,4.7829,4.8269,4.9627,5.1242,5.2894,5.3188,5.4142,5.6969,5.7079,5.7079,5.7886,5.8364,5.8767,5.9171,5.9208,5.9391,5.9758,6.0162,6.0896,6.2108,6.3356,6.4237,6.4677,6.5852,6.6512,6.6512,6.7283,6.7687,6.7687,6.7687,6.7687,6.7687,6.7687,6.7687,6.7687,6.7687,6.7687,6.7687,6.7687,6.7687,6.7687,6.7687,6.8641,7.011,7.011,7.1064,7.2496,7.2496,7.2496,7.2496,2.3881,2.4148,2.5141,2.751,2.9371,3.1374,3.3869,3.5529,3.6676,0.0,0.0,0.0,0.0,0.0,0.0,0.0,0.0,0.0,3.6849,3.5268,3.3604,3.1986,3.0661,2.9283,2.7735,2.6595,2.5378,2.4063,0.0,0.0,0.0,0.0,0.0,0.0,0.0,0.0,0.0,0.0,4.501,4.6997,4.7188,4.9129,5.1942,5.1751,5.3834,5.6673,5.5817,5.4931,5.4093,5.3134,5.1678,5.0218,4.9935,4.9454,4.8748,4.7385,4.6688,4.6177,4.5406,4.4562,4.3901,4.3754,4.3718,4.4195,0.0,0.0,0.0,4.8196,4.8746,4.9297,5.0986,5.1279,5.1977,5.4069,5.5133,5.5647,5.5647,5.6602,5.7703,5.8841,5.9391,5.9795,6.0162,6.075,6.119,6.1374,6.2548,6.3392,6.3613,6.5301,6.6256,6.6256,6.7173,6.7687,6.7687,6.7687,6.7687,6.7687,6.7687,6.7687,6.7687,6.7687,6.7687,6.7687,6.7687,6.7687,6.7687,6.7687,6.8641,7.011,7.011,7.1064,7.2496,7.2496,7.2496,7.2496,2.4339,2.5103,2.667,2.8427,3.0199,3.221,3.4694,3.5878,3.733,0.0,0.0,0.0,0.0,0.0,0.0,0.0,0.0,4.2737,4.2011,4.0405,3.9029,3.8018,3.5092,3.3004,3.2115,2.9794,2.7036,2.3934,2.47,0.0,0.0,0.0,0.0,0.0,3.6413,0.0,0.0,0.0,4.7837,4.8869,4.9595,5.1192,5.3089,5.2332,5.4307,5.7305,5.6174,5.5023,5.4224,5.5477,5.4428,5.2731,5.3353,5.2669,5.1242,4.963,4.8638,4.7865,4.7058,4.625,4.5443,4.4745,4.4562,4.4452,4.4011,0.0,4.4048,4.5039,0.0,4.6801,4.8416,0.0,0.0,5.0105,5.0949,5.1499,5.1499,5.3408,5.5647,5.7886,6.0015,6.0786,5.9501,6.1961,6.2805,6.0676,6.3319,6.409,6.1998,6.4127,6.5448,6.5448,6.6916,6.7687,6.7687,6.7687,6.7687,6.7687,6.7687,6.7687,6.7687,6.7687,6.7687,6.7687,6.7687,6.7687,6.7687,6.7687,6.8641,7.011,7.011,7.1064,7.2496,7.2496,7.2496,7.2496,2.6402,2.7052,2.8389,3.007,3.179,3.3777,3.626,3.8209,3.9775,0.0,0.0,0.0,0.0,0.0,0.0,0.0,4.3825,4.3864,4.352,4.1915,0.0,3.8323,3.691,3.5092,3.2843,3.1733,2.9742,2.6857,2.7228,2.6974,0.0,0.0,0.0,0.0,3.7827,0.0,4.3538,4.6344,4.9529,5.2742,5.2561,5.4786,5.7928,5.5341,5.6049,5.8237,5.7056,5.624,5.5647,5.5195,5.5003,5.492,5.3859,5.4092,5.4363,5.227,5.1096,5.0178,4.8893,4.7939,4.6985,4.57,4.5406,4.5186,4.4378,4.3828,4.3608,4.3938,0.0,0.0,0.0,0.0,0.0,0.0,4.9517,4.9884,4.9407,5.1867,5.4252,5.5721,5.7629,5.8731,5.851,6.1887,6.3062,6.0603,6.3466,6.442,6.2401,6.4237,6.5301,6.5301,6.6843,6.7687,6.7687,6.7687,6.7687,6.7687,6.7687,6.7687,6.7687,6.7687,6.7687,6.7687,6.7687,6.7687,6.7687,6.7687,6.8641,7.011,7.011,7.1064,7.2496,7.2496,7.2496,7.2496,2.9153,2.9192,2.965,3.0873,3.2898,3.5267,3.798,4.0157,4.1762,4.245,4.3787,4.4475,4.3864,4.5736,4.6577,4.5507,4.5812,4.6003,4.5736,4.459,4.287,4.0578,3.9584,3.7997,3.5567,3.4114,3.2292,3.0023,2.9551,2.9002,2.8415,2.9396,0.0,0.0,0.0,4.2183,4.5944,4.7971,5.0837,5.4015,5.3943,5.6551,6.0224,5.7716,5.7604,5.8598,5.7544,5.714,5.6859,5.5614,5.5796,5.6337,5.4976,5.5623,5.6455,5.4693,5.3298,5.205,5.0875,4.9811,4.8636,4.7241,4.6911,4.6691,4.5883,4.5076,4.4415,4.4195,4.3975,0.0,0.0,0.0,4.4819,4.6104,0.0,4.7829,4.6801,4.9481,5.2013,5.3261,5.5207,5.6859,5.7886,6.1704,6.3062,6.0603,6.3649,6.4714,6.2585,6.4273,6.5301,6.5301,6.6843,6.7687,6.7687,6.7687,6.7687,6.7687,6.7687,6.7687,6.7687,6.7687,6.7687,6.7687,6.7687,6.7687,6.7687,6.7687,6.8641,7.011,7.011,7.1064,7.2496,7.2496,7.2496,7.2496,3.2386,3.1255,3.0185,3.0223,3.2974,3.6298,3.9699,4.096,4.2374,4.4857,4.5889,4.6424,4.6385,4.9366,5.0741,4.906,5.0436,5.1009,5.0168,5.0054,4.9251,4.757,4.436,4.2603,4.2488,3.7636,3.4312,3.2592,3.0949,3.0147,3.0109,2.9306,3.2095,3.7865,4.1189,4.3214,4.4475,5.0206,5.1811,5.0641,5.2769,5.5122,5.7444,5.838,5.8406,5.7932,5.7401,5.7202,5.7311,5.7985,5.7424,5.6635,5.8166,5.7763,5.6785,5.6712,5.5023,5.3151,5.3115,5.194,5.0508,4.9664,4.9481,4.9224,4.8379,4.7572,4.6764,4.5993,4.5186,4.4452,4.3718,4.3534,4.3057,4.1589,4.3314,0.0,0.0,4.5259,4.8233,5.0618,5.3702,5.6235,5.785,6.1704,6.3062,6.0603,6.4163,6.5044,6.1814,6.398,6.5301,6.5301,6.6843,6.7687,6.7687,6.7687,6.7687,6.7687,6.7687,6.7687,6.7687,6.7687,6.7687,6.7687,6.7687,6.7687,6.7687,6.7687,6.8641,7.011,7.011,7.1064,7.2496,7.2496,7.2496,7.2496,3.2552,3.2629,3.2707,3.2707,3.4999,3.7827,4.0654,4.2259,4.3864,4.5851,4.7341,4.8411,4.8945,5.055,5.1391,5.0818,5.1276,5.1238,5.0359,5.0283,4.906,4.6271,4.5048,4.3405,4.1189,3.8897,3.6604,3.435,3.3777,3.2936,3.1866,3.2134,3.4235,3.7827,4.0497,4.3488,4.6708,4.9375,5.257,5.5844,5.7112,5.8665,5.9927,5.7663,5.7143,5.7437,5.6188,5.5716,5.574,5.5993,5.6588,5.7182,5.7218,5.7774,5.829,5.774,5.6638,5.5464,5.4913,5.3995,5.2858,5.1499,5.1573,5.1646,5.0251,4.9738,4.915,4.7792,4.6874,4.5736,4.3828,4.3938,4.3791,4.2176,4.302,4.3534,0.0,4.3681,4.5223,4.6617,5.0582,5.3849,5.5464,6.0236,6.2658,6.13,6.4494,6.5301,6.2548,6.3723,6.4237,6.3686,6.5778,6.6916,6.6916,6.743,6.7687,6.7687,6.7687,6.7687,6.7687,6.7687,6.7687,6.7687,6.7687,6.7687,6.7724,6.8274,6.9119,7.0146,7.0697,7.1541,7.2496,7.2496,7.2496,7.2496,3.3638,3.3904,3.422,3.441,3.6757,3.9279,4.1189,4.3176,4.5048,4.6729,4.8716,5.0283,5.1085,5.2231,5.2843,5.2537,5.2499,5.2384,5.2117,5.1811,5.0703,4.8525,4.757,4.608,4.3902,4.1571,3.9546,3.7903,3.6413,3.5114,3.4028,3.3903,3.5508,3.8499,3.9845,4.3474,4.8552,4.9097,5.2686,5.8084,5.853,5.9345,5.9894,5.7005,5.7021,5.8341,5.6454,5.5934,5.6102,5.5812,5.6503,5.7425,5.6635,5.7251,5.817,5.7373,5.6785,5.6271,5.5721,5.5207,5.4583,5.3518,5.3445,5.3445,5.2674,5.205,5.1279,4.9884,4.9003,4.7865,4.5957,4.559,4.5223,4.4195,4.3975,4.3644,0.0,4.3167,4.3681,4.4195,4.8086,5.1536,5.3775,5.8033,6.0933,6.1557,6.3833,6.4347,6.2475,6.3466,6.3686,6.2842,6.5228,6.6512,6.6512,6.7283,6.7687,6.7687,6.7687,6.7687,6.7687,6.7687,6.7687,6.7687,6.7687,6.7687,6.776,6.8568,6.9376,7.0183,7.0991,7.1798,7.2496,7.2496,7.2496,7.2496,3.5627,3.5252,3.4915,3.5335,3.8115,4.0559,4.1418,4.3787,4.608,4.7761,5.0168,5.204,5.2881,5.4409,5.5021,5.4218,5.4142,5.4486,5.5288,5.4639,5.418,5.4027,5.1735,5.0397,5.0283,4.5507,4.2947,4.285,3.8726,3.6646,3.6493,3.4603,3.5892,3.9769,3.9464,4.3288,4.9879,4.9476,5.2328,5.7116,5.7026,5.7217,5.7338,5.6477,5.8058,6.0484,5.8021,5.7623,5.8166,5.7369,5.7216,5.7206,5.6587,5.6499,5.653,5.5896,5.5721,5.5721,5.5721,5.5684,5.5647,5.5647,5.5097,5.4766,5.5464,5.4509,5.3225,5.2344,5.1536,5.0692,4.9664,4.8343,4.7278,4.7095,4.57,4.4378,4.3644,4.3497,4.3461,4.3497,4.6324,4.9481,5.2674,5.517,5.796,6.1227,6.2291,6.2475,6.1704,6.3172,6.3649,6.2768,6.5154,6.6476,6.6512,6.732,6.776,6.776,6.7724,6.7687,6.7687,6.7687,6.7687,6.7687,6.7687,6.7687,6.776,6.8605,6.9412,7.0183,7.1027,7.1835,7.2496,7.2496,7.2496,7.2496,3.7013,3.7704,3.8235,3.8546,3.9368,4.0553,4.2201,4.5698,4.8716,5.0397,5.227,5.4027,5.5479,5.4906,5.46,5.5021,5.5059,5.4906,5.4448,5.5403,5.5097,5.3225,5.2499,5.1582,5.0321,4.7188,4.4848,4.3377,4.106,3.8828,3.6782,3.5684,3.6738,3.9575,3.9788,4.3789,5.0372,5.0549,5.2754,5.6246,5.696,5.7668,5.8145,5.7876,5.9035,6.0412,5.7369,5.6428,5.65,5.574,5.5946,5.6479,5.6309,5.6769,5.735,5.7261,5.7235,5.7281,5.7373,5.6932,5.6492,5.6492,5.6785,5.6969,5.6565,5.6638,5.6381,5.495,5.4032,5.2674,4.9994,5.0178,4.9738,4.6691,4.4856,4.3938,4.4342,4.3351,4.2837,4.3424,4.581,4.7976,4.9444,5.2344,5.5721,5.9538,6.1667,6.2732,6.2511,6.2915,6.2768,6.1924,6.431,6.5888,6.6476,6.7907,6.8605,6.8568,6.7981,6.7687,6.7687,6.7687,6.7687,6.7687,6.7687,6.7687,6.7797,6.9192,6.9926,7.022,7.1651,7.2312,7.2496,7.2496,7.2496,7.2496,3.7971,3.8847,3.9956,4.1338,4.257,4.3429,4.3612,4.6771,4.9781,5.1802,5.327,5.4734,5.6245,5.5216,5.4798,5.5635,5.5712,5.5853,5.6175,5.6709,5.6611,5.5594,5.5212,5.4256,5.2575,5.0397,4.8128,4.5859,4.3383,4.1161,3.9151,3.7754,3.8238,4.03,4.0677,4.4354,5.04,5.3087,5.5096,5.6621,5.7935,5.8413,0.0,5.918,6.0013,6.0557,5.8746,5.7876,5.7514,5.708,5.7275,5.7543,5.6952,5.711,5.7425,5.6791,5.6959,5.7261,5.7391,5.7363,5.7336,5.7336,5.7409,5.7446,5.7336,5.7409,5.7226,5.6308,5.5757,5.4876,5.3041,5.3151,5.2454,4.9114,4.6911,4.5626,4.5736,4.4672,4.3901,4.4011,4.5553,4.6617,4.6728,5.0986,5.5244,5.8951,6.0786,6.1777,6.1777,6.2438,6.2438,6.163,6.3686,6.5485,6.699,6.7577,6.8201,6.8898,6.8091,6.7687,6.7687,6.7687,6.7687,6.7687,6.7687,6.7907,6.8311,6.9559,7.0293,7.077,7.2018,7.2496,7.2496,7.2496,7.2496,7.2496,3.915,3.9991,4.1445,4.4017,4.6628,4.7714,4.6043,4.8085,5.0597,5.2645,5.386,5.498,5.614,5.5527,5.5375,5.6209,5.6247,5.6952,5.8614,5.812,5.8101,5.8918,5.8383,5.7313,5.5747,5.4078,5.1993,4.9492,4.6114,4.3743,4.2366,4.028,4.0043,4.1414,4.201,4.5333,5.082,5.6055,5.795,5.752,5.9023,5.9103,5.8565,6.0194,6.081,6.081,6.0919,6.0448,5.976,5.9651,5.9615,5.9361,5.8087,5.7701,5.746,5.603,5.6317,5.6995,5.6822,5.7537,5.829,5.818,5.7703,5.7446,5.8143,5.7776,5.7262,5.7152,5.7116,5.7042,5.6859,5.6124,5.4987,5.3078,5.0618,4.8746,4.8159,4.7168,4.6287,4.559,4.6214,0.0,4.559,5.0618,5.517,5.8217,5.9648,6.0456,6.0566,6.1998,6.2475,6.1777,6.3282,6.5154,6.7357,6.688,6.7357,6.8752,6.8017,6.7687,6.7687,6.7687,6.7687,6.7687,6.7687,6.8164,6.8972,6.9779,7.066,7.1541,7.2239,7.2496,7.2496,7.2496,7.2496,7.2496,4.2537,4.4235,4.599,4.739,4.9441,5.0908,5.0861,5.2573,5.4035,5.4427,5.5231,5.614,5.7081,5.6398,5.6209,5.7011,5.7087,5.7294,5.7815,5.8348,5.8482,5.8154,5.8612,5.8459,5.7466,5.615,5.4685,5.3165,5.0213,4.7159,4.3941,4.226,4.1606,4.1971,4.3905,4.8234,5.4255,5.7243,5.8068,5.7497,5.8341,5.8528,5.8565,6.0194,6.081,6.0919,6.1571,6.1281,6.0484,5.9832,5.9615,5.9542,5.9289,5.918,5.9051,5.826,5.8601,5.9015,5.7909,5.8652,5.9688,5.9124,5.9391,5.9795,5.9942,5.9869,5.9575,5.8951,5.8804,5.84,5.7042,5.6124,5.5904,5.6785,5.4363,5.2527,5.3041,5.1279,4.9884,4.9738,5.0435,5.0618,4.9811,5.0765,5.2234,5.4106,5.807,6.0676,6.1337,6.2291,6.2768,6.2585,6.3576,6.4604,6.5705,6.688,6.7614,6.7907,6.776,6.7687,6.7687,6.7687,6.7687,6.7687,6.7687,6.8164,6.8972,6.9779,7.0954,7.2312,7.2459,7.2496,7.2496,7.2496,7.2496,7.2496,4.4931,4.6679,4.868,5.0895,5.2535,5.3932,5.4926,5.528,5.5505,5.5747,5.6428,5.7105,5.7695,5.705,5.6794,5.7411,5.7486,5.7636,5.8084,5.8497,5.8641,5.85,5.884,5.8651,5.7819,5.6823,5.5685,5.4429,5.2159,4.9674,4.7015,4.6057,4.5178,4.4524,4.6844,5.0722,5.5583,5.6345,5.718,5.7978,5.8709,5.9035,5.9216,6.081,6.1426,6.1498,6.186,6.1752,6.139,6.0991,6.0846,6.0774,6.0375,6.0231,6.0086,5.9305,5.9496,5.9794,5.9091,5.9603,6.0213,5.9894,6.0126,6.0419,6.0419,6.0419,6.0309,5.9905,5.9501,5.8988,5.8217,5.807,5.8217,5.8547,5.7336,5.6161,5.5721,5.3922,5.2527,5.2087,5.2747,5.2417,5.0362,5.1683,5.3518,5.5537,5.8253,6.0309,6.152,6.2805,6.3062,6.2218,6.3429,6.4677,6.5925,6.6292,6.7063,6.8311,6.7907,6.7687,6.7687,6.7687,6.7687,6.7687,6.7687,6.8385,6.9633,7.0844,7.1798,7.2496,7.2496,7.2496,7.2496,7.2496,7.2496,7.2496,4.7425,4.895,5.0911,5.3918,5.5322,5.6374,5.7334,5.6985,5.6594,5.6667,5.6999,5.737,5.7828,5.7342,5.7154,5.7702,5.7736,5.7996,5.8549,5.8586,5.8713,5.8951,5.8951,5.8652,5.7978,5.7304,5.6366,5.5232,5.3879,5.1724,4.8882,4.9434,4.9095,4.8042,5.017,5.3023,5.6247,5.5993,5.6971,5.8746,5.9542,5.9977,6.0267,6.1534,6.2005,6.2005,6.2005,6.2005,6.2041,6.2223,6.215,6.1897,6.1281,6.1064,6.0919,6.0086,6.0134,6.0326,6.0049,6.0541,6.1019,6.0872,6.1141,6.1447,6.1398,6.1398,6.1337,6.097,6.0126,5.9465,5.9465,5.9979,6.0382,6.0272,5.9832,5.9318,5.8914,5.7005,5.5427,5.4803,5.4987,5.4106,5.1389,5.3408,5.5904,5.8327,5.8804,5.9648,6.1263,6.3099,6.3503,6.2181,6.3576,6.4971,6.6219,6.5778,6.6439,6.8128,6.7834,6.7687,6.7687,6.7687,6.7687,6.7687,6.7687,6.8605,7.022,7.1651,7.2349,7.2496,7.2496,7.2496,7.2496,7.2496,7.2496,7.2496,5.0859,5.2154,5.3784,5.5535,5.7094,5.7674,5.6382,5.7619,5.8327,5.7174,5.6441,5.6251,5.7112,5.7149,5.7408,5.8178,5.8252,5.8338,5.8586,5.8586,5.8673,5.8798,5.8798,5.876,5.8686,5.8285,5.758,5.6602,5.6812,5.3426,4.6835,5.0496,5.2082,5.2009,5.3711,5.5414,5.7188,5.8565,5.9289,5.9579,6.0375,6.1136,6.1788,6.1969,6.2005,6.2005,6.2005,6.2005,6.2114,6.2838,6.2585,6.2005,6.1933,6.1897,6.1752,6.0919,6.1208,6.1516,6.0171,6.1491,6.3142,6.2412,6.3518,6.4772,6.4632,6.472,6.442,6.2915,6.1374,6.0309,6.0309,6.0346,6.1117,6.3282,6.1741,6.152,6.5081,6.2254,5.9795,5.9722,5.851,5.7262,5.6235,5.6418,5.7593,5.9979,5.8877,5.8804,6.0419,6.2768,6.4016,6.387,6.4751,6.5264,6.5411,6.6072,6.6145,6.5668,6.7026,6.7687,6.7687,6.7687,6.7687,6.7687,6.7687,6.8605,7.0183,7.1064,7.1835,7.2496,7.2496,7.2496,7.2496,7.2496,7.2496,7.2496,5.3385,5.4327,5.5558,5.7152,5.7587,5.7623,5.7442,5.7302,5.7195,5.7156,5.7279,5.7426,5.7802,5.7839,5.7862,5.7969,5.8006,5.796,5.7747,5.7747,5.784,5.7941,5.7941,5.7941,5.7941,5.7317,5.7032,5.7036,5.7715,5.5789,5.1611,5.4617,5.5522,5.4617,5.4798,5.6029,5.7913,5.8094,5.8999,6.0375,6.0665,6.1281,6.2005,6.2005,6.2295,6.273,6.273,6.3019,6.349,6.3816,6.3382,6.2802,6.3309,6.3454,6.3382,6.3056,6.3256,6.342,6.2822,6.3493,6.4256,6.3928,6.4383,6.5001,6.5018,6.5071,6.483,6.3796,6.2254,6.097,6.0493,6.119,6.2181,6.3172,6.2511,6.2585,6.4751,6.1961,6.0052,6.1006,6.0529,5.9465,5.7703,5.9281,6.0199,5.9722,5.9979,6.086,6.2511,6.4016,6.4604,6.4127,6.4897,6.5081,6.4567,6.5852,6.6329,6.6035,6.7136,6.7687,6.7687,6.7687,6.7687,6.7724,6.8201,6.9045,7.0146,7.0991,7.1798,7.2496,7.2496,7.2496,7.2496,7.2496,7.2496,7.2496,5.5414,5.5812,5.65,5.813,5.7732,5.7369,5.7949,5.7261,5.6899,5.7478,5.8227,5.852,5.8042,5.7969,5.7914,5.7631,5.785,5.7741,5.7224,5.7406,5.7601,5.7701,5.7701,5.781,5.8065,5.7484,5.7325,5.755,5.8347,5.708,5.3856,5.5305,5.6102,5.6319,5.5812,5.6754,5.8746,5.8383,5.9253,6.0846,6.1317,6.186,6.2404,6.2621,6.3056,6.3526,6.3526,6.3925,6.4432,6.4649,6.4359,6.3961,6.4287,6.4396,6.4396,6.4396,6.4452,6.4565,6.4565,6.4821,6.5113,6.5058,6.5296,6.5496,6.5551,6.5605,6.5494,6.483,6.3466,6.2071,6.1263,6.1851,6.2622,6.3099,6.2768,6.3099,6.4897,6.2144,6.0786,6.3099,6.2768,6.1741,6.0272,6.2218,6.2732,6.0786,6.1924,6.2989,6.3686,6.4714,6.5044,6.4457,6.5228,6.5264,6.4457,6.6035,6.6623,6.6145,6.7173,6.7687,6.7687,6.7687,6.7687,6.7724,6.8311,6.9009,6.9816,7.0624,7.1431,7.2165,7.2422,7.2496,7.2496,7.2496,7.2496,7.2496,5.7007,5.6536,5.65,5.813,5.7732,5.7188,5.7224,5.7876,5.8383,5.8383,5.9072,5.8963,5.7369,5.7188,5.7188,5.7188,5.7913,5.8058,5.7261,5.7949,5.8383,5.8383,5.8383,5.8746,5.9579,5.9579,5.918,5.8383,5.918,5.6754,5.1321,5.056,5.2697,5.7188,5.7188,5.8058,5.9651,6.0448,6.0774,6.0955,6.2512,6.3164,6.3273,6.407,6.4359,6.4396,6.4396,6.4396,6.4504,6.5301,6.5591,6.5446,6.4649,6.4396,6.4396,6.4396,6.4396,6.4396,6.4396,6.5089,6.5783,6.5649,6.6365,6.7117,6.704,6.7061,6.7011,6.6281,6.505,6.3796,6.2952,6.2144,6.2144,6.3796,6.2695,6.3025,6.7063,6.4127,6.3062,6.7136,6.5521,6.4383,6.5154,6.5264,6.4934,6.409,6.4787,6.4567,6.2915,6.442,6.5301,6.5301,6.6072,6.6109,6.5301,6.688,6.688,6.5338,6.6953,6.7687,6.7687,6.7687,6.7687,6.7687,6.7687,6.8164,6.8972,6.9779,7.0587,7.1394,7.2202,7.2496,7.2496,7.2496,7.2496,7.2496,5.8673,5.7732,5.7333,5.8927,5.8565,5.8202,5.8746,5.9072,5.9216,5.9216,5.9941,6.0231,5.9724,5.918,5.8854,5.8854,5.9072,5.9108,5.8854,5.9072,5.9216,5.9216,5.9216,5.9361,5.9615,5.9615,5.947,5.9216,6.0593,6.0339,5.8565,5.7224,5.7369,5.8854,5.8854,5.9434,6.0484,6.1281,6.1933,6.2512,6.3599,6.3997,6.4033,6.4287,6.4722,6.5229,6.5229,6.5555,6.6098,6.6315,6.6424,6.6388,6.6134,6.6025,6.6025,6.6025,6.6025,6.6025,6.6025,6.6265,6.6482,6.6424,6.6664,6.6961,6.7019,6.6697,6.6335,6.6135,6.533,6.4632,6.4339,6.4222,6.431,6.4824,6.3503,6.3099,6.4971,6.3135,6.2071,6.3392,6.3356,6.2695,6.13,6.2658,6.3759,6.4053,6.4861,6.5081,6.453,6.4494,6.4714,6.5301,6.4457,6.4127,6.4494,6.6072,6.6366,6.5338,6.6916,6.7687,6.7687,6.7687,6.7687,6.7687,6.7687,6.8164,6.8972,6.9779,7.0587,7.1394,7.2202,7.2496,7.2496,7.2496,7.2496,7.2496,5.9832,5.8999,5.8528,5.9832,5.9651,5.947,5.9977,6.0557,6.0955,6.0955,6.1643,6.215,6.215,6.1716,6.1172,6.0557,6.0774,6.081,6.052,6.0774,6.0955,6.0955,6.0955,6.0955,6.0955,6.0955,6.081,6.052,6.1208,6.139,6.11,6.0086,5.976,6.0086,6.0375,6.0955,6.1752,6.2585,6.32,6.3708,6.4504,6.483,6.4867,6.5192,6.5627,6.6062,6.6062,6.6388,6.6786,6.6786,6.6786,6.6786,6.6786,6.6786,6.6786,6.6786,6.6786,6.6786,6.6786,6.6786,6.6786,6.6786,6.6786,6.6845,6.6961,6.6733,6.6481,6.6481,6.5989,6.5547,6.5457,6.538,6.5301,6.5301,6.4163,6.3576,6.442,6.2842,6.2181,6.3686,6.3539,6.2805,6.163,6.2585,6.3392,6.3613,6.4383,6.4861,6.4861,6.4347,6.4163,6.4383,6.3356,6.3209,6.409,6.5705,6.6256,6.5778,6.7063,6.7687,6.7687,6.7687,6.7687,6.7687,6.7687,6.7981,6.8495,6.9302,7.011,7.0954,7.1762,7.2239,7.2496,7.2496,7.2496,7.2496,6.0665,6.0267,5.9977,6.0883,6.1027,6.0991,6.1064,6.2331,6.3273,6.3273,6.3961,6.4468,6.4468,6.4541,6.3961,6.2476,6.2911,6.2983,6.2223,6.2875,6.3273,6.3273,6.3273,6.3273,6.3273,6.3273,6.2911,6.2186,6.1426,6.0665,5.9941,5.9941,6.0339,6.11,6.186,6.2585,6.3345,6.4142,6.4468,6.4541,6.5374,6.5663,6.5772,6.6496,6.6786,6.6786,6.6786,6.6786,6.6786,6.6786,6.6786,6.6786,6.6786,6.6786,6.6786,6.6786,6.6786,6.6786,6.6786,6.6786,6.6786,6.6786,6.6786,6.6845,6.6961,6.7097,6.721,6.721,6.6848,6.6496,6.6299,6.5856,6.5448,6.5411,6.4714,6.442,6.5191,6.3246,6.3135,6.6916,6.5375,6.4273,6.4897,6.4273,6.3613,6.3025,6.3613,6.409,6.4237,6.4141,6.37,6.2892,6.2855,6.3259,6.4104,6.572,6.6565,6.6586,6.732,6.7687,6.7687,6.7687,6.7687,6.7687,6.7687,6.7687,6.776,6.8568,6.9339,7.011,7.0917,7.1688,7.2349,7.2349,7.2349,7.2349,6.2186,6.1498,6.1172,6.32,6.3019,6.2838,6.3454,6.3852,6.4106,6.4106,6.483,6.5301,6.5301,6.5844,6.6098,6.57,6.4722,6.4033,6.3852,6.3997,6.4106,6.4106,6.4106,6.4106,6.4106,6.4106,6.3997,6.3816,6.3635,6.3454,6.3273,6.3273,6.3382,6.3563,6.3744,6.3925,6.4178,6.4975,6.5301,6.5374,6.6207,6.6533,6.6533,6.675,6.6786,6.6786,6.6786,6.6786,6.6786,6.6786,6.6786,6.6786,6.6786,6.6786,6.6786,6.6786,6.6786,6.6786,6.6786,6.6786,6.6786,6.6786,6.6786,6.6845,6.6961,6.6983,6.7097,6.721,6.7232,6.7268,6.7177,6.7139,6.6916,6.6329,6.5558,6.5081,6.5264,6.4273,6.3613,6.3943,6.3466,6.2695,6.1667,6.1374,6.2218,6.4567,6.3723,6.3943,6.5815,6.4487,6.353,6.3345,6.3354,6.3715,6.4567,6.6197,6.7146,6.7393,6.7614,6.7687,6.7687,6.7687,6.7687,6.7687,6.7687,6.7687,6.776,6.8568,6.9009,6.9265,7.0073,7.0513,7.066,7.066,7.066,7.066,6.3418,6.3056,6.2875,6.4178,6.4323,6.4432,6.4867,6.5265,6.5482,6.5482,6.5881,6.6134,6.6134,6.6533,6.6786,6.6786,6.5989,6.5482,6.5482,6.5482,6.5482,6.5482,6.5482,6.5337,6.4939,6.4939,6.4758,6.4396,6.4396,6.4396,6.4396,6.4396,6.4396,6.4432,6.4758,6.4939,6.5011,6.5808,6.6134,6.6207,6.6641,6.6786,6.6786,6.6786,6.6786,6.6786,6.6786,6.6786,6.6786,6.6786,6.6786,6.6786,6.6786,6.6786,6.6786,6.6786,6.6786,6.6786,6.6786,6.6786,6.6786,6.6786,6.6786,6.6845,6.6961,6.704,6.7097,6.721,6.7414,6.7579,6.747,6.7579,6.754,6.71,6.6659,6.6402,6.6402,6.5705,6.5007,6.4567,6.3833,6.2879,6.163,6.1153,6.1704,6.3466,6.3135,6.3392,6.4751,6.4325,6.4048,6.4048,6.3904,6.455,6.615,6.7235,6.7741,6.7687,6.7687,6.7687,6.7687,6.7687,6.7687,6.7687,6.7687,6.7687,6.7724,6.8164,6.8568,6.8935,6.9376,6.9779,7.011,7.011,7.011,7.011,6.4432,6.4577,6.4613,6.4722,6.5337,6.5772,6.5772,6.6351,6.6786,6.6786,6.6786,6.6786,6.6786,6.6786,6.6786,6.6786,6.6786,6.6786,6.6786,6.6786,6.6786,6.6786,6.6786,6.6496,6.5808,6.5772,6.5446,6.4758,6.4758,6.4758,6.4758,6.4758,6.4758,6.4794,6.5482,6.5772,6.5844,6.6496,6.6786,6.6786,6.6786,6.6786,6.6786,6.6786,6.6786,6.6786,6.6786,6.6786,6.6786,6.6786,6.6786,6.6786,6.6786,6.6786,6.6786,6.6786,6.6786,6.6786,6.6786,6.6786,6.6786,6.6786,6.6786,6.6845,6.6961,6.7097,6.721,6.7266,6.7524,6.7687,6.7524,6.7633,6.7797,6.8164,6.7944,6.7834,6.8164,6.7247,6.6512,6.6512,6.5191,6.398,6.3246,6.2548,6.2144,6.2144,6.2805,6.3246,6.3356,6.4372,6.5068,6.5336,6.4916,6.5795,6.8039,6.8306,6.8185,6.7687,6.7687,6.7687,6.7687,6.7687,6.7687,6.7687,6.7687,6.7687,6.7687,6.7687,6.8091,6.8715,6.8715,6.9155,6.9743,6.9743,6.9743,6.9743,6.5265,6.541,6.5627,6.6315,6.6533,6.6605,6.6605,6.6714,6.6786,6.6786,6.6786,6.6786,6.6786,6.6786,6.6786,6.6786,6.6786,6.6786,6.6786,6.6786,6.6786,6.6786,6.6786,6.675,6.6605,6.6605,6.6569,6.6424,6.6424,6.6424,6.6424,6.6424,6.6424,6.6424,6.6569,6.6605,6.6641,6.675,6.6786,6.6786,6.6786,6.6786,6.6786,6.6786,6.6786,6.6786,6.6786,6.6786,6.6786,6.6786,6.6786,6.6786,6.6786,6.6786,6.6786,6.6786,6.6786,6.6786,6.6786,6.6786,6.6786,6.6786,6.6786,6.6845,6.6961,6.7097,6.7266,6.7414,6.7579,6.7687,6.7687,6.7687,6.8348,7.0403,6.9045,6.8421,7.0477,6.8311,6.6512,6.6512,6.5668,6.5081,6.4934,6.4824,6.4751,6.4751,6.4861,6.5228,6.5888,6.6193,6.6978,6.8366,6.7351,6.7504,6.8903,6.8558,6.8185,6.7687,6.7687,6.7687,6.7687,6.7687,6.7687,6.7687,6.7687,6.7687,6.7687,6.7687,6.776,6.7871,6.7871,6.7944,6.8054,6.8054,6.8054,6.8054,6.617,6.6243,6.6351,6.675,6.6786,6.6786,6.6786,6.6786,6.6786,6.6786,6.6786,6.6786,6.6786,6.6786,6.6786,6.6786,6.6786,6.6786,6.6786,6.6786,6.6786,6.6786,6.6786,6.6786,6.6786,6.6786,6.6786,6.6786,6.6786,6.6786,6.6786,6.6786,6.6786,6.6786,6.6786,6.6786,6.6786,6.6786,6.6786,6.6786,6.6786,6.6786,6.6786,6.6786,6.6786,6.6786,6.6786,6.6786,6.6786,6.6786,6.6786,6.6786,6.6786,6.6786,6.6786,6.6786,6.6786,6.6786,6.6786,6.6786,6.6786,6.6786,6.6786,6.6786,6.6845,6.7019,6.7097,6.7247,6.7414,6.7579,6.7579,6.7633,6.8201,6.9779,6.9082,6.8898,7.044,6.9009,6.7797,6.7797,6.6696,6.5962,6.5962,6.5558,6.5301,6.5301,6.5301,6.5485,6.5852,6.6118,6.6918,6.8415,6.8601,6.879,6.9091,6.8595,6.8185,6.7687,6.7687,6.7687,6.7687,6.7687,6.7687,6.7687,6.7687,6.7687,6.7687,6.7687,6.7687,6.7687,6.7687,6.7687,6.7687,6.7687,6.7687,6.7687,6.6786,6.6786,6.6786,6.6786,6.6786,6.6786,6.6786,6.6727,6.6727,6.6786,6.6727,6.6727,6.6786,6.6786,6.6786,6.6786,6.6786,6.6786,6.6786,6.6786,6.6786,6.6786,6.6786,6.6786,6.6786,6.6786,6.6786,6.6786,6.6786,6.6786,6.6786,6.6786,6.6786,6.6786,6.6786,6.6786,6.6786,6.6786,6.6786,6.6786,6.6786,6.6786,6.6786,6.6786,6.6786,6.6786,6.6786,6.6786,6.6786,6.6786,6.6786,6.6786,6.6786,6.6786,6.6786,6.6786,6.6786,6.6786,6.6786,6.6786,6.6786,6.6786,6.6786,6.6786,6.6786,6.6903,6.7019,6.7019,6.7247,6.747,6.747,6.7579,6.8091,6.9265,6.9155,6.9265,7.0257,6.9522,6.8825,6.8641,6.754,6.6769,6.6769,6.6219,6.5852,6.5852,6.5852,6.5852,6.5852,6.6248,6.7038,6.832,6.9283,6.9544,6.8915,6.8586,6.8185,6.7687,6.7687,6.7687,6.7687,6.7687,6.7687,6.7687,6.7687,6.7687,6.7687,6.7687,6.7687,6.7687,6.7687,6.7687,6.7687,6.7687,6.7687,6.7687,6.6786,6.6786,6.6786,6.6786,6.6786,6.6786,6.6786,6.6548,6.6488,6.6727,6.6548,6.6488,6.6727,6.6786,6.6786,6.6786,6.6786,6.6786,6.6786,6.6786,6.6786,6.6786,6.6786,6.6786,6.6786,6.6786,6.6786,6.6786,6.6786,6.6786,6.6786,6.6786,6.6786,6.6786,6.6786,6.6786,6.6786,6.6786,6.6786,6.6786,6.6786,6.6786,6.6786,6.6786,6.6786,6.6786,6.6786,6.6786,6.6786,6.6786,6.6786,6.6786,6.6786,6.6786,6.6786,6.6786,6.6786,6.6786,6.6786,6.6786,6.6786,6.6786,6.6786,6.6786,6.6786,6.6903,6.7019,6.7019,6.7247,6.747,6.747,6.7579,6.8458,7.077,6.9889,6.9449,7.0991,6.9889,6.8605,6.7871,6.7687,6.7614,6.7614,6.754,6.7504,6.7504,6.7504,6.7504,6.7504,6.7949,6.8676,6.9625,6.9778,6.9382,6.849,6.8442,6.8185,6.7687,6.7687,6.7687,6.7687,6.7687,6.7687,6.7687,6.7687,6.7687,6.7687,6.7687,6.7687,6.7687,6.7687,6.7687,6.7687,6.7687,6.7687,6.7687,6.6243,6.6305,6.6366,6.6182,6.6021,6.6021,6.6182,6.6057,6.6057,6.6182,6.6057,6.6119,6.6488,6.6488,6.6548,6.6786,6.6786,6.6786,6.6786,6.6786,6.6786,6.6786,6.6786,6.6786,6.6786,6.6786,6.6786,6.6786,6.6786,6.6786,6.6786,6.6786,6.6786,6.6786,6.6786,6.6786,6.6786,6.6786,6.6786,6.6786,6.6786,6.6786,6.6786,6.6786,6.6786,6.6786,6.6786,6.6786,6.6786,6.6786,6.6786,6.6786,6.6786,6.6786,6.6786,6.6786,6.6786,6.6786,6.6786,6.6786,6.6786,6.6786,6.6786,6.6786,6.6786,6.6845,6.6845,6.6845,6.7019,6.7247,6.7266,6.747,6.8055,6.9596,6.8898,6.8531,6.9669,6.8862,6.8017,6.7724,6.7687,6.7687,6.7687,6.7687,6.7687,6.7687,6.7687,6.7687,6.7687,6.8134,6.8442,6.849,6.878,6.8915,6.8825,6.8247,6.7863,6.7687,6.7687,6.7687,6.7687,6.7687,6.7687,6.7687,6.7687,6.7687,6.7687,6.7687,6.7687,6.7687,6.7687,6.7687,6.7687,6.7687,6.7687,6.7687,6.5867,6.5895,6.5958,6.5804,6.564,6.5575,6.5804,6.5704,6.564,6.5804,6.5704,6.5768,6.6083,6.6243,6.6427,6.6608,6.6727,6.6786,6.6786,6.6786,6.6786,6.6786,6.6786,6.6786,6.6786,6.6786,6.6786,6.6786,6.6786,6.6786,6.6786,6.6786,6.6786,6.6786,6.6786,6.6786,6.6786,6.6786,6.6786,6.6786,6.6786,6.6786,6.6786,6.6786,6.6786,6.6786,6.6786,6.6786,6.6786,6.6786,6.6786,6.6786,6.6786,6.6786,6.6786,6.6786,6.6786,6.6786,6.6786,6.6786,6.6786,6.6786,6.6786,6.6786,6.6786,6.6786,6.6786,6.6845,6.6961,6.7097,6.7266,6.747,6.7762,6.8421,6.8054,6.7871,6.8458,6.8054,6.7687,6.7687,6.7687,6.7687,6.7687,6.7687,6.7687,6.7687,6.7687,6.7687,6.7687,6.7982,6.8084,6.7915,6.8084,6.8394,6.887,6.8084,6.7687,6.7687,6.7687,6.7687,6.7687,6.7687,6.7687,6.7687,6.7687,6.7687,6.7687,6.7687,6.7687,6.7687,6.7687,6.7687,6.7687,6.7687,6.7687,6.7687,6.5804,6.5804,6.5804,6.5804,6.5804,6.5804,6.5804,6.5445,6.5344,6.574,6.5445,6.5344,6.574,6.6083,6.6269,6.6269,6.6608,6.6786,6.6786,6.6822,6.6786,6.6786,6.6786,6.6786,6.6786,6.6786,6.6786,6.6786,6.6786,6.6786,6.6786,6.6786,6.6786,6.6786,6.6786,6.6786,6.6786,6.6786,6.6786,6.6786,6.6786,6.6786,6.6786,6.6786,6.6786,6.6786,6.6786,6.6786,6.6786,6.6786,6.6786,6.6786,6.6786,6.6786,6.6786,6.6786,6.6786,6.6786,6.6786,6.6786,6.6786,6.6786,6.6786,6.6786,6.6786,6.6786,6.6845,6.6961,6.7097,6.7266,6.747,6.7579,6.7687,6.7687,6.7687,6.7687,6.7687,6.7687,6.7687,6.7687,6.7687,6.7687,6.7687,6.7687,6.7687,6.7687,6.7687,6.7687,6.7687,6.7687,6.7915,6.8394,6.7967,6.7915,6.8394,6.7967,6.7687,6.7687,6.7687,6.7687,6.7687,6.7687,6.7687,6.7687,6.7687,6.7687,6.7687,6.7687,6.7687,6.7687,6.7687,6.7687,6.7687,6.7687,6.7687,6.7687,6.5046,6.5247,6.5278,6.5046,6.5046,6.5046,6.5046,6.4602,6.4288,6.4358,6.4288,6.4183,6.4148,6.4566,6.4873,6.4905,6.4972,6.5338,6.5949,6.6512,6.6786,6.6786,6.6786,6.6786,6.6786,6.6786,6.6786,6.6786,6.6786,6.6786,6.6786,6.6786,6.6786,6.6786,6.6786,6.6786,6.6786,6.6786,6.6786,6.6786,6.6786,6.6786,6.6786,6.6786,6.6786,6.6786,6.6786,6.6786,6.6786,6.6786,6.6786,6.6786,6.6786,6.6786,6.6786,6.6786,6.6786,6.6786,6.6786,6.6786,6.6786,6.6786,6.6786,6.6786,6.6786,6.6786,6.6845,6.6961,6.704,6.7154,6.7414,6.7524,6.7579,6.7687,6.7687,6.7687,6.7687,6.7687,6.7687,6.7687,6.7687,6.7687,6.7687,6.7687,6.7687,6.7687,6.7687,6.7687,6.7687,6.7687,6.7794,6.7915,6.7794,6.7794,6.7915,6.7794,6.7687,6.7687,6.7687,6.7687,6.7687,6.7687,6.7687,6.7687,6.7687,6.7687,6.7687,6.7687,6.7687,6.7687,6.7687,6.7687,6.7687,6.7687,6.7687,6.7687,6.4039,6.4358,6.4567,6.4393,6.4568,6.4637,6.4393,6.4004,6.3716,6.3496,6.3422,6.3422,6.3205,6.3647,6.3935,6.39,6.4113,6.4566,6.5105,6.5887,6.6391,6.6391,6.6668,6.6786,6.6786,6.6786,6.6786,6.6786,6.6786,6.6786,6.6786,6.6786,6.6786,6.6786,6.6786,6.6786,6.6786,6.6786,6.6786,6.6786,6.6786,6.6786,6.6786,6.6786,6.6786,6.6786,6.6786,6.6786,6.6786,6.6786,6.6786,6.6786,6.6786,6.6786,6.6786,6.6786,6.6786,6.6786,6.6786,6.6786,6.6786,6.6786,6.6786,6.6786,6.6786,6.6786,6.6845,6.704,6.7097,6.7154,6.7524,6.7579,6.7579,6.7687,6.7687,6.7687,6.7687,6.7687,6.7687,6.7687,6.7687,6.7687,6.7687,6.7687,6.7687,6.7687,6.7687,6.7687,6.7687,6.7687,6.7687,6.7687,6.7687,6.7687,6.7687,6.7687,6.7687,6.7687,6.7687,6.7687,6.7687,6.7687,6.7687,6.7687,6.7687,6.7687,6.7687,6.7687,6.7687,6.7687,6.7687,6.7687,6.7687,6.7687,6.7687,6.7687,6.2897,6.3348,6.3716,6.3716,6.4182,6.4323,6.3788,6.3643,6.3422,6.2897,6.2821,6.2779,6.2779,6.309,6.3245,6.3245,6.3829,6.4218,6.4218,6.5039,6.5597,6.5697,6.6294,6.6727,6.6727,6.6727,6.6786,6.6786,6.6786,6.6786,6.6786,6.6786,6.6786,6.6786,6.6786,6.6786,6.6786,6.6786,6.6786,6.6786,6.6786,6.6786,6.6786,6.6786,6.6786,6.6786,6.6786,6.6786,6.6786,6.6786,6.6786,6.6786,6.6786,6.6786,6.6786,6.6786,6.6786,6.6786,6.6786,6.6786,6.6786,6.6786,6.6786,6.6786,6.6786,6.6786,6.6845,6.7154,6.721,6.7322,6.7633,6.7687,6.7687,6.7687,6.7687,6.7687,6.7687,6.7687,6.7687,6.7687,6.7687,6.7687,6.7687,6.7687,6.7687,6.7687,6.7687,6.7687,6.7687,6.7687,6.7687,6.7687,6.7687,6.7687,6.7687,6.7687,6.7687,6.7687,6.7687,6.7687,6.7687,6.7687,6.7687,6.7687,6.7687,6.7687,6.7687,6.7687,6.7687,6.7687,6.7687,6.7687,6.7687,6.7687,6.7687,6.7687,6.2897,6.2973,6.3049,6.3049,6.3199,6.3199,6.3124,6.2668,6.2358,6.2234,6.2234,6.1997,6.1547,6.1997,6.2201,6.1883,6.2787,6.3462,6.3462,6.4323,6.5074,6.5661,6.5824,6.5949,6.5949,6.6512,6.6786,6.6786,6.6786,6.6786,6.6786,6.6786,6.6786,6.6786,6.6786,6.6786,6.6786,6.6786,6.6786,6.6786,6.6786,6.6786,6.6786,6.6786,6.6786,6.6786,6.6786,6.6786,6.6786,6.6786,6.6786,6.6786,6.6786,6.6786,6.6786,6.6786,6.6786,6.6786,6.6786,6.6786,6.6786,6.6786,6.6786,6.6786,6.6786,6.6786,6.6845,6.7154,6.721,6.7322,6.7633,6.7687,6.7687,6.7687,6.7687,6.7687,6.7687,6.7687,6.7687,6.7687,6.7687,6.7687,6.7687,6.7687,6.7687,6.7687,6.7687,6.7687,6.7687,6.7687,6.7687,6.7687,6.7687,6.7687,6.7687,6.7687,6.7687,6.7687,6.7687,6.7687,6.7687,6.7687,6.7687,6.7687,6.7687,6.7687,6.7687,6.7687,6.7687,6.7687,6.7687,6.7687,6.7687,6.7687,6.7687,6.7687,6.1997,6.2313,6.2436,6.2436,6.2668,6.2821,6.2513,6.2234,6.1917,6.1628,6.1547,6.1465,6.1086,6.1417,6.1465,6.1252,6.1997,6.2436,6.2436,6.3462,6.4253,6.4669,6.5008,6.5207,6.5207,6.5568,6.5887,6.6233,6.6668,6.6786,6.6786,6.6786,6.6786,6.6786,6.6786,6.6786,6.6786,6.6786,6.6786,6.6786,6.6786,6.6786,6.6786,6.6786,6.6786,6.6786,6.6786,6.6786,6.6786,6.6786,6.6786,6.6786,6.6786,6.6786,6.6786,6.6786,6.6786,6.6786,6.6786,6.6786,6.6786,6.6786,6.6786,6.6786,6.6786,6.6845,6.6961,6.7154,6.7266,6.7414,6.7633,6.7687,6.7687,6.7687,6.7687,6.7687,6.7687,6.7687,6.7687,6.7687,6.7687,6.7687,6.7687,6.7687,6.7687,6.7687,6.7687,6.7687,6.7687,6.7687,6.7687,6.7687,6.7687,6.7687,6.7687,6.7687,6.7687,6.7687,6.7687,6.7687,6.7687,6.7687,6.7687,6.7687,6.7687,6.7687,6.7687,6.7687,6.7687,6.7687,6.7687,6.7687,6.7687,6.7687,6.7687,6.7687,6.1119,6.1465,6.1837,6.1837,6.2234,6.2469,6.1917,6.1837,6.1709,6.1202,6.1119,6.1119,6.1119,6.1119,6.1119,6.1119,6.1417,6.1628,6.1628,6.2702,6.3274,6.3308,6.397,6.4393,6.4393,6.4532,6.4941,6.5697,6.6294,6.6668,6.6786,6.6786,6.6786,6.6786,6.6786,6.6786,6.6786,6.6786,6.6786,6.6786,6.6786,6.6786,6.6786,6.6786,6.6786,6.6786,6.6786,6.6786,6.6786,6.6786,6.6786,6.6786,6.6786,6.6786,6.6786,6.6786,6.6786,6.6786,6.6786,6.6786,6.6786,6.6786,6.6786,6.6786,6.6786,6.6903,6.704,6.7154,6.7359,6.7524,6.7687,6.7687,6.7687,6.7687,6.7687,6.7687,6.7687,6.7687,6.7687,6.7687,6.7687,6.7687,6.7687,6.7687,6.7687,6.7687,6.7687,6.7687,6.7687,6.7687,6.7687,6.7687,6.7687,6.7687,6.7687,6.7687,6.7687,6.7687,6.7687,6.7687,6.7687,6.7687,6.7687,6.7687,6.7687,6.7687,6.7687,6.7687,6.7687,6.7687,6.7687,6.7687,6.7687,6.7687,6.7687,6.7687,6.1119,6.1202,6.1252,6.1252,6.1252,6.1334,6.1252,6.1252,6.1169,6.1119,6.1119,6.1119,6.1119,6.1119,6.1119,6.1119,6.1334,6.1465,6.1547,6.1917,6.2313,6.2537,6.3233,6.3643,6.3643,6.4253,6.4941,6.5697,6.5824,6.6172,6.6786,6.6786,6.6786,6.6786,6.6786,6.6786,6.6786,6.6786,6.6786,6.6786,6.6786,6.6786,6.6786,6.6786,6.6786,6.6786,6.6786,6.6786,6.6786,6.6786,6.6786,6.6786,6.6786,6.6786,6.6786,6.6786,6.6786,6.6786,6.6786,6.6786,6.6786,6.6786,6.6786,6.6786,6.6786,6.6903,6.704,6.7154,6.7359,6.7524,6.7687,6.7687,6.7687,6.7687,6.7687,6.7687,6.7687,6.7687,6.7687,6.7687,6.7687,6.7687,6.7687,6.7687,6.7687,6.7687,6.7687,6.7687,6.7687,6.7687,6.7687,6.7687,6.7687,6.7687,6.7687,6.7687,6.7687,6.7687,6.7687,6.7687,6.7687,6.7687,6.7687,6.7687,6.7687,6.7687,6.7687,6.7687,6.7687,6.7687,6.7687,6.7687,6.7687,6.7687,6.7687,6.7687,6.1119,6.1119,6.1119,6.1119,6.1119,6.1119,6.1119,6.1119,6.1119,6.1119,6.1119,6.1119,6.1119,6.1119,6.1119,6.1119,6.1252,6.1465,6.1628,6.1837,6.211,6.2381,6.2736,6.2889,6.2889,6.3233,6.3716,6.4463,6.5273,6.611,6.6786,6.6786,6.6786,6.6786,6.6786,6.6786,6.6786,6.6786,6.6786,6.6786,6.6786,6.6786,6.6786,6.6786,6.6786,6.6727,6.6294,6.6452,6.6727,6.6294,6.6452,6.6786,6.6786,6.6786,6.6786,6.6786,6.6786,6.6786,6.6786,6.6786,6.6786,6.6786,6.6786,6.6786,6.6903,6.7019,6.7154,6.721,6.7378,6.7633,6.7687,6.7687,6.7687,6.7687,6.7687,6.7687,6.7687,6.7687,6.7687,6.7687,6.7687,6.7687,6.7687,6.7687,6.7687,6.7687,6.7687,6.7687,6.7687,6.7687,6.7687,6.7687,6.7687,6.7687,6.7687,6.7687,6.7687,6.7687,6.7687,6.7687,6.7687,6.7687,6.7687,6.7687,6.7687,6.7687,6.7687,6.7687,6.7687,6.7687,6.7687,6.7687,6.7687,6.7687,6.7687,6.7687]},{"header":{"parameterUnit":"m.s-1","parameterCategory":1,"la1":30.6,"la2":28.766,"lo1":-90.7593,"lo2":-88.6598,"dx":0.0162,"dy":0.0183,"nx":116,"ny":114,"refTime":"2022-12-22T06:00:00:Z","depth":0,"parameterNumber":3,"parameterNumberName":"V-component_of_WINDS"},"data":[0.0,0.0,0.0,0.0,0.0,0.0,0.0,0.0,0.0,0.0,0.0,0.0,0.0,0.0,0.0,0.0,0.0,0.0,0.0,0.0,0.0,0.0,0.0,0.0,0.0,0.0,0.0,0.0,0.0,0.0,0.0,0.0,0.0,0.0,0.0,0.0,0.0,0.0,0.0,0.0,0.0,0.0,0.0,0.0,0.0,0.0,0.0,0.0,0.0,0.0,0.0,0.0,0.0,0.0,0.0,0.0,0.0,0.0,0.0,0.0,0.0,0.0,0.0,0.0,0.0,0.0,0.0,0.0,0.0,0.0,0.0,0.0,0.0,0.0,0.0,0.0,0.0,0.0,0.0,0.0,0.0,0.0,0.0,0.0,0.0,0.0,0.0,0.0,0.0,0.0,0.0,0.0,0.0,0.0,0.0,0.0,0.0,0.0,0.0,0.0,0.0,0.0,0.0,0.0,0.0,0.0,0.0,0.0,0.0,0.0,0.0,0.0,0.0,0.0,0.0,0.0,0.0,0.0,0.0,0.0,0.0,0.0,0.0,0.0,0.0,0.0,0.0,0.0,0.0,0.0,0.0,0.0,0.0,0.0,0.0,0.0,0.0,0.0,0.0,0.0,0.0,0.0,0.0,0.0,0.0,0.0,0.0,0.0,0.0,0.0,0.0,0.0,0.0,0.0,0.0,0.0,0.0,0.0,0.0,0.0,0.0,0.0,0.0,0.0,0.0,0.0,0.0,0.0,0.0,0.0,0.0,0.0,0.0,0.0,0.0,0.0,0.0,0.0,0.0,0.0,0.0,0.0,0.0,0.0,0.0,0.0,0.0,0.0,0.0,0.0,0.0,0.0,0.0,0.0,0.0,0.0,0.0,0.0,0.0,0.0,0.0,0.0,0.0,0.0,0.0,0.0,0.0,0.0,0.0,0.0,0.0,0.0,0.0,0.0,0.0,0.0,0.0,0.0,0.0,0.0,0.0,0.0,0.0,0.0,0.0,0.0,0.0,0.0,0.0,0.0,0.0,0.0,0.0,0.0,0.0,0.0,0.0,0.0,0.0,0.0,0.0,0.0,0.0,0.0,0.0,0.0,0.0,0.0,0.0,0.0,0.0,0.0,0.0,0.0,0.0,0.0,0.0,0.0,0.0,0.0,0.0,0.0,0.0,0.0,0.0,0.0,0.0,0.0,0.0,0.0,0.0,0.0,0.0,0.0,0.0,0.0,0.0,0.0,0.0,0.0,0.0,0.0,0.0,0.0,0.0,0.0,0.0,0.0,0.0,0.0,0.0,0.0,0.0,0.0,0.0,0.0,0.0,0.0,0.0,0.0,0.0,0.0,0.0,0.0,0.0,0.0,0.0,0.0,0.0,0.0,0.0,0.0,0.0,0.0,0.0,0.0,0.0,0.0,0.0,0.0,0.0,0.0,0.0,0.0,0.0,0.0,0.0,0.0,0.0,0.0,0.0,0.0,0.0,0.0,0.0,0.0,0.0,0.0,0.0,0.0,0.0,0.0,0.0,0.0,0.0,0.0,0.0,0.0,0.0,0.0,0.0,0.0,0.0,0.0,0.0,0.0,0.0,0.0,0.0,0.0,0.0,0.0,0.0,0.0,0.0,0.0,0.0,0.0,0.0,0.0,0.0,0.0,0.0,0.0,0.0,0.0,0.0,0.0,0.0,0.0,0.0,0.0,0.0,0.0,0.0,0.0,0.0,0.0,0.0,0.0,0.0,0.0,0.0,0.0,0.0,0.0,0.0,0.0,0.0,0.0,0.0,0.0,0.0,0.0,0.0,0.0,0.0,0.0,0.0,0.0,0.0,0.0,0.0,0.0,0.0,0.0,0.0,0.0,0.0,0.0,0.0,0.0,0.0,0.0,0.0,0.0,0.0,0.0,0.0,0.0,0.0,0.0,0.0,0.0,0.0,0.0,0.0,0.0,0.0,0.0,0.0,0.0,0.0,0.0,0.0,0.0,0.0,0.0,0.0,0.0,0.0,0.0,0.0,0.0,0.0,0.0,0.0,0.0,0.0,0.0,0.0,0.0,0.0,0.0,0.0,0.0,0.0,0.0,0.0,0.0,0.0,0.0,0.0,0.0,0.0,0.0,0.0,0.0,0.0,0.0,0.0,0.0,0.0,0.0,0.0,0.0,0.0,0.0,0.0,0.0,0.0,0.0,0.0,0.0,0.0,0.0,0.0,0.0,0.0,0.0,0.0,0.0,0.0,0.0,0.0,0.0,0.0,0.0,0.0,0.0,0.0,0.0,0.0,0.0,0.0,0.0,0.0,0.0,0.0,0.0,0.0,0.0,0.0,0.0,0.0,0.0,0.0,0.0,0.0,0.0,0.0,0.0,0.0,0.0,0.0,0.0,0.0,0.0,0.0,0.0,0.0,0.0,0.0,0.0,0.0,0.0,0.0,0.0,0.0,0.0,0.0,0.0,0.0,0.0,0.0,0.0,0.0,0.0,0.0,0.0,0.0,0.0,0.0,0.0,0.0,0.0,0.0,0.0,0.0,0.0,0.0,0.0,0.0,0.0,0.0,0.0,0.0,0.0,0.0,0.0,0.0,0.0,0.0,0.0,0.0,0.0,0.0,0.0,0.0,0.0,0.0,0.0,0.0,0.0,0.0,0.0,0.0,0.0,0.0,0.0,0.0,0.0,0.0,0.0,0.0,0.0,0.0,0.0,0.0,0.0,0.0,0.0,0.0,0.0,0.0,0.0,0.0,0.0,0.0,0.0,0.0,0.0,0.0,0.0,0.0,0.0,0.0,0.0,0.0,0.0,0.0,0.0,0.0,0.0,0.0,0.0,0.0,0.0,0.0,0.0,0.0,0.0,0.0,0.0,0.0,0.0,0.0,0.0,0.0,0.0,0.0,0.0,0.0,0.0,0.0,0.0,0.0,0.0,0.0,0.0,0.0,0.0,0.0,0.0,0.0,0.0,0.0,0.0,0.0,0.0,0.0,0.0,0.0,0.0,0.0,0.0,0.0,0.0,0.0,0.0,0.0,0.0,0.0,0.0,0.0,0.0,0.0,0.0,0.0,0.0,0.0,0.0,0.0,0.0,0.0,0.0,0.0,0.0,0.0,0.0,0.0,0.0,0.0,0.0,0.0,0.0,0.0,0.0,0.0,0.0,0.0,0.0,0.0,0.0,0.0,0.0,0.0,0.0,0.0,0.0,0.0,0.0,0.0,0.0,0.0,0.0,0.0,0.0,0.0,0.0,0.0,0.0,0.0,0.0,0.0,0.0,0.0,0.0,0.0,0.0,0.0,0.0,0.0,0.0,0.0,0.0,0.0,0.0,0.0,0.0,0.0,0.0,0.0,0.0,0.0,0.0,0.0,0.0,0.0,0.0,0.0,0.0,0.0,0.0,0.0,0.0,0.0,0.0,0.0,0.0,0.0,0.0,0.0,0.0,0.0,0.0,0.0,0.0,0.0,0.0,0.0,0.0,0.0,0.0,0.0,0.0,0.0,0.0,0.0,0.0,0.0,0.0,0.0,0.0,0.0,0.0,0.0,0.0,0.0,0.0,0.0,0.0,0.0,0.0,0.0,0.0,0.0,0.0,0.0,0.0,0.0,0.0,0.0,0.0,0.0,0.0,0.0,0.0,0.0,0.0,0.0,0.0,0.0,0.0,0.0,0.0,0.0,0.0,0.0,0.0,0.0,0.0,0.0,0.0,0.0,0.0,0.0,0.0,0.0,0.0,0.0,0.0,0.0,0.0,0.0,0.0,0.0,0.0,0.0,0.0,0.0,0.0,0.0,0.0,0.0,0.0,0.0,0.0,0.0,0.0,0.0,0.0,0.0,0.0,0.0,0.0,0.0,0.0,0.0,0.0,0.0,0.0,0.0,0.0,0.0,0.0,0.0,0.0,0.0,0.0,0.0,0.0,0.0,0.0,0.0,0.0,0.0,0.0,0.0,0.0,0.0,0.0,0.0,0.0,0.0,0.0,0.0,0.0,0.0,0.0,0.0,0.0,0.0,0.0,0.0,0.0,0.0,0.0,0.0,0.0,0.0,0.0,0.0,0.0,0.0,0.0,0.0,0.0,0.0,0.0,0.0,0.0,0.0,0.0,0.0,0.0,0.0,0.0,0.0,0.0,0.0,0.0,0.0,0.0,0.0,0.0,0.0,0.0,0.0,0.0,0.0,0.0,0.0,0.0,0.0,0.0,0.0,0.0,0.0,0.0,0.0,0.0,0.0,0.0,0.0,0.0,0.0,0.0,0.0,0.0,0.0,0.0,0.0,0.0,0.0,0.0,0.0,0.0,0.0,0.0,0.0,0.0,0.0,0.0,0.0,0.0,0.0,0.0,0.0,0.0,0.0,0.0,0.0,0.0,0.0,0.0,0.0,0.0,0.0,0.0,0.0,0.0,0.0,0.0,0.0,0.0,0.0,0.0,0.0,0.0,0.0,0.0,0.0,0.0,0.0,0.0,0.0,0.0,0.0,0.0,0.0,0.0,0.0,0.0,0.0,0.0,0.0,0.0,0.0,0.0,0.0,0.0,0.0,0.0,0.0,0.0,0.0,0.0,0.0,0.0,0.0,0.0,0.0,0.0,0.0,0.0,0.0,0.0,0.0,0.0,0.0,0.0,0.0,0.0,0.0,0.0,0.0,0.0,0.0,0.0,0.0,0.0,0.0,0.0,0.0,0.0,0.0,0.0,0.0,0.0,0.0,0.0,0.0,0.0,0.0,0.0,0.0,0.0,0.0,0.0,0.0,0.0,0.0,0.0,0.0,0.0,0.0,0.0,0.0,0.0,0.0,0.0,0.0,0.0,0.0,0.0,0.0,0.0,0.0,0.0,0.0,0.0,0.0,0.0,0.0,0.0,0.0,0.0,0.0,0.0,0.0,0.0,0.0,0.0,0.0,0.0,0.0,0.0,0.0,0.0,0.0,0.0,0.0,0.0,0.0,0.0,0.0,0.0,0.0,0.0,0.0,0.0,0.0,0.0,0.0,0.0,0.0,0.0,0.0,0.0,0.0,0.0,0.0,0.0,0.0,0.0,0.0,0.0,0.0,0.0,0.0,0.0,0.0,0.0,0.0,0.0,0.0,0.0,0.0,0.0,0.0,0.0,0.0,0.0,0.0,0.0,0.0,0.0,0.0,0.0,0.0,0.0,0.0,0.0,0.0,0.0,0.0,0.0,0.0,0.0,0.0,0.0,0.0,0.0,0.0,0.0,0.0,0.0,0.0,0.0,0.0,0.0,0.0,0.0,0.0,0.0,0.0,0.0,0.0,0.0,0.0,0.0,0.0,0.0,0.0,0.0,0.0,0.0,0.0,0.0,0.0,0.0,0.0,0.0,0.0,0.0,0.0,0.0,0.0,0.0,0.0,0.0,0.0,0.0,0.0,0.0,0.0,0.0,0.0,0.0,0.0,0.0,0.0,0.0,0.0,0.0,0.0,0.0,0.0,0.0,0.0,0.0,0.0,0.0,0.0,0.0,0.0,0.0,0.0,0.0,0.0,0.0,0.0,0.0,0.0,0.0,0.0,0.0,0.0,0.0,0.0,0.0,0.0,0.0,0.0,0.0,0.0,0.0,0.0,0.0,0.0,0.0,0.0,0.0,0.0,0.0,0.0,0.0,0.0,0.0,0.0,0.0,0.0,0.0,0.0,0.0,0.0,0.0,0.0,0.0,0.0,0.0,0.0,0.0,0.0,0.0,0.0,0.0,0.0,0.0,0.0,0.0,0.0,0.0,0.0,0.0,0.0,0.0,0.0,0.0,0.0,0.0,0.0,0.0,0.0,0.0,0.0,0.0,0.0,0.0,0.0,0.0,0.0,0.0,0.0,0.0,0.0,0.0,0.0,0.0,0.0,0.0,0.0,0.0,0.0,0.0,0.0,0.0,0.0,0.0,0.0,0.0,0.0,0.0,0.0,0.0,0.0,0.0,0.0,0.0,0.0,0.0,0.0,0.0,0.0,0.0,0.0,0.0,0.0,0.0,0.0,0.0,0.0,0.0,0.0,0.0,0.0,0.0,0.0,0.0,0.0,0.0,0.0,0.0,0.0,0.0,0.0,0.0,0.0,0.0,0.0,0.0,0.0,0.0,0.0,0.0,0.0,0.0,0.0,0.0,0.7317,0.679,0.0,0.0,0.0,0.0,0.0,0.0,0.0,0.0,0.0,0.0,0.0,0.0,0.0,0.0,0.0,0.0,0.0,0.0,0.0,0.0,0.0,0.0,0.0,0.3237,0.3516,0.3686,0.3686,0.0,0.0,0.0,0.0,0.0,0.0,0.0,0.0,0.0,0.4804,0.6041,0.6989,0.8222,0.9753,0.9358,0.9024,0.8665,0.0,0.0,0.0,0.0,0.0,0.0,0.0,0.0,0.0,0.0,0.0,0.0,0.0,0.0,0.0,0.0,0.0,0.0,0.0,0.0,0.0,0.0,0.0,0.0,0.0,0.0,0.0,0.0,0.0,0.0,0.0,0.0,0.0,0.0,0.0,0.0,0.0,0.0,0.0,0.0,0.0,0.0,0.0,0.0,0.0,0.0,0.0,0.0,0.0,0.0,0.0,0.0,0.0,0.0,0.0,0.0,0.0,0.0,0.0,0.0,0.0,0.0,0.0,0.0,0.0,0.0,0.0,0.0,0.0,0.0,0.817,0.7683,0.0,0.0,0.0,0.0,0.0,0.0,0.0,0.0,0.0,0.0,0.0,0.0,0.0,0.0,0.0,0.0,0.0,0.0,0.0,0.0,0.0,0.2377,0.2925,0.3365,0.3714,0.3967,0.4092,0.4124,0.4091,0.3836,0.0,0.0,0.0,0.0,0.0,0.4661,0.5701,0.7612,0.8827,1.0359,1.2172,1.2172,1.1901,1.1267,1.0394,0.0,0.0,0.0,0.0,0.0,0.0,0.0,0.0,0.0,0.0,0.0,0.0,0.0,0.0,0.0,0.0,0.0,0.0,0.0,0.0,0.0,0.0,0.0,0.0,0.0,0.0,0.0,0.0,0.0,0.0,0.0,0.0,0.0,0.0,0.0,0.0,0.0,0.0,0.0,0.0,0.0,0.0,0.0,0.0,0.0,0.0,0.0,0.0,0.0,0.0,0.0,0.0,0.0,0.0,0.0,0.0,0.0,0.0,0.0,0.0,0.0,0.0,0.0,0.9275,0.9317,0.9468,0.9345,0.9356,0.9462,0.8909,0.856,0.8349,0.7902,0.0,0.0,0.0,0.0,0.0,0.0,0.0,0.0,0.0,0.0,0.0,0.0,0.0,0.0,0.0,0.0,0.0,0.0,0.0,0.2567,0.2891,0.3813,0.4384,0.4253,0.4778,0.5039,0.4871,0.4608,0.0,0.0,0.0,0.4598,0.4904,0.5676,0.6631,0.7782,1.0524,1.253,1.3802,1.3802,1.375,1.3596,1.2175,0.0,0.0,0.0,0.0,0.0,0.0,0.0,0.0,0.0,0.0,0.0,0.0,0.0,0.0,0.0,0.0,0.0,0.0,0.0,0.0,0.0,0.0,0.0,0.0,0.0,0.0,0.0,0.0,0.0,0.0,0.0,0.0,0.0,0.0,0.0,0.0,0.0,0.0,0.0,0.0,0.0,0.0,0.0,1.0498,1.0601,0.0,0.0,0.0,0.0,0.0,0.0,0.0,0.0,0.0,0.0,0.0,0.0,0.0,1.2248,1.1038,1.2434,1.2529,1.1494,1.1075,1.0872,1.0909,1.0272,1.0038,1.0063,1.0119,0.0,0.8747,0.8674,0.0,0.0,0.0,0.0,0.0,0.0,0.0,0.0,0.0,0.0,0.0,0.0,0.0,0.0,0.0,0.0,0.0,0.0,0.0,0.0,0.0,0.4184,0.4754,0.5409,0.5723,0.5814,0.5567,0.5459,0.0,0.0,0.5405,0.5577,0.5954,0.68,0.8333,1.0549,1.2647,1.4123,1.5052,1.5052,1.5052,1.5035,1.4367,1.3562,1.2672,1.2182,0.0,0.0,0.0,0.0,0.0,0.0,0.0,0.0,0.0,0.0,0.0,0.0,0.0,0.0,0.0,0.0,0.0,0.0,0.0,0.0,0.0,0.0,0.0,0.0,0.0,0.0,0.0,0.0,0.0,0.0,0.0,0.0,0.0,0.0,0.0,0.0,0.0,0.0,0.0,1.0741,1.0491,1.0924,1.0647,1.0676,0.0,0.0,0.0,0.0,0.0,0.0,0.0,0.0,0.0,1.2878,1.2866,1.2734,1.2494,1.3188,1.338,1.3149,1.2978,1.2986,1.3008,1.2795,1.2568,1.2578,1.2666,1.2323,1.1658,0.9966,0.9072,0.8763,0.0,0.0,0.0,0.0,0.8658,0.8625,0.0,0.0,0.0,0.0,0.0,0.0,0.0,0.0,0.0,0.0,0.0,0.0,0.4207,0.4669,0.5331,0.6307,0.6582,0.6589,0.6347,0.6336,0.6417,0.6471,0.6471,0.6676,0.7085,0.828,1.0365,1.3265,1.4444,1.536,1.6096,1.6096,1.6096,1.6096,1.6096,1.5326,1.4066,1.3784,1.3669,1.3553,0.0,0.0,0.0,0.0,0.0,0.0,0.0,0.0,0.0,0.0,0.0,0.0,0.0,0.0,0.0,0.0,0.0,0.0,0.0,0.0,0.0,0.0,0.0,0.0,0.0,0.0,0.0,0.0,0.0,0.0,0.0,0.0,0.0,0.0,0.0,0.0,0.0,1.1045,1.0659,1.1439,1.1291,1.1411,0.0,0.0,0.0,0.0,0.0,0.0,1.5044,1.4179,1.3975,1.4646,1.3956,1.38,1.4271,1.4441,1.4663,1.5036,1.479,1.4809,1.499,1.4722,1.4429,1.4102,1.4102,1.3898,1.326,1.142,1.0439,0.9947,0.9665,0.9435,0.9226,0.9177,0.9161,0.921,0.0,0.0,0.0,0.0,0.0,0.0,0.0,0.0,0.0,0.0,0.0,0.3573,0.4151,0.5456,0.6333,0.6406,0.6991,0.7341,0.7319,0.7319,0.7426,0.7698,0.7709,0.7828,0.8137,1.0288,1.2482,1.473,1.5409,1.6131,1.6867,1.6867,1.6867,1.6867,1.6867,1.6907,1.6937,1.5854,1.5927,1.6735,1.585,0.0,0.0,0.0,0.0,0.0,0.0,0.0,0.0,0.0,0.0,0.0,0.0,0.0,0.0,0.0,0.0,0.0,0.0,0.0,0.0,0.0,0.0,0.0,0.0,0.0,0.0,0.0,0.0,0.0,0.0,0.0,0.0,0.0,0.0,0.0,0.0,0.0,0.0,1.2962,1.2052,0.0,0.0,0.0,0.0,1.4522,1.4763,1.5057,1.5351,1.5511,1.5923,1.652,1.6799,1.6959,1.6998,1.7277,1.7423,1.745,1.6642,1.6223,1.6126,1.5367,1.4354,1.3127,1.3127,1.2434,1.1469,1.2951,1.2861,1.1654,1.1544,1.0735,0.964,0.9973,1.0095,1.0119,0.0,0.0,0.0,0.1317,0.1375,0.1463,0.1617,0.176,0.1976,0.2255,0.3169,0.4121,0.4982,0.5971,0.6837,0.7516,0.7878,0.8065,0.7914,0.8474,0.8786,0.8711,0.9001,0.9673,1.0805,1.2372,1.3909,1.5443,1.6144,1.6901,1.7638,1.7638,1.7894,1.8357,1.786,1.8099,1.8787,1.722,1.6856,1.7168,1.6671,1.609,0.0,0.0,0.0,0.0,0.0,0.0,0.0,0.0,0.0,0.0,0.0,0.0,0.0,0.0,0.0,0.0,0.0,0.0,0.0,0.0,0.0,0.0,0.0,0.0,0.0,0.0,0.0,0.0,0.0,0.0,0.0,0.0,0.0,0.0,0.0,0.0,0.0,1.3479,1.3566,0.0,1.4967,1.5257,1.5524,1.5899,1.6032,1.6219,1.6513,1.662,1.6954,1.7555,1.7675,1.7822,1.8009,1.8303,1.845,1.845,1.8281,1.8311,1.8311,1.7944,1.7523,1.7177,1.7177,1.6946,1.6553,1.6919,1.4789,1.1324,1.1087,1.0682,1.0331,1.0452,1.0501,1.0509,0.0,0.0,0.0,0.1355,0.1466,0.1564,0.1682,0.1907,0.2163,0.236,0.3329,0.4371,0.5329,0.612,0.7026,0.8059,0.8227,0.8376,0.8506,0.9098,0.9486,0.9572,0.9873,1.0778,1.2421,1.3346,1.4537,1.6133,1.6911,1.762,1.822,1.8357,1.8682,1.9162,1.8648,1.8982,1.9864,1.8635,1.8152,1.834,1.8035,1.7734,1.745,0.0,0.0,0.0,0.0,0.0,0.0,0.0,0.0,0.0,0.0,0.0,0.0,0.0,0.0,0.0,0.0,0.0,0.0,0.0,0.0,0.0,0.0,0.0,0.0,0.0,0.0,0.0,0.0,0.0,0.0,0.0,0.0,0.0,0.0,1.3451,1.3952,1.4024,1.451,1.5088,1.5658,1.6046,1.6433,1.682,1.7048,1.7248,1.7435,1.7542,1.7822,1.833,1.8343,1.849,1.8784,1.8971,1.9078,1.9078,1.9279,1.9372,1.9372,1.9372,1.9127,1.8765,1.8765,1.8532,1.8052,1.7865,1.5725,1.2575,1.2637,1.2192,1.1535,1.1535,1.1243,1.0972,0.0,0.0,0.1351,0.147,0.1552,0.167,0.1854,0.208,0.2297,0.2572,0.338,0.4261,0.5087,0.5906,0.6802,0.7857,0.7987,0.8312,0.9034,0.9157,0.9572,1.0304,0.0,0.0,1.2822,1.3251,1.456,1.6839,1.762,1.8254,1.8631,1.9007,1.9196,1.9213,1.9196,1.9606,2.0214,1.9981,2.0078,2.0431,1.9975,1.9837,1.9734,0.0,0.0,0.0,0.0,0.0,0.0,0.0,0.0,0.0,0.0,0.0,0.0,0.0,0.0,0.0,0.0,0.0,0.0,0.0,0.0,0.0,0.0,0.0,0.0,0.0,0.0,0.0,0.0,0.0,0.0,0.0,0.0,0.0,1.2918,1.2832,1.3399,1.486,1.4765,1.5017,1.6202,1.6847,1.7181,1.7194,1.7742,1.8076,1.8076,1.8357,1.8651,1.8931,1.8945,1.9078,1.9359,1.9372,1.9372,1.9372,1.9372,1.9372,1.9386,1.9386,1.879,1.7596,1.7596,1.6891,1.5709,1.5709,1.5709,1.5784,1.6445,1.5219,1.3174,1.3174,1.2508,1.1533,0.1503,0.1503,0.1543,0.1568,0.1592,0.167,0.1854,0.208,0.2297,0.2572,0.3582,0.4534,0.5108,0.5749,0.6404,0.7138,0.7256,0.7309,0.7345,0.8939,1.0311,1.1284,0.0,0.0,1.3267,1.4223,1.5541,1.7235,1.8009,1.8768,1.9418,1.9538,1.9727,1.9966,1.971,2.0165,2.1315,2.0976,2.1075,2.1362,2.0555,2.0058,1.9796,0.0,0.0,0.0,0.0,0.0,0.0,0.0,0.0,0.0,0.0,0.0,0.0,0.0,0.0,0.0,0.0,0.0,0.0,0.0,0.0,0.0,0.0,0.0,0.0,0.0,0.0,0.0,0.0,0.0,0.0,0.0,1.4179,1.472,1.4395,1.4891,1.552,1.6179,1.6355,1.6777,1.7502,1.7702,1.7889,1.8103,1.8464,1.8677,1.8677,1.8958,1.9158,1.9239,1.9239,1.9292,1.9372,1.9372,1.9372,1.9372,1.9372,1.9479,1.9679,1.9679,1.9549,1.9494,1.9494,1.9253,1.8892,1.8892,1.8892,1.8709,1.675,1.5492,1.4907,1.4907,1.4124,1.3021,0.1609,0.1609,0.1575,0.1479,0.1573,0.1679,0.1742,0.2023,0.2355,0.263,0.337,0.4084,0.4707,0.5264,0.5809,0.6254,0.6607,0.6714,0.66,0.8505,1.0158,0.0,0.0,1.1946,1.3457,1.4515,1.5898,1.7595,1.8549,1.9299,1.9655,1.9898,2.0086,2.0275,2.0069,2.0572,2.1571,2.1438,2.1734,2.2208,2.1727,2.1073,2.0327,2.0327,1.961,1.8588,1.8606,1.8127,1.7529,1.7144,0.0,0.0,0.0,0.0,0.0,0.0,0.0,0.0,0.0,0.0,0.0,0.0,0.0,0.0,0.0,0.0,0.0,0.0,0.0,0.0,0.0,0.0,0.0,0.0,1.459,1.5123,1.5845,1.6206,1.6706,1.7238,1.7445,1.7716,1.8292,1.844,1.8712,1.8874,1.9158,1.9334,1.9334,1.9394,1.9372,1.9372,1.9475,1.9542,1.9546,1.9663,1.973,1.9733,1.9733,1.9813,1.9987,1.9987,2.0067,2.0227,2.0227,2.0227,2.0227,2.0227,2.0227,2.0079,0.0,0.0,0.0,0.0,1.4295,1.2979,0.1609,0.1609,0.1542,0.1345,0.1511,0.1629,0.1595,0.1976,0.2327,0.2587,0.2919,0.3348,0.4072,0.4538,0.4966,0.5362,0.586,0.6324,0.6678,0.8265,0.0,1.0642,1.0885,1.1775,1.3417,1.4419,1.5915,1.7739,1.9046,1.9795,1.9881,2.0206,2.0377,2.0412,2.0377,2.0797,2.1571,2.1764,2.2264,2.2968,2.3166,2.2459,2.1259,2.1217,2.0659,1.9913,1.992,1.9334,1.8565,1.7748,0.0,0.0,0.0,0.0,0.0,0.0,0.0,0.0,0.0,0.0,0.0,0.0,0.0,0.0,0.0,0.0,0.0,0.0,0.0,0.0,0.0,0.0,0.0,0.0,1.521,1.5557,1.7114,1.7061,1.7257,1.8112,1.8198,1.8373,1.8988,1.9261,1.9426,1.9426,1.9672,1.9809,1.9809,1.9591,0.0,0.0,0.0,1.978,1.984,2.0196,2.0213,2.0227,2.0227,2.0254,2.0281,2.0281,2.0294,2.0334,2.0334,2.0334,2.0334,2.0334,2.0334,2.0321,2.0254,1.9485,1.8239,1.5773,1.4048,1.2926,0.1609,0.1609,0.1542,0.1345,0.1374,0.1447,0.1365,0.1716,0.2062,0.2287,0.2755,0.3296,0.3921,0.3825,0.4008,0.4544,0.4737,0.5682,0.7901,0.8488,0.95,1.1102,1.1069,1.1685,1.3175,1.4548,1.5995,1.7655,1.8985,2.0052,2.0668,2.0737,2.0925,2.1182,2.0891,2.1476,2.2625,2.2372,2.2793,2.37,2.3784,2.3143,2.219,2.1818,2.1321,2.0803,2.0431,2.0431,2.0576,2.0329,1.9849,1.9143,1.7965,1.6609,0.0,0.0,0.0,0.0,0.0,0.0,0.0,0.0,0.0,0.0,0.0,0.0,0.0,0.0,0.0,0.0,0.0,0.0,0.0,1.6416,1.6607,1.6998,1.7789,1.8185,1.8544,1.8762,1.8942,1.9316,1.9617,1.9699,1.9726,1.9726,1.9781,1.9809,1.9809,1.9591,1.9712,2.0531,2.006,1.9972,2.0509,2.0268,2.0174,2.0227,2.0227,0.0,2.0588,2.0588,2.0722,2.0935,2.0935,2.0935,2.0935,2.0935,2.0935,2.0895,2.0414,2.0106,1.9607,1.8117,1.7368,1.6909,0.1609,0.1509,0.1412,0.1244,0.1101,0.1009,0.0855,0.1188,0.1604,0.1934,0.2463,0.3026,0.3604,0.3765,0.3875,0.3993,0.4336,0.5524,0.7772,0.8379,0.9367,1.107,1.1284,1.211,1.3634,1.5096,1.6638,1.8535,1.9745,2.06,2.1148,2.1148,2.1234,2.1405,2.169,2.2164,2.2778,2.3166,2.3584,2.4079,2.4132,2.3929,2.3453,2.2749,2.2211,2.1735,2.128,2.1114,2.1073,2.0845,2.0021,1.9056,1.8303,1.7009,1.5548,0.0,0.0,0.0,0.0,0.0,0.0,0.0,0.0,0.0,0.0,0.0,0.0,0.0,0.0,1.6397,1.6281,0.0,1.6732,1.7035,1.7284,1.7687,1.8401,1.8972,1.9357,1.9583,1.9608,1.9759,2.0256,2.0155,2.004,2.004,2.004,2.0109,2.0261,2.0158,2.0296,2.0718,2.0612,2.0509,2.0699,2.0699,2.0644,2.0668,2.0668,2.0748,2.0895,2.0895,2.0975,2.1109,2.1109,2.1109,2.1122,2.1269,2.1336,2.1309,2.1162,2.0545,1.9399,1.8136,1.7166,1.6212,0.1509,0.1278,0.1043,0.1043,0.0753,0.0501,0.031,0.058,0.0961,0.144,0.1869,0.2364,0.2932,0.3445,0.3661,0.3583,0.4261,0.5566,0.0,0.8211,0.9405,1.0899,1.1402,1.2382,1.3923,1.5409,1.7062,1.9036,2.0295,2.1097,2.1525,2.1525,2.1559,2.1627,2.2231,2.2673,2.2997,2.3712,2.4128,2.4355,2.4456,2.4488,2.4343,2.3598,2.3039,2.2563,2.2004,2.1631,2.13,2.0741,1.9665,1.8457,1.8118,1.6899,1.5534,1.528,1.5202,0.0,0.0,0.0,0.0,0.0,0.0,0.0,0.0,1.5496,1.6096,1.6096,1.6632,1.7079,1.6838,1.7176,1.7571,1.7793,1.7875,1.8198,1.8924,1.9525,1.9892,2.0344,2.0116,2.0155,2.0601,2.05,2.027,2.0385,2.0442,2.0582,2.0836,2.0788,2.0851,2.1036,2.1036,2.1066,2.0886,2.1121,2.1118,2.1109,2.1109,2.1109,2.1109,2.1162,2.1189,2.1203,2.1256,2.1283,2.1296,2.1537,2.163,2.1657,2.1897,2.1032,1.945,1.8406,1.699,1.5435,0.1143,0.0671,0.0336,0.0673,0.0364,0.0,-0.0196,0.0,0.0236,0.029,0.0636,0.1073,0.1493,0.1752,0.2254,0.3277,0.42,0.5433,0.717,0.8435,0.9596,1.0972,1.1241,1.1772,1.2575,1.4757,1.6464,1.7683,1.9808,2.1234,2.1936,2.1936,2.2107,2.2398,2.2171,2.2779,2.3955,2.3369,2.3859,2.5016,2.4629,2.4302,2.395,2.3846,2.3515,2.2998,2.2128,2.2045,2.2211,2.1342,2.0548,1.9797,1.8476,1.757,1.6757,1.6188,1.5978,1.5959,1.5757,1.5774,1.5862,1.6052,1.6184,1.6243,0.0,1.6462,1.6755,1.6755,1.7296,1.7756,1.8047,1.8426,1.866,1.8786,1.8975,1.936,1.9682,1.9704,1.9984,2.0558,2.0357,2.0385,2.0716,2.05,2.0385,2.0601,2.0974,2.116,2.1188,2.0865,2.1036,2.1954,2.1108,2.101,2.1434,2.156,2.1447,2.1109,2.1362,2.1362,2.1122,2.139,2.151,2.1523,2.1777,2.1884,2.1884,2.1924,2.1937,2.1937,2.1977,2.1806,2.1621,2.149,2.0529,1.9049,0.074,0.0201,-0.0134,0.0034,-0.021,-0.0477,-0.0623,-0.0495,-0.031,-0.0146,0.0205,0.0593,0.0972,0.1054,0.1464,0.2325,0.3321,0.4475,0.5775,0.7541,0.89,0.9853,1.0804,1.1674,1.2629,1.4116,1.5805,1.769,1.9319,2.0757,2.2004,2.221,2.2398,2.2636,2.3359,2.3925,2.4221,2.4579,2.4905,2.5171,2.4447,2.4053,2.3826,2.3287,2.2791,2.2397,2.2563,2.2563,0.0,2.1735,2.0785,1.9653,1.8452,1.7515,1.6679,1.6204,1.6211,1.6284,1.6183,1.6448,1.6594,1.5979,1.6374,1.6828,1.6448,1.6916,1.7413,1.7413,1.7989,1.8513,1.8644,1.8773,1.8972,1.9168,1.9095,1.9312,1.9718,1.9842,1.9924,2.0385,2.0385,2.0385,2.0716,2.0772,2.0886,2.0988,2.1289,2.1427,2.1491,2.1512,2.16,2.1783,2.1673,2.1478,2.1614,2.1727,2.174,2.1362,2.1792,2.1747,2.1376,2.167,2.1804,2.1817,2.1937,2.1991,2.2004,2.2164,2.2231,2.2258,2.2432,2.2498,2.231,2.1168,2.0278,1.9508,0.0336,-0.0168,-0.0537,-0.0537,-0.0673,-0.0873,-0.1008,-0.0913,-0.0801,-0.0625,-0.0345,-0.0052,0.0287,0.0452,0.0698,0.13,0.2287,0.3433,0.4746,0.6713,0.8268,0.9223,1.0429,1.1519,1.2273,1.3473,1.5143,1.7308,1.8675,2.0161,2.1696,2.2055,2.2227,2.2326,2.3394,2.3932,2.39,2.4584,2.49,2.4799,2.4012,2.3536,2.3225,2.2563,2.2108,2.1921,2.2708,2.277,2.2381,2.1842,2.0795,1.9502,1.8304,1.7301,1.6442,1.6285,1.6553,1.6817,1.6683,1.7106,1.734,1.6228,1.6784,1.7457,1.6901,1.7384,1.7969,1.8072,1.8528,1.9031,1.9204,1.9245,1.9361,1.9666,1.9494,1.9448,2.0012,2.004,2.0155,2.0385,2.0571,2.0743,2.0845,2.1059,2.1231,2.145,2.1737,2.1933,2.2139,2.2224,2.2298,2.2102,2.2159,2.2117,2.1864,2.2146,2.202,2.1737,2.2084,2.2107,2.1683,2.1977,2.2151,2.2231,2.2231,2.2231,2.2245,2.2458,2.2539,2.2565,2.2779,2.2859,2.2669,2.1289,2.0342,1.9808,-0.0034,-0.0504,-0.0875,-0.0875,-0.1009,-0.1117,-0.1278,-0.1264,-0.132,-0.1341,-0.1397,-0.1296,-0.0889,-0.0522,-0.0061,0.0387,0.1256,0.2617,0.4698,0.6353,0.7978,0.9577,1.0279,1.0767,1.1088,1.2734,1.4335,1.5814,1.8024,1.9685,2.0925,2.1268,2.1439,2.1439,2.1439,2.2066,2.2957,2.2631,2.2997,2.3888,2.3412,2.2666,2.1859,2.1838,2.1818,2.1859,2.2356,2.2501,2.2405,2.1641,2.0832,1.9769,1.8146,1.707,1.653,1.646,1.7131,1.7691,1.7384,1.7779,1.8116,1.7443,1.7779,1.8189,1.7852,1.8043,1.8379,1.8701,1.9038,1.9462,2.0091,2.0154,2.0372,2.0659,2.0486,2.0371,2.0601,2.0716,2.0716,2.0716,2.1249,2.1554,2.1188,2.1188,2.145,2.214,2.2447,2.2754,2.3076,2.3019,2.3207,2.3522,2.2978,2.2566,2.2566,2.2637,2.2384,2.2052,2.2438,2.2346,2.1977,2.2271,2.2565,2.2832,2.2832,2.2832,2.2832,2.2846,2.2846,2.2846,2.2859,2.2859,2.2859,2.2846,2.1859,2.0593,-0.0436,-0.0808,-0.1043,-0.1043,-0.1112,-0.1203,-0.1284,-0.1315,-0.1322,-0.1375,-0.1441,0.0,0.0,0.0,0.0,0.0,-0.0065,0.0953,0.2605,0.4984,0.6773,0.7961,0.9697,1.0746,1.0982,1.1896,1.3366,1.5474,1.6714,1.8303,2.0138,2.0497,2.0668,2.0668,2.1221,2.1717,2.2195,2.2582,2.2788,2.2956,2.2791,2.2542,2.2294,2.2604,2.2542,2.2319,0.0,2.3063,2.2816,2.1632,2.0888,2.0211,1.844,1.7696,1.7367,1.734,1.7728,1.8072,1.7735,1.7969,1.8203,1.7765,1.8145,1.8599,1.8482,1.8716,1.8979,1.9096,1.9374,1.9725,2.015,2.0294,2.0387,2.0673,2.05,2.0385,2.0385,2.027,2.0224,2.0667,2.1028,2.1256,2.179,2.206,2.2224,2.2462,2.2769,2.2864,2.2731,2.3033,2.2907,2.2681,2.2978,2.3178,2.2964,2.305,2.3035,2.2744,2.2558,2.2552,2.2565,2.2672,2.2766,2.2859,2.2859,2.2859,2.2859,2.2859,2.2859,2.2859,2.2859,2.2859,2.2859,2.2859,2.2585,2.216,-0.0726,-0.102,-0.1163,-0.1118,-0.118,0.0,0.0,0.0,0.0,0.0,0.0,0.0,0.0,0.0,0.0,0.0,0.0,-0.0064,0.1065,0.3626,0.5544,0.643,0.8391,0.9677,1.0315,1.0717,1.2147,1.4651,1.5662,1.7121,1.8996,1.9601,1.9898,1.9898,2.043,2.0793,2.0987,2.1762,2.2287,2.2614,2.236,2.2385,2.2534,2.2267,2.1886,0.0,2.1563,2.1967,2.2307,2.1089,2.0395,1.971,1.8012,1.7556,1.7673,1.7927,1.8306,1.8555,1.8116,1.8321,1.8569,1.8247,1.8569,1.8964,1.8964,1.9125,1.9272,1.9272,1.9623,1.9989,2.0194,2.0366,2.0544,2.096,2.0786,2.067,2.0786,2.0568,2.0639,2.1071,2.1199,2.1589,2.2335,2.2602,2.2798,2.2798,2.3091,2.3214,2.3203,2.3406,2.3393,2.3164,2.3494,2.3666,2.3681,2.3393,2.3233,2.2932,2.293,2.2939,2.3033,2.3033,2.3033,2.302,2.2913,2.2859,2.2859,2.2859,2.2859,2.2859,2.2859,2.2859,2.2859,2.2859,2.2859,2.2859,-0.0842,-0.1102,-0.1256,0.0,0.0,0.0,0.0,0.0,0.0,0.0,0.0,0.0,0.0,0.0,0.0,0.0,0.0,0.0,0.0,0.2372,0.0,0.511,0.6439,0.77,0.8987,0.9426,1.0881,1.3315,1.4767,1.6264,1.7652,1.8631,1.9093,1.9093,1.911,1.9242,1.9534,2.0186,2.1375,2.2665,2.1982,2.2068,2.2522,2.0799,2.0023,1.9747,1.8656,1.9462,2.0997,2.0128,1.9249,1.8386,1.6921,1.6843,1.7472,1.8101,1.873,1.9096,1.8482,1.8774,1.9184,1.8891,1.9052,1.9272,1.9272,1.9272,1.9286,1.9301,1.9784,2.0223,2.0281,2.054,2.0931,2.1642,2.1423,2.1291,2.1554,2.1686,2.1701,2.1715,2.2008,2.2315,2.2623,2.293,2.3106,2.3106,2.3413,2.3735,2.4042,2.4086,2.4379,2.4964,2.413,2.3954,2.4569,2.3595,2.3074,2.2848,2.348,2.3621,2.3327,2.334,2.3354,2.334,2.3033,2.2913,2.2899,2.2886,2.2886,2.2886,2.2873,2.2859,2.2859,2.2886,2.2886,2.2886,0.0,0.0,0.0,0.0,0.0,0.0,0.0,0.0,0.0,0.0,0.0,0.0,0.0,0.0,0.0,0.0,0.0,0.0,-0.053,0.1269,0.0,0.0,0.0,0.0,0.0,0.889,1.0317,1.1897,1.3601,1.5063,1.6269,1.7359,1.7894,1.7912,1.8203,1.8597,1.9137,1.9757,2.041,2.0837,2.0747,2.0751,2.0876,2.0042,1.975,1.9548,1.8795,1.8528,1.8583,1.8485,1.8144,1.7733,1.7026,1.7179,1.7721,1.7896,1.8233,1.8569,1.8642,1.8789,1.895,1.9111,1.9213,1.9272,1.9272,1.9272,1.9345,1.9594,1.9769,2.0106,2.0823,2.0783,2.0914,2.1598,2.1235,2.0845,2.096,2.1059,2.1185,2.1651,2.1953,2.2393,2.2959,2.3062,2.3106,2.3106,2.3413,2.3632,2.372,2.4174,2.4291,2.3984,2.4437,2.4509,2.4156,2.3798,2.3365,2.2889,2.3447,2.3621,2.334,2.3554,2.3661,2.3647,2.3581,2.3541,2.3527,2.33,2.3207,2.318,2.2953,2.2859,2.2886,2.3126,2.3207,2.3233,0.0,0.0,0.0,0.0,0.0,0.0,0.0,0.0,0.0,0.0,0.0,0.0,0.0,0.0,0.0,0.0,0.0,0.0,0.0,0.0117,0.0,0.0,0.0,0.0,0.0,0.7468,0.876,1.075,1.2076,1.3402,1.4647,1.6012,1.6652,1.6746,1.7293,1.7709,1.8099,1.876,1.9409,0.0,0.0,1.9961,1.9868,1.9203,1.841,1.7681,1.7187,1.6928,1.6797,1.7173,1.7255,1.7026,1.6904,1.7194,1.7633,1.7779,1.8145,1.8555,1.8745,1.8789,1.8862,1.9199,1.9272,1.9316,1.9462,1.9491,1.9579,1.9901,2.0091,2.0355,2.0896,2.0969,2.0987,2.1365,2.1293,2.1046,2.0931,2.1088,2.1331,2.1886,2.2089,2.2486,2.3062,2.3106,2.3223,2.3515,2.3574,2.3588,2.3588,2.4086,2.4247,2.4027,2.4423,2.4405,2.3955,2.4038,2.3844,2.326,2.3741,2.3875,2.3714,2.3888,2.3968,2.3955,2.3821,2.3701,2.3581,2.3541,2.3447,2.3327,2.3273,2.326,2.3287,2.346,2.3527,2.3541,0.0,0.0,0.0,0.0,0.0,0.0,0.0,0.0,0.0,-0.3658,-0.3566,-0.3577,-0.3913,-0.3958,0.0,0.0,0.0,0.0,0.0,0.0,0.0,0.0,0.0,0.0,0.5421,0.5587,0.6953,0.9448,1.0251,1.1462,1.297,1.444,1.5304,1.5519,1.6355,1.6764,1.6764,1.7436,1.8388,1.9384,1.9197,1.907,1.8824,0.0,1.6509,1.504,1.4961,1.5154,1.5467,1.6239,1.6413,1.6404,1.6652,1.6974,1.7326,1.7647,1.8218,1.873,1.8774,1.8818,1.8921,1.9213,1.9242,1.9301,1.9681,1.9696,1.9755,2.015,2.0428,2.0618,2.0706,2.0955,2.1147,2.1145,2.1481,2.1613,2.1203,2.1524,2.1906,2.2154,2.2213,2.2476,2.3047,2.3106,2.334,2.391,2.3691,2.3588,2.372,2.3998,2.4291,2.4627,2.4232,2.4098,2.4008,2.415,2.4162,2.3768,2.4062,2.4182,2.4155,2.4222,2.4235,2.4195,2.3981,2.3741,2.3514,2.3741,2.3674,2.346,2.3688,2.3768,2.3768,2.3808,2.3834,2.3834,0.0,0.0,0.0,0.0,0.0,0.0,-0.3785,-0.3997,-0.4457,-0.5177,-0.4451,-0.3894,-0.4137,-0.4168,0.0,0.0,0.0,0.0,0.0,0.0,0.0,0.0,0.0,0.0,0.3727,0.4683,0.5792,0.7073,0.8538,0.9884,1.1096,1.3044,1.4024,1.4379,1.5484,1.5994,1.6065,1.6669,1.6848,1.6848,1.6817,1.6587,1.621,1.4866,0.0,0.0,1.4124,1.4683,1.5438,1.558,1.5977,1.633,1.614,1.6477,1.7004,1.7311,1.7882,1.8438,1.8716,1.8994,1.9213,1.9257,1.9067,1.9023,1.9623,1.9345,1.9199,2.0062,2.0077,2.0091,2.0618,2.0764,2.0885,2.1131,2.1432,2.1622,2.126,2.1781,2.2161,2.2213,2.2403,2.2696,2.3076,2.3106,2.3164,2.3267,2.3223,2.3545,2.4364,2.4452,2.4642,2.4964,2.4367,2.4102,2.433,2.3705,2.3614,2.3768,2.4062,2.4075,2.3861,2.4342,2.4436,2.4209,2.4409,2.4449,2.4396,2.4209,2.4102,2.4035,2.3848,2.3768,2.3794,2.4035,2.4128,2.4168,0.0,0.0,0.0,0.0,0.0,0.0,0.0,-0.5031,-0.5417,-0.6284,-0.6031,-0.5619,-0.5285,-0.5037,-0.4699,0.0,0.0,0.0,0.0,0.0,0.0,0.0,0.0,0.0,0.2734,0.3564,0.4512,0.5667,0.0,0.78,0.8906,1.0588,1.1622,1.2163,1.3186,1.3891,1.4333,1.4507,1.4651,1.4863,1.5002,1.4672,1.4065,0.0,0.0,0.0,1.365,1.4355,1.5204,1.5365,1.5848,1.6345,1.6199,1.636,1.6799,1.7794,1.8189,1.8452,1.9111,1.9286,1.9272,1.9272,1.9038,1.9008,1.9828,1.9506,1.9316,2.0296,2.0237,2.0106,2.0413,2.0603,2.071,2.0687,2.0988,2.1131,2.0974,2.1217,2.1536,2.192,2.2213,2.2579,2.3062,2.3106,2.3252,2.3588,2.3457,2.3574,2.4042,2.4393,2.4715,2.5052,2.451,2.4313,2.4638,2.394,2.3762,2.4222,2.4209,2.4209,2.4222,2.4356,2.4422,2.4422,2.4422,2.4409,2.4409,2.4422,2.4342,2.4209,2.4222,2.4222,2.4235,2.4382,2.4422,2.4449,0.0,0.0,0.0,0.0,0.0,0.0,0.0,-0.6011,-0.6329,-0.7267,-0.7416,-0.7252,-0.6613,-0.6152,-0.5567,0.0,0.0,0.0,0.0,0.0,0.0,0.0,0.0,0.0,0.0,0.0,0.0,0.4634,0.5085,0.0,0.0,0.0,0.0,0.0,1.0872,1.1752,1.2555,1.2323,1.2533,0.0,0.0,1.3135,1.249,0.0,0.0,0.0,0.0,1.4062,1.4903,1.5233,1.5745,1.6287,1.6345,1.6462,1.6857,1.8262,1.8555,1.8569,1.9345,1.9418,1.9257,1.9184,1.8979,1.9008,1.9842,1.9579,1.9403,2.0237,2.0041,1.9823,1.993,2.0085,2.0265,2.0258,2.0644,2.1018,2.083,2.0945,2.1307,2.1686,2.1979,2.2403,2.2945,2.3062,2.3325,2.3837,2.3837,2.3808,2.3808,2.4364,2.4788,2.5052,2.4645,2.4521,2.4862,2.4148,2.4039,2.4636,2.4342,2.4329,2.4543,2.4369,2.4382,2.4529,2.4369,2.4302,2.4315,2.4543,2.4502,2.4315,2.4543,2.4636,2.4636,2.4636,2.4636,2.4636,0.0,0.0,0.0,0.0,0.0,0.0,0.0,-0.6698,-0.7353,-0.8168,-0.7962,-0.7768,-0.7655,-0.7097,-0.6174,0.0,0.0,0.0,0.0,0.0,0.0,0.0,0.0,0.0,0.0,0.0,0.0,0.3805,0.3866,0.0,0.0,0.0,0.0,0.0,0.0,1.0483,1.1066,1.1066,0.0,0.0,0.0,0.0,0.0,0.0,0.0,0.0,0.0,1.3872,1.486,1.4984,1.5423,1.6009,1.6287,1.6769,1.7384,1.813,1.854,1.876,1.8847,1.9067,1.9199,1.8906,1.8803,1.8891,1.9272,1.9081,1.895,1.933,1.8948,1.8628,1.8921,1.8977,1.9362,2.0129,2.1264,2.1875,2.1217,2.19,2.2286,2.1759,2.1979,2.2315,2.2637,2.293,2.3135,2.3193,2.3998,2.4481,2.4481,2.4818,2.5022,2.5052,2.4374,2.4246,2.4862,2.3882,2.3768,2.4636,2.4342,2.4222,2.4249,2.4489,2.4462,2.4262,2.4489,2.4596,2.4596,2.4623,2.4623,2.4596,2.4623,2.4636,2.4636,2.4636,2.4636,2.4636,0.0,0.0,0.0,0.0,0.0,0.0,-0.6445,-0.7031,-0.7645,-0.8477,-0.8552,-0.8382,-0.8004,-0.7636,-0.6829,-0.5398,0.0,0.0,0.0,0.0,0.0,0.0,0.0,0.0,0.0,0.0,0.2056,0.3039,0.3495,0.0,0.0,0.0,0.0,0.0,0.0,0.8908,0.9544,0.9582,0.0,0.0,0.0,0.0,0.0,0.0,0.0,0.0,0.0,0.0,1.4428,1.4809,1.5379,1.6038,1.6726,1.7252,1.775,1.8408,1.8555,1.8584,1.8979,1.8891,1.8657,1.8525,1.835,1.8394,1.9111,1.8716,1.8408,1.9125,1.876,1.8354,1.8557,1.8758,1.9098,1.9637,2.0501,2.1131,2.1203,2.1694,2.1944,2.1745,2.214,2.2564,2.2886,2.3032,2.3267,2.3662,2.4232,2.4744,2.5125,2.5271,2.5344,2.5344,2.4644,2.4526,2.5142,2.4188,2.4115,2.4636,2.4516,2.4462,2.4462,2.4396,2.4409,2.4462,2.4396,2.4476,2.4636,2.4636,2.4636,2.4636,2.4636,2.4636,2.4636,2.4636,2.4636,2.4636,0.0,0.0,0.0,0.0,0.0,-0.5696,-0.6501,-0.7001,-0.7567,-0.8344,-0.8618,-0.8552,-0.8051,-0.7702,-0.704,-0.5897,-0.5123,0.0,0.0,0.0,0.0,0.0,0.0,0.0,0.0,0.0,0.1723,0.2319,0.3058,0.3773,0.0,0.0,0.626,0.7186,0.0,0.0,0.0,0.0,0.0,0.0,0.0,0.0,0.0,0.0,0.0,0.0,0.0,0.0,0.0,0.0,0.0,1.582,1.6667,1.7267,1.7794,1.8452,1.8482,1.8408,1.8862,1.8657,1.8277,1.8174,1.813,1.8233,1.873,1.8467,1.8247,1.8745,1.8382,1.8036,1.8067,1.8266,1.8603,1.9217,1.9921,2.0614,2.1145,2.1665,2.1973,2.1993,2.252,2.2959,2.3091,2.3106,2.3427,2.4174,2.4525,2.4993,2.5637,2.5769,2.5769,2.5681,2.4972,2.4806,2.5324,2.463,2.4342,2.4636,2.4636,2.4636,2.4623,2.4422,2.4436,2.4623,2.4422,2.4449,2.4649,2.473,2.4716,2.4649,2.473,2.4716,2.4636,2.4636,2.4636,2.4636,0.0,0.0,0.0,0.0,0.0,0.0,-0.6063,-0.6572,-0.7078,-0.7691,-0.7966,-0.8014,-0.7806,-0.7229,-0.6632,-0.6211,-0.5533,0.0,0.0,0.0,0.0,0.0,0.0,0.0,0.0,0.0,0.1163,0.1708,0.2403,0.3028,0.3655,0.4646,0.5473,0.6151,0.0,0.0,0.0,0.0,0.0,0.0,0.0,0.0,0.0,0.0,0.0,0.0,0.0,0.0,0.0,0.0,0.0,0.0,0.0,1.6579,1.7457,1.8116,1.8306,1.8306,1.8306,1.8306,1.8218,1.7896,1.8306,1.8613,1.7969,1.8321,1.8599,1.7955,1.7645,1.7452,1.7452,1.7513,1.782,1.8744,2.0003,2.0845,2.1145,2.1973,2.2623,2.2608,2.3193,2.3457,2.3135,2.3106,2.3515,2.4496,2.4862,2.533,2.5974,2.631,2.6339,2.6018,2.5299,2.5016,2.5324,2.463,2.4342,2.4636,2.4636,2.4636,2.4636,2.4636,2.4636,2.4636,2.4636,2.4636,2.4663,2.4957,2.4903,2.4663,2.4957,2.489,2.4636,2.4636,2.4636,2.4636,0.0,0.0,0.0,0.0,0.0,0.0,0.0,-0.5849,-0.6378,-0.7286,-0.7474,-0.754,-0.7617,-0.7135,-0.6632,-0.6211,-0.5542,0.0,0.0,0.0,0.0,0.0,0.0,0.0,0.0,0.0,0.0695,0.1787,0.2188,0.2971,0.4189,0.4813,0.5655,0.6572,0.6699,0.6964,0.0,0.0,0.0,0.0,0.0,0.0,0.9576,0.0,0.0,0.0,0.0,0.0,0.0,0.0,0.0,0.0,0.0,0.0,0.0,1.708,1.7698,1.8247,1.8028,1.813,1.8277,1.8174,1.7887,1.7577,1.7807,1.7423,1.707,1.7284,1.7074,1.6894,1.6926,1.7119,1.7415,1.8224,1.957,2.0568,2.0851,2.1754,2.2184,2.1968,2.2544,2.285,2.2716,2.3184,2.3534,2.3941,2.4407,2.5096,2.5974,2.6325,2.6314,2.5912,2.5484,2.5194,2.5222,2.4796,2.4543,2.4636,2.4636,2.4636,2.4636,2.4636,2.4636,2.4636,2.4636,2.4636,2.4663,2.4957,2.4903,2.4663,2.497,2.5024,2.4917,2.4716,2.477,2.4943,0.0,0.0,0.0,0.0,0.0,0.0,0.0,-0.5246,-0.572,-0.6411,-0.6763,-0.7002,-0.721,-0.6795,-0.637,-0.6192,-0.5572,0.0,0.0,0.0,0.0,0.0,0.0,0.0,0.0,-0.0837,-0.0105,0.0886,0.1729,0.2581,0.3435,0.4499,0.5385,0.6028,0.6165,0.6429,0.0,0.0,0.0,0.0,0.0,0.0,0.8678,0.0,0.0,0.0,0.0,0.0,0.0,0.0,0.0,0.0,0.0,0.0,0.0,0.0,1.7001,1.7674,1.7545,1.7691,1.7911,1.7698,1.7275,1.7079,1.7369,1.6809,1.65,1.6798,1.6714,1.6592,1.6718,1.6922,1.7272,1.7742,1.9152,2.0378,2.0629,2.1558,2.221,2.2377,2.2697,2.287,2.2935,2.3189,2.3391,2.3694,2.432,2.5052,2.6149,2.6398,2.6272,2.594,2.5651,2.5458,2.5226,2.4784,2.4636,2.4636,2.4636,2.4636,2.4636,2.4636,2.4636,2.4636,2.4636,2.4636,0.0,2.4957,2.497,2.4836,2.513,2.5237,2.5224,2.5037,2.501,2.509,0.0,0.0,0.0,0.0,0.0,0.0,0.0,-0.4605,-0.5069,-0.5336,-0.6,-0.6482,-0.6688,-0.6237,-0.5963,-0.6143,0.0,0.0,0.0,0.0,0.0,0.0,0.0,0.0,0.0,-0.1516,-0.1026,-0.0711,0.1021,0.1847,0.1756,0.3887,0.4847,0.487,0.5297,0.5807,0.0,0.0,0.0,0.0,0.6942,0.7254,0.0,0.0,0.0,0.0,0.0,0.0,0.0,0.0,0.0,0.0,0.0,0.0,0.0,0.0,0.0,0.0,0.0,1.7106,1.7232,1.6771,1.6793,1.6885,1.6711,1.6588,0.0,1.6602,1.6616,1.6619,1.6648,1.6949,1.7259,1.7555,1.8959,2.0068,2.0657,2.1451,2.2398,2.3422,2.3193,2.3135,2.3493,2.2978,2.3006,2.3966,2.4436,2.514,2.6427,2.65,2.6215,2.5786,2.58,2.5506,2.5226,2.4784,2.4636,2.4636,2.4636,2.4636,2.4636,2.4636,2.4636,2.4636,2.4636,2.4636,2.4663,2.4957,2.5077,2.5104,2.5398,2.5518,2.5545,2.5518,2.5358,2.5184,0.0,0.0,0.0,0.0,0.0,0.0,0.0,0.0,0.0,0.0,-0.5563,-0.585,-0.5897,-0.5765,-0.5632,0.0,0.0,0.0,0.0,0.0,0.0,0.0,0.0,0.0,0.0,-0.2331,-0.1648,-0.0599,0.0344,0.123,0.2077,0.3172,0.4173,0.5061,0.4887,0.5164,0.0,0.0,0.0,0.0,0.6181,0.6318,0.0,0.0,0.0,0.0,0.8077,0.8503,0.0,0.0,0.0,0.0,0.0,0.0,0.0,0.0,1.5824,1.6757,1.6097,0.0,1.7583,1.7609,1.6978,1.655,0.0,1.6292,1.5805,1.6265,1.6359,1.6454,1.6652,1.6948,1.7418,1.8143,1.9421,2.0383,2.0604,2.0863,2.1396,2.2384,2.2224,2.2196,2.2736,2.2961,2.3134,2.37,2.4303,2.5004,2.5999,2.6056,2.5781,2.5359,2.5373,2.5079,2.4784,2.4636,2.4636,2.4636,2.4636,2.4636,2.4636,2.4636,2.4636,2.4636,2.4636,2.4636,2.4663,2.4957,2.5077,2.5104,2.5398,2.5651,2.5825,2.5598,2.5611,2.5758,0.0,0.0,0.0,0.0,0.0,0.0,0.0,0.0,0.0,0.0,0.0,0.0,0.0,0.0,0.0,0.0,0.0,0.0,0.0,0.0,0.0,0.0,0.0,0.0,-0.2777,-0.2681,-0.222,-0.1421,-0.0511,0.0457,0.1535,0.2505,0.3538,0.4525,0.4482,0.4518,0.0,0.0,0.0,0.0,0.5509,0.0,0.0,0.0,0.0,0.0,0.7216,0.7583,0.0,0.911,1.022,1.1229,0.0,0.0,0.0,0.0,1.5339,1.6049,1.5749,1.6476,1.7258,1.6924,1.6538,1.6293,1.6691,1.6224,1.5925,1.638,1.6473,1.6607,1.7034,1.7355,1.7769,1.8384,1.934,2.024,2.0835,2.1257,2.1685,2.2355,2.2075,2.1964,2.2328,2.2454,2.2751,2.3567,2.3908,2.4709,2.5841,2.5784,2.5482,2.5212,2.5226,2.5079,2.4636,2.4636,2.4636,2.4636,2.4636,2.4636,2.4636,2.4636,2.4636,2.4636,2.4636,2.4636,2.4649,2.481,2.5037,2.5291,2.5451,2.5772,2.6132,2.5972,2.5932,2.5972,0.0,0.0,0.0,0.0,0.0,0.0,0.0,0.0,0.0,0.0,0.0,0.0,0.0,0.0,0.0,0.0,0.0,0.0,0.0,0.0,0.0,0.0,0.0,0.0,-0.2613,-0.2797,-0.2692,-0.2433,-0.1256,-0.0163,0.0766,0.1959,0.3016,0.3887,0.4063,0.391,0.0,0.0,0.0,0.4192,0.475,0.0,0.0,0.0,0.0,0.0,0.0,0.0,0.0,0.8417,0.9496,1.0539,1.1802,0.0,0.0,0.0,0.0,0.0,1.5722,1.6383,1.6777,1.5948,1.5939,1.6252,1.6263,1.6273,1.6433,1.6767,1.6807,1.6967,1.7609,1.7903,1.8183,1.8624,1.9386,2.0241,2.1039,2.1679,2.2222,2.2482,2.2201,2.1988,2.2076,2.1894,2.224,2.3434,2.3516,2.4146,2.5627,2.5484,2.5198,2.4997,2.5065,2.4931,2.4636,2.4636,2.4636,2.4636,2.4636,2.4636,2.4636,2.4636,2.4636,2.4636,2.4636,2.4636,2.4636,2.4636,2.4983,2.5518,2.5518,2.5865,2.6386,2.6386,2.6239,2.6052,0.0,0.0,0.0,0.0,0.0,0.0,0.0,0.0,0.0,0.0,0.0,0.0,0.0,0.0,0.0,0.0,0.0,0.0,0.0,0.0,0.0,0.0,0.0,0.0,0.0,0.0,-0.2941,-0.2496,-0.1163,0.0,0.1092,0.2276,0.3241,0.3887,0.3388,0.3263,0.3375,0.0,0.3268,0.3319,0.3845,0.0,0.0,0.0,0.0,0.0,0.0,0.0,0.0,0.7376,0.8713,1.0296,1.033,0.0,0.0,0.0,0.0,0.0,1.6021,1.647,1.6567,1.5923,1.6008,1.6249,1.6239,1.6384,1.6794,1.7341,1.7248,1.7341,1.8196,1.8183,1.8384,1.9426,2.0134,2.0655,2.1115,2.0735,2.0997,2.2043,2.1713,2.1491,2.2084,2.2005,2.2368,2.3034,2.3315,2.3868,2.4465,2.4712,2.4733,2.4407,2.4502,2.4636,2.4636,2.4636,2.4636,2.4636,2.4636,2.4636,2.4636,2.4636,2.4636,2.4636,2.4636,2.4636,2.4636,2.4636,2.4983,2.5518,2.5518,2.5865,2.6386,2.6386,2.636,2.6333,0.0,0.0,0.0,0.0,0.0,0.0,0.0,0.0,0.0,0.0,0.0,0.0,0.0,0.0,0.0,0.0,0.0,0.0,0.0,0.0,0.0,0.0,0.0,0.0,0.0,0.0,-0.2664,-0.2559,-0.203,-0.0965,0.0625,0.2412,0.3373,0.3564,0.321,0.2988,0.2887,0.2763,0.2819,0.2989,0.0,0.0,0.0,0.0,0.0,0.0,0.0,0.0,0.0,0.0,0.8666,1.0384,1.0121,0.0,0.0,0.0,0.0,0.0,1.5645,1.6128,1.6332,1.5737,1.6048,1.6513,1.6738,1.6854,1.7154,1.7916,1.7969,1.805,1.8624,1.8878,1.9172,1.9706,2.0027,2.0429,2.0835,2.0805,2.1105,2.2272,2.185,2.157,2.206,2.1809,2.1984,2.29,2.2937,2.3309,2.4241,2.4446,2.4467,2.4195,2.4489,2.4636,2.4636,2.4636,2.4636,2.4636,2.4636,2.4636,2.4636,2.4636,2.4636,2.4636,2.4636,2.4636,2.4636,2.4636,2.4983,2.5518,2.5518,2.5865,2.6386,2.6386,2.6386,2.6386,0.0,0.0,0.0,0.0,0.0,0.0,0.0,0.0,0.0,0.0,0.0,0.0,0.0,0.0,0.0,0.0,0.0,0.0,0.0,0.0,0.0,0.0,0.0,0.0,0.0,0.0,-0.2542,-0.2665,-0.2449,-0.1249,0.0799,0.2637,0.3418,0.3346,0.2947,0.262,0.2366,0.2299,0.2387,0.2558,0.0,0.0,0.0,0.0,0.0,0.0,0.0,0.0,0.0,0.0,0.0,0.0,0.0,0.0,0.0,1.3771,1.4282,1.4883,1.5444,1.5925,1.6192,1.5885,1.6313,1.6834,1.6927,1.7154,1.7555,1.825,1.8437,1.8597,1.8958,1.9559,1.9987,1.9907,1.996,2.0174,2.0563,2.0805,2.1281,2.223,2.182,2.1605,2.2006,2.1488,2.1571,2.2658,2.2508,2.2875,2.4004,2.4154,2.4188,2.4195,2.4489,2.4636,2.4636,2.4636,2.4636,2.4636,2.4636,2.4636,2.4636,2.4636,2.4636,2.4636,2.4636,2.4636,2.4636,2.4636,2.4983,2.5518,2.5518,2.5865,2.6386,2.6386,2.6386,2.6386,0.0,0.0,0.0,0.0,0.0,0.0,0.0,0.0,0.0,0.0,0.0,0.0,0.0,0.0,0.0,0.0,0.0,0.0,0.0,0.0,0.0,0.0,0.0,0.0,0.0,-0.2638,-0.2733,-0.2856,-0.1512,0.0385,0.2838,0.337,0.3496,0.3343,0.2345,0.184,0.1812,0.1975,0.183,0.1717,0.2875,0.0,0.0,0.0,0.0,0.0,0.0,0.0,0.0,0.0,0.0,0.0,0.0,0.0,1.2432,1.3959,1.4309,1.4456,1.5832,1.6246,1.6393,1.6901,1.7074,1.6981,1.646,1.7194,1.7996,1.8063,1.8303,1.8664,1.9239,2.004,2.0521,2.0241,2.0428,2.0521,2.0267,2.0508,2.0926,2.1573,2.1375,2.1262,2.1614,2.1362,2.1363,2.1977,2.2004,2.2392,2.33,2.3621,2.3901,2.4195,2.4489,2.4636,2.4636,2.4636,2.4636,2.4636,2.4636,2.4636,2.4636,2.4636,2.4636,2.4636,2.4636,2.4636,2.4636,2.4636,2.4983,2.5518,2.5518,2.5865,2.6386,2.6386,2.6386,2.6386,0.0,0.0,0.0,0.0,0.0,0.0,0.0,0.0,0.0,0.0,0.0,0.0,0.0,0.0,0.0,0.0,0.0,0.0,0.0,0.0,0.0,0.0,0.0,-0.221,-0.2649,-0.2681,-0.2768,-0.2926,-0.157,0.0,0.1743,0.2319,0.2578,0.2547,0.2404,0.2215,0.2001,0.2304,0.2601,0.2841,0.3285,0.3877,0.0,0.0,0.0,0.0,0.0,0.0,0.0,0.0,0.7797,0.8922,0.918,1.0792,1.276,1.3322,1.42,1.5137,1.6246,1.654,1.6687,1.7275,1.7702,1.7876,1.7475,1.7729,1.821,1.8758,1.8958,1.9212,1.98,2.0027,2.0147,2.0227,2.0334,2.0428,2.0494,2.0601,2.0913,2.1573,2.1362,2.1235,2.1614,2.1362,2.1349,2.1937,2.2151,2.2565,2.3287,2.3781,2.4088,2.4195,2.4489,2.4636,2.4636,2.4636,2.4636,2.4636,2.4636,2.4636,2.4636,2.4636,2.4636,2.4636,2.4636,2.4636,2.4636,2.4636,2.4983,2.5545,2.5919,2.6186,2.6386,2.6386,2.6386,2.6386,0.0,0.0,0.0,0.0,0.0,0.0,0.0,0.0,0.0,0.0,0.0,0.0,0.0,0.0,0.0,0.0,0.0,0.0,0.0,0.0,0.0,0.0,0.0,-0.2199,-0.2627,-0.2673,-0.2779,-0.2959,-0.1448,0.0,0.1345,0.183,0.2038,0.2074,0.2273,0.2257,0.2058,0.2646,0.3143,0.3577,0.3956,0.4544,0.0,0.0,0.0,0.0,0.0,0.0,0.0,0.0,0.7646,0.8654,0.8637,1.0541,1.293,1.2991,1.4142,1.5565,1.6353,1.6633,1.6874,1.7542,1.8036,1.8343,1.833,1.8464,1.8718,1.9145,1.9372,1.9679,2.0267,2.0281,2.0281,2.0481,2.0508,2.0548,2.0655,2.0762,2.1007,2.1587,2.1362,2.1235,2.1614,2.1362,2.1349,2.1937,2.2258,2.2726,2.3434,2.3928,2.4249,2.4342,2.4529,2.4636,2.4636,2.4636,2.4636,2.4636,2.4636,2.4636,2.4636,2.4636,2.4636,2.4636,2.4636,2.4636,2.4636,2.4636,2.4983,2.5571,2.6159,2.6386,2.6386,2.6386,2.6386,2.6386,0.0,0.0,0.0,0.0,0.0,0.0,0.0,0.0,0.0,0.0,0.0,0.0,0.0,0.0,0.0,0.0,0.0,0.0,0.0,-0.1767,0.0,0.0,0.0,-0.2202,-0.2501,-0.2629,-0.2779,-0.2959,-0.1085,0.0717,0.2151,0.2147,0.2127,0.0,0.0,0.0,0.1811,0.2931,0.344,0.3623,0.4894,0.5425,0.5425,0.0,0.0,0.0,0.0,0.0,0.0,0.0,0.7513,0.8337,0.8884,1.0573,1.248,1.3101,1.4283,1.5524,1.6112,1.6486,1.6914,1.7796,1.8036,1.821,1.8798,1.9386,1.9639,1.9065,1.9399,1.9987,2.0575,2.0909,2.1109,2.1109,2.1109,2.1002,2.0722,2.0922,2.1235,2.1614,2.1362,2.1235,2.1614,2.1362,2.1363,2.1937,2.2258,2.2819,2.3728,2.4048,2.4342,2.4623,2.4636,2.4636,2.4636,2.4636,2.4636,2.4636,2.4636,2.4636,2.4636,2.4636,2.4636,2.4636,2.4636,2.4636,2.4636,2.4649,2.4983,2.5571,2.6159,2.6386,2.6386,2.6386,2.6386,2.6386,0.0,0.0,0.0,0.0,0.0,0.0,0.0,0.0,0.0,0.0,0.0,0.0,0.0,0.0,0.0,0.0,0.0,0.0,-0.1708,-0.1666,-0.1703,-0.1899,-0.1967,0.0,0.0,-0.2523,-0.2223,-0.1479,-0.0919,0.009,0.1546,0.1633,0.0,0.1944,0.0,0.0,0.3238,0.3499,0.389,0.4477,0.5132,0.5292,0.5292,0.0,0.0,0.0,0.0,0.0,0.0,0.0,0.0,0.0,0.7715,0.9901,1.2493,1.1951,1.3535,1.5524,1.6112,1.6339,1.666,1.7769,1.8357,1.8758,1.9145,1.9533,1.992,2.0374,2.0267,2.0281,2.0869,2.0882,2.0869,2.1082,2.1109,2.1082,2.0989,2.1056,2.1109,2.1235,2.1109,2.1235,2.1614,2.1551,2.1706,2.2345,2.2781,2.3273,2.3741,2.4235,2.4543,2.4636,2.4636,2.4636,2.4636,2.4636,2.4636,2.4636,2.4636,2.4636,2.4636,2.4636,2.4636,2.4636,2.4636,2.4636,2.4663,2.5077,2.5358,2.5571,2.6159,2.6386,2.6386,2.6386,2.6386,2.6386,0.0,0.0,0.0,0.0,0.0,0.0,0.0,0.0,-0.1389,-0.1389,-0.1523,-0.1657,0.0,0.0,0.0,-0.166,-0.1657,0.0,-0.1608,-0.1616,-0.1695,-0.1875,-0.1916,-0.2033,-0.217,-0.2245,-0.1753,-0.0704,-0.0799,-0.0087,0.1264,0.0,0.0,0.1717,0.0,0.2532,0.3333,0.3523,0.4143,0.4956,0.5372,0.554,0.5683,0.0,0.0,0.0,0.0,0.0,0.0,0.0,0.0,0.0,0.7212,0.9448,1.2194,1.1697,1.3407,1.5551,1.6259,1.6526,1.682,1.7649,1.8223,1.8771,1.9533,1.984,2.012,2.0655,2.0575,2.0521,2.0869,2.0895,2.0909,2.1082,2.1109,2.1109,2.1109,2.1109,2.1109,2.1109,2.1109,2.1235,2.1362,2.1504,2.1854,2.2389,2.3023,2.35,2.3928,2.4382,2.4636,2.4636,2.4636,2.4636,2.4636,2.4636,2.4636,2.4636,2.4636,2.4636,2.4636,2.4636,2.4636,2.4636,2.4636,2.4636,2.4676,2.5277,2.5518,2.5571,2.6159,2.6386,2.6386,2.6386,2.6386,2.6386,0.0,0.0,0.0,0.0,0.0,0.0,0.0,-0.1165,-0.1344,-0.1389,-0.1389,-0.1389,0.0,0.0,0.0,-0.1389,-0.1389,-0.1436,-0.1599,-0.1613,-0.1689,-0.1858,-0.188,-0.1935,-0.2092,-0.1763,-0.1205,-0.0484,-0.0582,0.0,0.0,0.0,0.1362,0.1467,0.0,0.2242,0.0,0.3231,0.4156,0.5212,0.5547,0.5947,0.635,0.64,0.0,0.0,0.0,0.0,0.0,0.0,0.0,0.0,0.7161,0.9163,1.1775,1.1952,1.3615,1.5565,1.6366,1.686,1.7208,1.7475,1.7862,1.8517,1.988,2.0227,2.0294,2.0374,2.0548,2.0695,2.0748,2.0949,2.1109,2.1109,2.1109,2.1109,2.1109,2.1109,2.1109,2.1109,2.1109,2.1109,2.1109,2.143,2.1857,2.2378,2.3033,2.3634,2.4168,2.4476,2.4636,2.4636,2.4636,2.4636,2.4636,2.4636,2.4636,2.4636,2.4636,2.4636,2.4636,2.4636,2.4636,2.4636,2.4636,2.4636,2.4676,2.5277,2.5518,2.5571,2.6159,2.6386,2.6386,2.6386,2.6386,2.6386,0.0,0.0,0.0,0.0,0.0,0.0,-0.0805,-0.0939,-0.112,-0.1344,-0.1389,-0.1389,-0.1389,-0.1389,0.0,-0.1389,-0.1389,-0.142,-0.154,-0.1589,-0.1654,-0.1738,-0.1465,-0.1389,-0.149,-0.1063,-0.0517,0.0154,0.0083,0.0424,0.0,0.0,0.0,0.1814,0.0,0.2654,0.0,0.4143,0.4592,0.5278,0.5924,0.6051,0.58,0.6125,0.6219,0.0,0.0,0.0,0.0,0.0,0.0,0.0,0.7085,0.9163,1.1702,1.1449,1.3322,1.5431,1.5631,1.6393,1.7168,1.7221,1.817,1.9225,1.9773,2.0254,2.0775,2.147,2.1109,2.0815,2.1283,2.1229,2.1109,2.1109,2.1109,2.1109,2.1109,2.1109,2.1109,2.1109,2.1109,2.1235,2.1488,2.1921,2.2418,2.2807,2.3547,2.4062,2.4195,2.4476,2.4636,2.4636,2.4636,2.4636,2.4636,2.4636,2.4636,2.4636,2.4636,2.4636,2.4636,2.4636,2.4636,2.4636,2.4636,2.4636,2.4676,2.5277,2.5518,2.5571,2.6159,2.6386,2.6386,2.6386,2.6386,2.6386,0.0,0.0,0.0,0.0,0.0,0.0,0.0,0.0,-0.076,-0.112,-0.1165,-0.121,-0.1389,-0.1389,0.0,0.0,-0.1389,-0.1415,-0.1473,-0.1553,-0.161,-0.1703,-0.1388,-0.1225,-0.1264,-0.0534,0.0,0.0358,0.0542,0.0887,0.0,0.0,0.0,0.1871,0.0,0.282,0.0,0.0,0.4853,0.5742,0.6146,0.6158,0.6005,0.6246,0.6172,0.6072,0.5921,0.0,0.0,0.0,0.0,0.0,0.0,0.0,1.0605,1.0699,1.2719,1.486,1.5222,1.6077,1.7074,1.7649,1.8584,1.9479,1.9907,2.0347,2.0842,2.1443,2.1203,2.0975,2.1283,2.1216,2.1109,2.1109,2.1109,2.1109,2.1109,2.1109,2.1109,2.1109,2.1109,2.1109,2.1362,2.1907,2.2459,2.2876,2.3614,2.4115,2.4396,2.4556,2.4636,2.4636,2.4636,2.4636,2.4636,2.4636,2.4636,2.4636,2.4636,2.4636,2.4636,2.4636,2.4636,2.4636,2.4636,2.4636,2.4676,2.5277,2.5518,2.5571,2.6159,2.6386,2.6386,2.6386,2.6386,2.6386,0.0,0.0,0.0,0.0,0.0,0.0,0.0,0.0,0.0,-0.076,-0.085,-0.0984,-0.121,-0.1344,-0.1389,0.0,0.0,0.0,-0.1457,-0.1423,-0.1479,-0.1594,-0.1183,-0.0991,-0.1001,-0.0063,0.0396,0.04,0.0909,0.119,0.0,0.0,0.0,0.195,0.0,0.0,0.0,0.0,0.0,0.0,0.0,0.0,0.0,0.0,0.0,0.6018,0.5953,0.6088,0.6211,0.6211,0.0,0.0,0.0,0.0,0.9373,1.0045,1.1866,1.3963,1.4826,1.5973,1.7194,1.829,1.9011,1.9586,2.0107,2.0468,2.0762,2.1042,2.1109,2.1109,2.1109,2.1109,2.1109,2.1109,2.1109,2.1109,2.1109,2.1109,2.1109,2.1109,2.1149,2.1162,2.1109,2.1737,2.2338,2.2819,2.3474,2.4075,2.4609,2.4636,2.4636,2.4636,2.4636,2.4636,2.4636,2.4636,2.4636,2.4636,2.4636,2.4636,2.4636,2.4636,2.4636,2.4636,2.4636,2.4636,2.4676,2.5277,2.5518,2.5571,2.6159,2.6386,2.6386,2.6386,2.6386,2.6386,0.0,0.0,0.0,0.0,0.0,0.0,0.0,0.0,0.0,0.0,-0.0716,-0.0805,-0.0582,-0.1073,-0.1299,-0.0984,-0.1254,-0.1391,-0.1399,0.0,0.0,-0.1274,-0.0429,-0.0,-0.0059,0.0537,0.0864,0.0909,0.0982,0.0,0.0,0.0,0.0,0.195,0.0,0.0,0.0,0.0,0.0,0.0,0.0,0.0,0.0,0.0,0.0,0.653,0.6285,0.6186,0.6211,0.6211,0.6227,0.0,0.0,0.0,0.8896,0.9659,1.1107,1.2757,1.44,1.6253,1.8023,1.8704,1.9305,1.9826,2.016,2.0468,2.0762,2.1042,2.1109,2.1109,2.1109,2.1109,2.1109,2.1109,2.1109,2.1109,2.1109,2.1109,2.1109,2.1109,2.1336,2.139,2.1136,2.2098,2.2779,2.2859,2.3661,2.4289,2.4623,2.4636,2.4636,2.4636,2.4636,2.4636,2.4636,2.4636,2.4636,2.4636,2.4636,2.4636,2.4636,2.4636,2.4636,2.4636,2.4636,2.4636,2.4676,2.5277,2.5518,2.5571,2.6159,2.6386,2.6386,2.6386,2.6386,2.6386,0.0,0.0,0.0,0.0,0.0,0.0,0.0,0.0,0.0,0.0,0.0,-0.0314,-0.0403,-0.0671,-0.076,-0.0626,-0.076,-0.085,-0.085,-0.0744,-0.0676,-0.075,-0.0153,0.0105,0.0108,0.0619,0.0931,0.0957,0.1009,0.0,0.0,0.1515,0.1871,0.0,0.0,0.0,0.0,0.0,0.0,0.0,0.0,0.0,0.0,0.0,0.0,0.0,0.0,0.0,0.6733,0.6703,0.6597,0.6465,0.6522,0.0,0.0,0.0,1.005,1.218,1.4552,1.6418,1.7969,1.8731,1.9239,1.9639,1.992,2.0347,2.0708,2.0842,2.1002,2.1109,2.1109,2.1109,2.1109,2.1109,2.1109,2.1109,2.1109,2.1109,2.1109,2.1109,2.1229,2.1256,2.1122,2.1871,2.2512,2.2832,2.3541,2.4155,2.4609,2.4636,2.4636,2.4636,2.4636,2.4636,2.4636,2.4636,2.4636,2.4636,2.4636,2.4636,2.4636,2.4636,2.4636,2.4636,2.4636,2.4636,2.4676,2.5277,2.5518,2.5571,2.6159,2.6386,2.6386,2.6386,2.6386,2.6386,0.0,0.0,0.0,0.0,0.0,0.0,0.0,0.0,0.0,0.0,0.0,0.0135,-0.009,0.0,0.0,0.0,-0.0358,-0.0403,-0.0403,-0.0323,-0.0234,-0.0234,0.0096,0.0246,0.0298,0.0682,0.0871,0.0886,0.0,0.0,0.1215,0.1785,0.2307,0.0,0.3553,0.0,0.0,0.0,0.0,0.0,0.0,0.0,0.0,0.0,0.0,0.0,0.0,0.0,0.7521,0.7253,0.7041,0.6855,0.6627,0.7147,0.0,0.0,0.0,1.2046,1.3899,1.5981,1.7742,1.8079,1.8691,1.9332,1.9626,2.008,2.0494,2.0641,2.0855,2.1029,2.1096,2.1109,2.1109,2.1109,2.1109,2.1109,2.1109,2.1109,2.1109,2.1109,2.1176,2.1216,2.1216,2.1817,2.2418,2.2939,2.3541,2.4102,2.4609,2.4636,2.4636,2.4636,2.4636,2.4636,2.4636,2.4636,2.4636,2.4636,2.4636,2.4636,2.4636,2.4636,2.4636,2.4636,2.4636,2.4636,2.4676,2.5277,2.5518,2.5571,2.6159,2.6386,2.6386,2.6386,2.6386,2.6386,0.0,0.0,0.0,0.0,0.0,0.0,0.0,0.0,0.0,0.0,0.0,0.0314,0.063,0.0,-0.0269,0.0135,-0.0179,-0.0403,-0.0403,-0.0045,0.018,0.018,0.0497,0.0,0.0766,0.077,0.0849,0.0,0.0,0.0,0.115,0.2119,0.2944,0.3637,0.4603,0.5804,0.7094,0.0,0.0,0.0,0.0,0.0,0.0,0.0,0.0,0.8982,0.8633,0.0,0.0,0.7894,0.7594,0.7382,0.7105,0.7007,0.7097,0.0,0.0,0.0,1.1572,1.4383,1.7384,1.6349,1.752,1.9025,1.9319,1.9626,2.0,2.0561,2.0681,2.0788,2.1056,2.1109,2.1109,2.1109,2.1109,2.1109,2.1109,2.1109,2.1109,2.1109,2.1363,2.1537,2.1537,2.2311,2.2953,2.3273,2.3848,2.4315,2.4623,2.4636,2.4636,2.4636,2.4636,2.4636,2.4636,2.4636,2.4636,2.4636,2.4636,2.4636,2.4636,2.4636,2.4636,2.4636,2.4636,2.4636,2.4676,2.5277,2.5518,2.5571,2.6159,2.6386,2.6386,2.6386,2.6386,2.6386,0.0,0.0,0.0,0.0,0.0,0.0,0.0,0.0,0.0,0.0,0.0,0.0,0.0,0.0532,0.0432,0.0562,0.041,0.0314,0.0314,0.0449,0.0,0.054,0.063,0.0725,0.0735,0.0755,0.0,0.0,0.0,0.1174,0.1747,0.2581,0.363,0.4826,0.5297,0.6185,0.7337,0.7816,0.0,0.0,0.0,0.0,0.0,0.0,0.9169,0.9218,0.8861,0.0,0.0,0.8105,0.7805,0.7602,0.7236,0.7204,0.7517,0.8348,1.0471,1.2434,1.2204,1.3803,1.5569,1.6135,1.6782,1.7738,1.9097,1.9586,1.9973,2.0561,2.0681,2.0762,2.1056,2.1109,2.1109,2.1109,2.1109,2.1109,2.1109,2.1109,2.1109,2.1109,2.1203,2.1336,2.1537,2.2178,2.2792,2.3287,2.3875,2.4329,2.4623,2.4636,2.4636,2.4636,2.4636,2.4636,2.4636,2.4636,2.4636,2.4636,2.4636,2.4636,2.4636,2.4636,2.4636,2.4636,2.4636,2.4636,2.4676,2.5277,2.5518,2.5571,2.6159,2.6386,2.6386,2.6386,2.6386,2.6386,0.0,0.0,0.0,0.1958,0.0,0.1606,0.1118,0.1051,0.0,0.0,0.0,0.0,0.0,0.0,0.0799,0.0781,0.0753,0.0735,0.0735,0.0725,0.072,0.072,0.072,0.072,0.072,0.0,0.0,0.0,0.0,0.0,0.0,0.3303,0.4377,0.5402,0.6002,0.6715,0.0,0.0,0.0,0.8747,0.0,0.0,0.9291,0.0,0.96,0.9754,0.9397,0.9267,0.9194,0.8714,0.8438,0.8303,0.8196,0.8365,0.8774,0.931,1.0702,1.202,1.1763,1.3059,1.4545,1.5281,1.6355,1.7559,1.8818,1.9452,1.9933,2.0428,2.0454,2.0535,2.1015,2.1029,2.1002,2.1096,2.1109,2.1109,2.1109,2.1109,2.1149,2.1243,2.1162,2.1309,2.1804,2.2191,2.2712,2.342,2.3928,2.4329,2.4623,2.4636,2.4636,2.4636,2.4636,2.4636,2.4636,2.4636,2.4636,2.4636,2.4636,2.4636,2.4636,2.4636,2.4636,2.4636,2.4636,2.4636,2.4676,2.5277,2.5518,2.5571,2.6159,2.6386,2.6386,2.6386,2.6386,2.6386,0.0,0.286,0.2533,0.2544,0.2515,0.2307,0.1799,0.1663,0.1465,0.0,0.0,0.0,0.0,0.0,0.0,0.081,0.0831,0.0814,0.0813,0.0736,0.072,0.072,0.0,0.0,0.0,0.0,0.0,0.0,0.0,0.0,0.0,0.0,0.5134,0.5482,0.6623,0.743,0.8008,0.0,0.8235,0.8617,0.9145,0.9462,0.9657,1.0014,1.0371,1.0631,1.0282,1.016,1.0103,0.9746,0.9502,0.9552,1.0061,1.0595,1.0941,1.0308,1.0836,1.1316,0.0,0.0,0.0,1.3713,1.6074,1.8464,1.8464,1.9158,1.988,2.0147,2.0,2.008,2.0935,2.0869,2.0775,2.1069,2.1109,2.1109,2.1109,2.1109,2.1216,2.151,2.1283,2.1443,2.2311,2.2405,2.2792,2.3688,2.4035,2.4329,2.4623,2.4636,2.4636,2.4636,2.4636,2.4636,2.4636,2.4636,2.4636,2.4636,2.4636,2.4636,2.4636,2.4636,2.4636,2.4636,2.4636,2.4636,2.4676,2.5264,2.5504,2.5571,2.6146,2.6386,2.6386,2.6386,2.6386,2.6386,0.3985,0.3823,0.3585,0.3289,0.2771,0.2286,0.1758,0.1369,0.1036,0.0,0.0,0.0,0.0,0.0,0.0,0.1581,0.1494,0.1425,0.1386,0.1148,0.0986,0.0986,0.0808,0.072,0.072,0.0,0.0,0.0,0.0,0.0,0.0,0.0,0.0,0.0,0.6729,0.7374,0.7845,0.8105,0.0,0.8787,0.9194,0.938,0.947,0.9827,1.0103,1.0282,1.0046,1.0046,1.0087,0.96,1.0061,1.0913,1.1538,1.2023,1.2159,1.1083,1.1483,1.2049,1.0386,0.0,0.0,0.0,0.0,0.0,1.7622,1.8851,1.976,1.9639,1.988,2.0254,2.0708,2.0735,2.0775,2.1069,2.1109,2.1109,2.1109,2.1109,2.1136,2.1229,2.1162,2.1283,2.175,2.2178,2.2712,2.3394,2.3915,2.4329,2.4623,2.4636,2.4636,2.4636,2.4636,2.4636,2.4636,2.4636,2.4636,2.4636,2.4636,2.4636,2.4636,2.4636,2.4636,2.4636,2.4636,2.4636,2.4663,2.505,2.5317,2.5545,2.5932,2.6199,2.6386,2.6386,2.6386,2.6386,0.4369,0.4314,0.4241,0.4113,0.3789,0.3399,0.2957,0.2673,0.241,0.0,0.0,0.0,0.0,0.0,0.0,0.0,0.1893,0.1925,0.2094,0.179,0.1678,0.1836,0.1601,0.1449,0.1428,0.0,0.0,0.0,0.0,0.0,0.0,0.0,0.0,0.0,0.0,0.7327,0.7789,0.8219,0.8528,0.8755,0.9185,0.9445,0.9608,0.9892,1.0249,1.0574,1.0314,1.0648,1.1283,1.075,1.1625,1.2758,1.2769,1.3332,1.3649,1.2221,1.2377,0.0,0.0,1.2075,1.2972,1.3618,0.0,0.0,1.7769,1.8731,1.9492,1.9693,1.9907,2.0187,2.0601,2.0681,2.0775,2.1069,2.1109,2.1109,2.1109,2.1109,2.1203,2.1443,2.1363,2.151,2.2044,2.2298,2.2672,2.3273,2.3647,2.4022,2.4436,2.4569,2.4636,2.4636,2.4636,2.4636,2.4636,2.4636,2.4636,2.4636,2.4636,2.4636,2.4636,2.4636,2.4636,2.4636,2.4636,2.4636,2.4649,2.4823,2.5144,2.5545,2.5838,2.6132,2.6386,2.6386,2.6386,2.6386,0.0,0.4542,0.463,0.4891,0.4979,0.4945,0.4687,0.4675,0.4532,0.0,0.0,0.0,0.0,0.0,0.0,0.0,0.2448,0.2576,0.304,0.2742,0.2649,0.3024,0.2787,0.2636,0.2459,0.2446,0.0,0.0,0.0,0.0,0.0,0.0,0.0,0.0,0.6717,0.7327,0.7797,0.8316,0.8593,0.8731,0.9194,0.9575,0.9884,1.0103,1.0607,1.1159,1.097,1.1842,1.2952,1.2879,1.375,1.4712,1.4027,1.4618,1.5233,1.3619,1.3375,0.0,0.0,0.0,0.0,1.4521,1.5959,0.0,1.8023,1.8517,1.9025,1.9746,1.9786,1.988,2.0468,2.0575,2.0708,2.1096,2.1109,2.1082,2.1149,2.1162,2.1349,2.1871,2.171,2.1857,2.2645,2.2498,2.2619,2.3233,2.334,2.3607,2.4128,2.4436,2.4596,2.4596,2.4623,2.4636,2.4636,2.4636,2.4636,2.4636,2.4636,2.4636,2.4636,2.4636,2.4636,2.4636,2.4636,2.4636,2.4636,2.4636,2.4983,2.5545,2.5798,2.6106,2.6386,2.6386,2.6386,2.6386,0.4581,0.4723,0.4922,0.5231,0.4949,0.4706,0.4964,0.4607,0.4314,0.0,0.0,0.0,0.0,0.0,0.0,0.0,0.0,0.4755,0.4711,0.4165,0.384,0.3925,0.3458,0.3084,0.2965,0.2828,0.264,0.0,0.0,0.0,0.0,0.0,0.0,0.0,0.6708,0.7327,0.7789,0.8178,0.8763,0.9429,0.9535,0.9616,0.973,1.0201,1.0647,1.1142,1.2221,1.2833,1.3315,1.53,1.566,1.5536,1.6215,1.6465,1.6091,1.4328,1.4011,1.4087,1.3017,1.3275,1.406,1.4292,1.5566,0.0,1.642,1.7301,1.8103,1.7809,1.8464,1.9279,1.9867,1.9973,2.0294,2.1309,2.1069,2.0922,2.1403,2.147,2.151,2.163,2.159,2.1617,2.179,2.1964,2.2311,2.2913,2.3407,2.3728,2.3848,2.4128,2.4289,2.4289,2.4516,2.4636,2.4636,2.4636,2.4636,2.4636,2.4636,2.4636,2.4636,2.4636,2.4636,2.4636,2.4636,2.4636,2.4636,2.4636,2.4983,2.5518,2.5571,2.5919,2.6386,2.6386,2.6386,2.6386,0.4813,0.4916,0.5139,0.5553,0.5476,0.5524,0.6055,0.5947,0.5894,0.0,0.0,0.0,0.0,0.0,0.0,0.0,0.0,0.0,0.595,0.5379,0.5105,0.5206,0.4736,0.4378,0.407,0.3833,0.3591,0.3362,0.0,0.0,0.0,0.0,0.0,0.0,0.0,0.7586,0.8438,0.8617,0.9104,0.9754,0.9754,0.9973,1.0322,1.0599,1.1037,1.1618,1.2199,1.3245,1.4613,1.7025,1.7431,1.6817,1.6676,1.6847,1.679,1.5072,1.507,1.5414,1.4641,1.4659,1.4879,1.5032,1.566,0.0,0.0,1.6941,1.7408,1.7569,1.8063,1.8651,1.9252,1.9359,1.9706,2.0735,2.0775,2.0775,2.1069,2.1243,2.139,2.1537,2.155,2.1617,2.175,2.1897,2.2164,2.2605,2.306,2.338,2.3541,2.3968,2.4209,2.4209,2.4489,2.4636,2.4636,2.4636,2.4636,2.4636,2.4636,2.4636,2.4636,2.4636,2.4636,2.4636,2.4636,2.4636,2.4636,2.4636,2.4983,2.5518,2.5518,2.5865,2.6386,2.6386,2.6386,2.6386,0.5076,0.5133,0.5344,0.5848,0.6109,0.6454,0.7122,0.739,0.7629,0.0,0.0,0.0,0.0,0.0,0.0,0.0,0.0,0.0,0.7163,0.6696,0.6456,0.658,0.6238,0.5758,0.5328,0.5049,0.4761,0.4351,0.0,0.0,0.0,0.0,0.0,0.0,0.0,0.0,0.0,0.0,0.9567,0.9989,1.003,1.0667,1.1515,1.1473,1.2181,1.3084,1.3143,1.459,1.6796,1.8816,1.8937,1.8154,1.7194,1.727,1.7623,1.62,1.6304,1.6807,1.6526,1.6219,1.5979,1.5925,1.5912,1.6086,0.0,0.0,0.0,1.7542,1.7742,1.7943,1.8557,1.8664,1.8918,1.9679,2.0067,2.0254,2.0254,2.0601,2.1002,2.1416,2.1617,2.1764,2.1897,2.2111,2.2271,2.2338,2.2766,2.3073,2.3153,2.3768,2.4115,2.4115,2.4449,2.4636,2.4636,2.4636,2.4636,2.4636,2.4636,2.4636,2.4636,2.4636,2.4636,2.4636,2.4636,2.4636,2.4636,2.4636,2.4983,2.5518,2.5518,2.5865,2.6386,2.6386,2.6386,2.6386,0.5173,0.5336,0.5669,0.6042,0.635,0.6846,0.7374,0.7626,0.7935,0.0,0.0,0.0,0.0,0.0,0.0,0.0,0.0,0.8987,0.8834,0.8496,0.8207,0.8081,0.7379,0.6865,0.6534,0.5994,0.5439,0.4815,0.4969,0.0,0.0,0.0,0.0,0.0,0.774,0.0,0.0,0.0,1.0168,1.0387,1.0542,1.1819,1.3606,1.3412,1.4806,1.711,1.8117,1.9215,2.0274,2.1157,2.0621,1.9584,1.9815,1.93,1.8651,1.7941,1.7583,1.7422,1.7128,1.6834,1.654,1.6286,1.6219,1.6179,1.6019,0.0,1.6032,1.6393,0.0,1.7034,1.7622,0.0,0.0,1.8237,1.8544,1.8744,1.8744,1.9439,2.0254,2.1069,2.1844,2.2124,2.1657,2.2552,2.2859,2.2084,2.3046,2.3327,2.2565,2.334,2.3821,2.3821,2.4356,2.4636,2.4636,2.4636,2.4636,2.4636,2.4636,2.4636,2.4636,2.4636,2.4636,2.4636,2.4636,2.4636,2.4636,2.4636,2.4983,2.5518,2.5518,2.5865,2.6386,2.6386,2.6386,2.6386,0.5612,0.575,0.6034,0.6392,0.6757,0.7179,0.7707,0.8122,0.8455,0.0,0.0,0.0,0.0,0.0,0.0,0.0,0.9315,0.9324,0.925,0.8909,0.0,0.8146,0.7845,0.7379,0.6682,0.6456,0.6051,0.5342,0.5478,0.5549,0.0,0.0,0.0,0.0,0.804,0.0,0.9354,1.0593,1.1207,1.1331,1.2983,1.468,1.5929,1.457,1.5544,1.7805,1.8814,1.964,2.0254,2.0911,2.0976,2.0534,2.0137,1.9956,1.9786,1.9025,1.8597,1.8263,1.7796,1.7448,1.7101,1.6633,1.6526,1.6446,1.6152,1.5952,1.5872,1.5992,0.0,0.0,0.0,0.0,0.0,0.0,1.8023,1.8156,1.7983,1.8878,1.9746,2.0281,2.0975,2.1376,2.1296,2.2525,2.2953,2.2058,2.31,2.3447,2.2712,2.338,2.3768,2.3768,2.4329,2.4636,2.4636,2.4636,2.4636,2.4636,2.4636,2.4636,2.4636,2.4636,2.4636,2.4636,2.4636,2.4636,2.4636,2.4636,2.4983,2.5518,2.5518,2.5865,2.6386,2.6386,2.6386,2.6386,0.6197,0.6205,0.6302,0.6562,0.6993,0.7496,0.8073,0.8536,0.8877,0.9023,0.9307,0.9453,0.9324,0.9721,0.99,0.9673,0.9738,0.9778,0.9721,0.9478,0.9112,0.8625,0.8414,0.799,0.7398,0.7096,0.6643,0.604,0.6012,0.5966,0.591,0.6181,0.0,0.0,0.0,0.8966,0.987,1.1185,1.162,1.1728,1.4202,1.6349,1.7982,1.6959,1.7337,1.8617,1.9814,2.0375,2.0695,2.1348,2.1418,2.1204,2.0828,2.0659,2.0548,1.9907,1.9399,1.8945,1.8517,1.813,1.7702,1.7194,1.7074,1.6994,1.67,1.6406,1.6166,1.6086,1.6005,0.0,0.0,0.0,1.6313,1.678,0.0,1.7408,1.7034,1.8009,1.8931,1.9386,2.0094,2.0695,2.1069,2.2458,2.2953,2.2058,2.3166,2.3554,2.2779,2.3394,2.3768,2.3768,2.4329,2.4636,2.4636,2.4636,2.4636,2.4636,2.4636,2.4636,2.4636,2.4636,2.4636,2.4636,2.4636,2.4636,2.4636,2.4636,2.4983,2.5518,2.5518,2.5865,2.6386,2.6386,2.6386,2.6386,0.6958,0.6643,0.6416,0.6424,0.7009,0.7715,0.8438,0.8706,0.9007,0.9535,0.9754,0.9868,0.986,1.0493,1.0785,1.0428,1.072,1.0842,1.0664,1.0639,1.0469,1.0111,0.9429,0.9056,0.9031,0.8,0.7293,0.6928,0.6578,0.6408,0.64,0.6229,0.6822,0.8048,0.8755,0.9185,0.9453,1.0672,1.1013,1.088,1.279,1.5806,1.95,2.1538,2.1692,2.0943,2.2466,2.2966,2.301,2.3427,2.262,2.174,2.2328,2.174,2.0668,2.0641,2.0027,1.9345,1.9332,1.8905,1.8384,1.8076,1.8009,1.7916,1.7609,1.7315,1.7021,1.674,1.6446,1.6179,1.5912,1.5845,1.5671,1.5137,1.5765,0.0,0.0,1.6473,1.7555,1.8424,1.9546,2.0468,2.1056,2.2458,2.2953,2.2058,2.3354,2.3674,2.2498,2.3287,2.3768,2.3768,2.4329,2.4636,2.4636,2.4636,2.4636,2.4636,2.4636,2.4636,2.4636,2.4636,2.4636,2.4636,2.4636,2.4636,2.4636,2.4636,2.4983,2.5518,2.5518,2.5865,2.6386,2.6386,2.6386,2.6386,0.7815,0.7308,0.6952,0.6952,0.7439,0.804,0.8641,0.8982,0.9324,0.9746,1.0063,1.029,1.0404,1.0745,1.0923,1.0802,1.0899,1.0891,1.0704,1.0688,1.0428,0.9835,0.9575,0.9226,0.8755,0.8268,0.778,0.7301,0.7179,0.7001,0.6773,0.683,0.7277,0.804,0.935,0.994,1.0035,1.2196,1.3107,1.3536,1.6377,1.892,2.0928,2.042,2.094,2.2048,2.2133,2.2369,2.252,2.2623,2.2291,2.195,2.1964,2.1601,2.1216,2.1015,2.0615,2.0187,1.9987,1.9653,1.9239,1.8744,1.8771,1.8798,1.829,1.8103,1.7889,1.7395,1.7061,1.6647,1.5952,1.5992,1.5939,1.5351,1.5658,1.5845,0.0,1.5899,1.646,1.6967,1.841,1.9599,2.0187,2.1924,2.2806,2.2311,2.3474,2.3768,2.2766,2.3193,2.338,2.318,2.3941,2.4356,2.4356,2.4543,2.4636,2.4636,2.4636,2.4636,2.4636,2.4636,2.4636,2.4636,2.4636,2.4636,2.4649,2.485,2.5157,2.5531,2.5732,2.6039,2.6386,2.6386,2.6386,2.6386,0.8935,0.8532,0.8058,0.7393,0.7813,0.8349,0.8755,0.9177,0.9575,0.9933,1.0355,1.0688,1.0858,1.1102,1.1232,1.1167,1.1159,1.1135,1.1078,1.1013,1.0777,1.0314,1.0111,0.9795,0.9332,0.8836,0.8406,0.8057,0.774,0.7464,0.7311,0.7516,0.8035,0.88,1.0212,1.0839,1.1098,1.327,1.4364,1.4886,1.8314,2.0579,2.1948,2.0748,2.1603,2.3276,2.2523,2.2457,2.2667,2.255,2.24,2.2187,2.174,2.1548,2.1316,2.0882,2.0668,2.0481,2.0281,2.0094,1.9867,1.9479,1.9452,1.9452,1.9172,1.8945,1.8664,1.8156,1.7836,1.7422,1.6727,1.6593,1.646,1.6086,1.6005,1.5885,0.0,1.5712,1.5899,1.6086,1.7502,1.8758,1.9573,2.1122,2.2178,2.2405,2.3233,2.342,2.2739,2.31,2.318,2.2873,2.3741,2.4209,2.4209,2.4489,2.4636,2.4636,2.4636,2.4636,2.4636,2.4636,2.4636,2.4636,2.4636,2.4636,2.4663,2.4957,2.5251,2.5545,2.5838,2.6132,2.6386,2.6386,2.6386,2.6386,1.0384,1.0275,0.9601,0.7915,0.8188,0.8714,0.8804,0.9307,0.9795,1.0152,1.0664,1.1062,1.124,1.1565,1.1695,1.1524,1.1508,1.1581,1.1752,1.1614,1.1516,1.1484,1.0997,1.0712,1.0688,0.9673,0.9129,0.9206,0.832,0.7957,0.7923,0.8307,0.9115,1.0193,1.1316,1.2005,1.2436,1.3954,1.4635,1.5037,1.8529,2.0967,2.2731,2.2675,2.3457,2.4437,2.3442,2.3281,2.3501,2.3179,2.2827,2.2534,2.1864,2.1547,2.1136,2.0483,2.0281,2.0281,2.0281,2.0267,2.0254,2.0254,2.0054,1.9933,2.0187,1.984,1.9372,1.9052,1.8758,1.845,1.8076,1.7595,1.7208,1.7141,1.6633,1.6152,1.5885,1.5832,1.5818,1.5832,1.686,1.8009,1.9172,2.008,2.1096,2.2285,2.2672,2.2739,2.2458,2.2993,2.3166,2.2846,2.3714,2.4195,2.4209,2.4502,2.4663,2.4663,2.4649,2.4636,2.4636,2.4636,2.4636,2.4636,2.4636,2.4636,2.4663,2.497,2.5264,2.5545,2.5852,2.6146,2.6386,2.6386,2.6386,2.6386,1.2116,1.1617,1.0783,0.9611,0.9542,0.9456,0.9066,0.9713,1.0355,1.0712,1.111,1.1484,1.1792,1.1671,1.1606,1.1695,1.1703,1.1671,1.1573,1.1776,1.1711,1.1313,1.1159,1.0964,1.0696,1.003,0.9943,1.0414,0.9858,0.9771,1.0028,0.9896,1.0188,1.1068,1.2545,1.3492,1.4088,1.5696,1.7014,1.8275,2.0873,2.2426,2.3345,2.3384,2.3852,2.4408,2.3179,2.2798,2.2828,2.252,2.232,2.2248,2.2039,2.1934,2.1728,2.1409,2.1257,2.1132,2.0882,2.0722,2.0561,2.0561,2.0668,2.0735,2.0588,2.0615,2.0521,2.0,1.9666,1.9172,1.8196,1.8263,1.8103,1.6994,1.6326,1.5992,1.6139,1.5778,1.5591,1.5805,1.6673,1.7462,1.7996,1.9052,2.0281,2.167,2.2445,2.2832,2.2752,2.2899,2.2846,2.2539,2.3407,2.3981,2.4195,2.4716,2.497,2.4957,2.4743,2.4636,2.4636,2.4636,2.4636,2.4636,2.4636,2.4636,2.4676,2.5184,2.5451,2.5558,2.6079,2.6319,2.6386,2.6386,2.6386,2.6386,1.3539,1.3281,1.279,1.2147,1.2106,1.1637,1.0269,1.1337,1.2181,1.1603,1.2543,1.314,1.2856,1.2621,1.2525,1.2717,1.2734,1.2638,1.2454,1.2572,1.2291,1.1817,1.1736,1.1533,1.1175,1.0712,1.067,1.1116,1.0716,1.0741,1.1134,1.1453,1.1873,1.261,1.4205,1.5164,1.5649,1.7505,1.924,2.0889,2.2384,2.3305,0.0,2.391,2.4247,2.4466,2.3735,2.3384,2.3237,2.3062,2.2995,2.2957,2.2434,2.2352,2.2187,2.1658,2.1438,2.1409,2.1173,2.102,2.0869,2.0869,2.0895,2.0909,2.0869,2.0895,2.0828,2.0494,2.0294,1.9973,1.9305,1.9345,1.9092,1.7876,1.7074,1.6607,1.6647,1.6259,1.5979,1.6019,1.658,1.6967,1.7007,1.8557,2.0107,2.1456,2.2124,2.2485,2.2485,2.2726,2.2726,2.2432,2.318,2.3834,2.4382,2.4596,2.4823,2.5077,2.4783,2.4636,2.4636,2.4636,2.4636,2.4636,2.4636,2.4716,2.4863,2.5317,2.5585,2.5758,2.6213,2.6386,2.6386,2.6386,2.6386,2.6386,1.4638,1.4952,1.5187,1.4942,1.5263,1.4815,1.2445,1.3561,1.4151,1.2639,1.4055,1.4861,1.4127,1.3844,1.3807,1.4014,1.4024,1.3936,1.3532,1.3418,1.3147,1.2523,1.241,1.2182,1.1849,1.1618,1.1646,1.1882,1.1711,1.1823,1.2248,1.3185,1.3886,1.4463,1.6021,1.7062,1.7623,1.9575,2.1235,2.2803,2.325,2.358,2.3662,2.432,2.4569,2.4569,2.4613,2.4423,2.4145,2.4101,2.4086,2.3984,2.3174,2.2875,2.2634,2.1789,2.1477,2.1451,2.1245,2.1227,2.1216,2.1176,2.1002,2.0909,2.1162,2.1029,2.0842,2.0802,2.0788,2.0762,2.0695,2.0428,2.0013,1.9319,1.8424,1.7742,1.7528,1.7168,1.6847,1.6593,1.682,0.0,1.6593,1.8424,2.008,2.1189,2.171,2.2004,2.2044,2.2565,2.2739,2.2485,2.3033,2.3714,2.4516,2.4342,2.4516,2.5024,2.4756,2.4636,2.4636,2.4636,2.4636,2.4636,2.4636,2.481,2.5104,2.5398,2.5718,2.6039,2.6293,2.6386,2.6386,2.6386,2.6386,2.6386,1.5272,1.6429,1.7424,1.6782,1.8117,1.8655,1.7018,1.5199,1.3849,1.357,1.3899,1.4127,1.4232,1.4062,1.4014,1.4347,1.4366,1.402,1.3348,1.3471,1.3233,1.2361,1.2458,1.2426,1.2215,1.3092,1.4143,1.5119,1.5592,1.5894,1.6211,1.58,1.5763,1.5902,1.7184,1.8878,2.0963,2.2117,2.2582,2.2649,2.3276,2.3647,2.3662,2.432,2.4569,2.4613,2.4876,2.4759,2.4437,2.4174,2.4086,2.4057,2.3954,2.391,2.3708,2.2949,2.2936,2.295,2.1795,2.1929,2.2168,2.1666,2.1617,2.1764,2.1817,2.179,2.1683,2.1456,2.1403,2.1256,2.0762,2.0428,2.0347,2.0668,1.9786,1.9118,1.9305,1.8664,1.8156,1.8103,1.8357,1.8424,1.813,1.8477,1.9011,1.9693,2.1136,2.2084,2.2325,2.2672,2.2846,2.2779,2.314,2.3514,2.3915,2.4342,2.4609,2.4716,2.4663,2.4636,2.4636,2.4636,2.4636,2.4636,2.4636,2.481,2.5104,2.5398,2.5825,2.6319,2.6373,2.6386,2.6386,2.6386,2.6386,2.6386,1.6911,1.7918,1.8809,1.9029,1.9773,2.0164,1.9721,1.7962,1.631,1.546,1.5782,1.5971,1.5594,1.5286,1.5484,1.6327,1.6348,1.6391,1.6245,1.636,1.5987,1.4993,1.508,1.5032,1.4818,1.5226,1.5968,1.7031,1.7326,1.7469,1.7695,1.7795,1.7682,1.7426,1.857,2.0236,2.2175,2.2479,2.2812,2.3131,2.372,2.3852,2.3925,2.4569,2.4818,2.4847,2.4993,2.4949,2.4803,2.4642,2.4583,2.4554,2.4393,2.4335,2.4276,2.381,2.3436,2.3102,2.2535,2.2285,2.2214,2.1948,2.1884,2.1991,2.1991,2.1991,2.1951,2.1804,2.1657,2.147,2.1189,2.1136,2.1189,2.1309,2.0869,2.0441,2.0281,1.9626,1.9118,1.8958,1.9199,1.9078,1.833,1.8811,1.9479,2.0214,2.1203,2.1951,2.2392,2.2859,2.2953,2.2645,2.3086,2.3541,2.3995,2.4128,2.4409,2.4863,2.4716,2.4636,2.4636,2.4636,2.4636,2.4636,2.4636,2.489,2.5344,2.5785,2.6132,2.6386,2.6386,2.6386,2.6386,2.6386,2.6386,2.6386,1.8801,1.9405,2.0183,2.0968,2.1236,2.1218,2.1436,2.046,1.9211,1.7596,1.7972,1.8226,1.7404,1.7122,1.7474,1.847,1.862,1.8704,1.9024,1.9036,1.8512,1.7602,1.7602,1.7513,1.7312,1.7383,1.7772,1.848,1.8816,1.8698,1.8276,1.9348,1.9463,1.9045,2.0143,2.1423,2.2725,2.2623,2.3018,2.3735,2.4057,2.4232,2.4349,2.4862,2.5052,2.5052,2.5052,2.5052,2.5066,2.514,2.511,2.5008,2.4759,2.4671,2.4613,2.4276,2.3839,2.3459,2.3201,2.2786,2.2511,2.2457,2.2405,2.2365,2.2499,2.2499,2.2325,2.2191,2.1884,2.1643,2.1643,2.183,2.1977,2.1937,2.1777,2.159,2.1443,2.0748,2.0174,1.9947,2.0013,1.9693,1.8704,1.9439,2.0347,2.1229,2.1403,2.171,2.2298,2.2966,2.3113,2.2632,2.314,2.3647,2.4102,2.3941,2.4182,2.4796,2.469,2.4636,2.4636,2.4636,2.4636,2.4636,2.4636,2.497,2.5558,2.6079,2.6333,2.6386,2.6386,2.6386,2.6386,2.6386,2.6386,2.6386,2.0419,2.1072,2.173,2.2297,2.2923,2.3155,2.2494,2.2118,2.1229,1.9687,1.9296,1.9369,1.9387,1.9399,1.9487,1.989,1.9916,1.9661,1.9036,1.9036,1.864,1.7976,1.7976,1.7965,1.7942,1.9079,1.9827,1.9905,2.1383,2.1045,1.8804,2.0274,2.1042,2.1013,2.1701,2.2389,2.3106,2.3662,2.3954,2.4071,2.4393,2.4701,2.4964,2.5037,2.5052,2.5052,2.5052,2.5052,2.5096,2.5388,2.5286,2.5052,2.5022,2.5008,2.4949,2.4613,2.473,2.4698,2.3854,2.3912,2.408,2.3802,2.3748,2.3735,2.4004,2.3877,2.3447,2.2899,2.2338,2.1951,2.1951,2.1964,2.2245,2.3033,2.2472,2.2392,2.3688,2.2659,2.1764,2.1737,2.1296,2.0842,2.0468,2.0535,2.0962,2.183,2.143,2.1403,2.1991,2.2846,2.33,2.3247,2.3567,2.3754,2.3808,2.4048,2.4075,2.3901,2.4396,2.4636,2.4636,2.4636,2.4636,2.4636,2.4636,2.497,2.5545,2.5865,2.6146,2.6386,2.6386,2.6386,2.6386,2.6386,2.6386,2.6386,2.1569,2.195,2.2447,2.3091,2.3267,2.3281,2.3208,2.2716,2.2242,2.1797,2.0565,1.9914,1.9903,1.9916,2.0206,2.0956,2.0969,2.1096,2.1447,2.1447,2.1195,2.0803,2.0803,2.0803,2.0803,2.1146,2.1465,2.1894,2.2734,2.2399,2.0852,2.2067,2.2432,2.2067,2.214,2.2637,2.3398,2.3471,2.3837,2.4393,2.451,2.4759,2.5052,2.5052,2.5169,2.5344,2.5344,2.5461,2.5652,2.5783,2.5608,2.5374,2.5579,2.5637,2.5608,2.5476,2.5397,2.5302,2.4905,2.4691,2.4666,2.454,2.4553,2.4465,2.4309,2.4167,2.3917,2.322,2.2659,2.2191,2.2017,2.2271,2.2632,2.2993,2.2752,2.2779,2.3567,2.2552,2.1857,2.2205,2.2031,2.1643,2.1002,2.1577,2.1911,2.1737,2.183,2.2151,2.2752,2.33,2.3514,2.334,2.3621,2.3688,2.35,2.3968,2.4142,2.4035,2.4436,2.4636,2.4636,2.4636,2.4636,2.4649,2.4823,2.513,2.5531,2.5838,2.6132,2.6386,2.6386,2.6386,2.6386,2.6386,2.6386,2.6386,2.2389,2.255,2.2828,2.3486,2.3325,2.3179,2.3413,2.3135,2.2988,2.3223,2.206,2.1155,2.0982,2.0956,2.1222,2.1978,2.2062,2.2454,2.312,2.3193,2.3126,2.2875,2.2875,2.2918,2.3019,2.2788,2.287,2.3252,2.3574,2.3062,2.1759,2.2345,2.2667,2.2754,2.255,2.293,2.3735,2.3588,2.394,2.4583,2.4774,2.4993,2.5213,2.5301,2.5476,2.5666,2.5666,2.5827,2.6032,2.612,2.6003,2.5842,2.5974,2.6018,2.6018,2.6018,2.5877,2.5596,2.5596,2.5371,2.5158,2.53,2.5228,2.5142,2.4999,2.4856,2.4487,2.3917,2.31,2.2592,2.2298,2.2512,2.2792,2.2966,2.2846,2.2966,2.3621,2.2619,2.2124,2.2966,2.2846,2.2472,2.1937,2.2645,2.2832,2.2124,2.2539,2.2926,2.318,2.3554,2.3674,2.346,2.3741,2.3754,2.346,2.4035,2.4249,2.4075,2.4449,2.4636,2.4636,2.4636,2.4636,2.4649,2.4863,2.5117,2.5411,2.5705,2.5999,2.6266,2.636,2.6386,2.6386,2.6386,2.6386,2.6386,2.3032,2.2842,2.2828,2.3486,2.3325,2.3106,2.312,2.3384,2.3588,2.3588,2.3866,2.3823,2.3179,2.3106,2.3106,2.3106,2.3398,2.3457,2.3135,2.3413,2.3588,2.3588,2.3588,2.3735,2.4071,2.4071,2.391,2.3588,2.391,2.293,2.0735,2.0428,2.1291,2.3106,2.3106,2.3457,2.4101,2.4423,2.4554,2.4627,2.5257,2.552,2.5564,2.5886,2.6003,2.6018,2.6018,2.6018,2.6061,2.6383,2.65,2.6442,2.612,2.6018,2.6018,2.6018,2.6018,2.6018,2.6018,2.5968,2.5913,2.6357,2.6142,2.5932,2.6239,2.6078,2.5556,2.4946,2.3998,2.322,2.2913,2.2619,2.2619,2.322,2.2819,2.2939,2.4409,2.334,2.2953,2.4436,2.3848,2.3434,2.3714,2.3754,2.3634,2.3327,2.3581,2.35,2.2899,2.3447,2.3768,2.3768,2.4048,2.4062,2.3768,2.4342,2.4342,2.3781,2.4369,2.4636,2.4636,2.4636,2.4636,2.4636,2.4636,2.481,2.5104,2.5398,2.5692,2.5985,2.6279,2.6386,2.6386,2.6386,2.6386,2.6386,2.3706,2.3325,2.3164,2.3808,2.3662,2.3515,2.3735,2.3866,2.3925,2.3925,2.4218,2.4335,2.413,2.391,2.3779,2.3779,2.3866,2.3881,2.3779,2.3866,2.3925,2.3925,2.3925,2.3984,2.4086,2.4086,2.4027,2.3925,2.4481,2.4379,2.3662,2.312,2.3179,2.3779,2.3779,2.4013,2.4437,2.4759,2.5022,2.5257,2.5696,2.5857,2.5871,2.5974,2.6149,2.6354,2.6354,2.6486,2.6705,2.6793,2.6837,2.6822,2.672,2.6676,2.6676,2.6676,2.6676,2.6676,2.6676,2.6605,2.6692,2.6837,2.6765,2.6546,2.6399,2.5937,2.5464,2.5221,2.4589,2.4004,2.3895,2.3534,2.3407,2.3594,2.3113,2.2966,2.3647,2.2979,2.2592,2.3073,2.306,2.2819,2.2311,2.2806,2.3207,2.3313,2.3607,2.3688,2.3487,2.3474,2.3554,2.3768,2.346,2.334,2.3474,2.4048,2.4155,2.3781,2.4356,2.4636,2.4636,2.4636,2.4636,2.4636,2.4636,2.481,2.5104,2.5398,2.5692,2.5985,2.6279,2.6386,2.6386,2.6386,2.6386,2.6386,2.4174,2.3837,2.3647,2.4174,2.4101,2.4027,2.4232,2.4466,2.4627,2.4627,2.4905,2.511,2.511,2.4935,2.4715,2.4466,2.4554,2.4569,2.4452,2.4554,2.4627,2.4627,2.4627,2.4627,2.4627,2.4627,2.4569,2.4452,2.473,2.4803,2.4686,2.4276,2.4145,2.4276,2.4393,2.4627,2.4949,2.5286,2.5535,2.574,2.6061,2.6193,2.6208,2.6339,2.6515,2.6691,2.6691,2.6822,2.6983,2.6983,2.6983,2.6983,2.6983,2.6983,2.6983,2.6983,2.6983,2.6983,2.6983,2.6983,2.6983,2.6983,2.6983,2.6838,2.6546,2.5951,2.552,2.552,2.4836,2.4344,2.4473,2.412,2.3768,2.3768,2.3354,2.314,2.3447,2.2873,2.2632,2.318,2.3126,2.2859,2.2432,2.2779,2.3073,2.3153,2.3434,2.3607,2.3607,2.342,2.3354,2.3434,2.306,2.3006,2.3327,2.3915,2.4115,2.3941,2.4409,2.4636,2.4636,2.4636,2.4636,2.4636,2.4636,2.4743,2.493,2.5224,2.5518,2.5825,2.6119,2.6293,2.6386,2.6386,2.6386,2.6386,2.451,2.4349,2.4232,2.4598,2.4657,2.4642,2.4671,2.5183,2.5564,2.5564,2.5842,2.6047,2.6047,2.6076,2.5842,2.5242,2.5418,2.5447,2.514,2.5403,2.5564,2.5564,2.5564,2.5564,2.5564,2.5564,2.5418,2.5125,2.4818,2.451,2.4218,2.4218,2.4379,2.4686,2.4993,2.5286,2.5593,2.5915,2.6047,2.6076,2.6413,2.653,2.6574,2.6866,2.6983,2.6983,2.6983,2.6983,2.6983,2.6983,2.6983,2.6983,2.6983,2.6983,2.6983,2.6983,2.6983,2.6983,2.6983,2.6983,2.6983,2.6983,2.6983,2.6838,2.6546,2.6093,2.58,2.58,2.4993,2.4367,2.4788,2.4296,2.3821,2.3808,2.3554,2.3447,2.3728,2.302,2.2979,2.4356,2.3794,2.3394,2.3621,2.3394,2.3153,2.2939,2.3153,2.3327,2.338,2.3187,2.3028,2.2735,2.2722,2.2868,2.3174,2.3758,2.4063,2.4235,2.4502,2.4636,2.4636,2.4636,2.4636,2.4636,2.4636,2.4636,2.4663,2.4957,2.5237,2.5518,2.5812,2.6092,2.6333,2.6333,2.6333,2.6333,2.5125,2.4847,2.4715,2.5535,2.5461,2.5388,2.5637,2.5798,2.59,2.59,2.6193,2.6383,2.6383,2.6603,2.6705,2.6544,2.6149,2.5871,2.5798,2.5857,2.59,2.59,2.59,2.59,2.59,2.59,2.5857,2.5783,2.571,2.5637,2.5564,2.5564,2.5608,2.5681,2.5754,2.5827,2.593,2.6252,2.6383,2.6413,2.6749,2.6881,2.6881,2.6969,2.6983,2.6983,2.6983,2.6983,2.6983,2.6983,2.6983,2.6983,2.6983,2.6983,2.6983,2.6983,2.6983,2.6983,2.6983,2.6983,2.6983,2.6983,2.6983,2.6838,2.6546,2.6385,2.6093,2.58,2.5304,2.4983,2.5116,2.4769,2.4356,2.4142,2.3861,2.3688,2.3754,2.3394,2.3153,2.3273,2.31,2.2819,2.2445,2.2338,2.2645,2.35,2.3193,2.3273,2.3955,2.2205,2.1257,2.1195,2.1044,2.1319,2.1604,2.2149,2.312,2.4529,2.4609,2.4636,2.4636,2.4636,2.4636,2.4636,2.4636,2.4636,2.4663,2.4957,2.5117,2.5211,2.5504,2.5665,2.5718,2.5718,2.5718,2.5718,2.5622,2.5476,2.5403,2.593,2.5988,2.6032,2.6208,2.6369,2.6457,2.6457,2.6617,2.672,2.672,2.6881,2.6983,2.6983,2.6661,2.6457,2.6457,2.6457,2.6457,2.6457,2.6457,2.6398,2.6237,2.6237,2.6164,2.6018,2.6018,2.6018,2.6018,2.6018,2.6018,2.6032,2.6164,2.6237,2.6266,2.6588,2.672,2.6749,2.6925,2.6983,2.6983,2.6983,2.6983,2.6983,2.6983,2.6983,2.6983,2.6983,2.6983,2.6983,2.6983,2.6983,2.6983,2.6983,2.6983,2.6983,2.6983,2.6983,2.6983,2.6983,2.6983,2.6838,2.6546,2.6239,2.6093,2.58,2.5373,2.4931,2.5226,2.4931,2.4583,2.4422,2.4262,2.4168,2.4168,2.3915,2.3661,2.35,2.3233,2.2886,2.2432,2.2258,2.2458,2.31,2.2979,2.3073,2.3567,2.1835,2.081,2.081,1.9843,1.9735,2.0382,2.1361,2.283,2.4636,2.4636,2.4636,2.4636,2.4636,2.4636,2.4636,2.4636,2.4636,2.4649,2.481,2.4957,2.509,2.5251,2.5398,2.5518,2.5518,2.5518,2.5518,2.6032,2.6091,2.6105,2.6149,2.6398,2.6574,2.6574,2.6808,2.6983,2.6983,2.6983,2.6983,2.6983,2.6983,2.6983,2.6983,2.6983,2.6983,2.6983,2.6983,2.6983,2.6983,2.6983,2.6866,2.6588,2.6574,2.6442,2.6164,2.6164,2.6164,2.6164,2.6164,2.6164,2.6179,2.6457,2.6574,2.6603,2.6866,2.6983,2.6983,2.6983,2.6983,2.6983,2.6983,2.6983,2.6983,2.6983,2.6983,2.6983,2.6983,2.6983,2.6983,2.6983,2.6983,2.6983,2.6983,2.6983,2.6983,2.6983,2.6983,2.6983,2.6983,2.6983,2.6838,2.6546,2.6093,2.58,2.5653,2.5079,2.4636,2.5079,2.4784,2.4676,2.481,2.473,2.469,2.481,2.4476,2.4209,2.4209,2.3728,2.3287,2.302,2.2766,2.2619,2.2619,2.2859,2.302,2.306,2.1695,2.0828,2.0757,1.8921,1.8401,1.951,2.121,2.298,2.4636,2.4636,2.4636,2.4636,2.4636,2.4636,2.4636,2.4636,2.4636,2.4636,2.4636,2.4783,2.501,2.501,2.517,2.5384,2.5384,2.5384,2.5384,2.6369,2.6427,2.6515,2.6793,2.6881,2.691,2.691,2.6954,2.6983,2.6983,2.6983,2.6983,2.6983,2.6983,2.6983,2.6983,2.6983,2.6983,2.6983,2.6983,2.6983,2.6983,2.6983,2.6969,2.691,2.691,2.6896,2.6837,2.6837,2.6837,2.6837,2.6837,2.6837,2.6837,2.6896,2.691,2.6925,2.6969,2.6983,2.6983,2.6983,2.6983,2.6983,2.6983,2.6983,2.6983,2.6983,2.6983,2.6983,2.6983,2.6983,2.6983,2.6983,2.6983,2.6983,2.6983,2.6983,2.6983,2.6983,2.6983,2.6983,2.6983,2.6983,2.6838,2.6546,2.6093,2.5653,2.5373,2.4931,2.4636,2.4636,2.4636,2.4877,2.5625,2.513,2.4903,2.5651,2.4863,2.4209,2.4209,2.3901,2.3688,2.3634,2.3594,2.3567,2.3567,2.3607,2.3741,2.3981,2.1029,1.9522,1.9927,1.8047,1.7772,1.9758,2.1452,2.298,2.4636,2.4636,2.4636,2.4636,2.4636,2.4636,2.4636,2.4636,2.4636,2.4636,2.4636,2.4663,2.4703,2.4703,2.473,2.477,2.477,2.477,2.477,2.6735,2.6764,2.6808,2.6969,2.6983,2.6983,2.6983,2.6983,2.6983,2.6983,2.6983,2.6983,2.6983,2.6983,2.6983,2.6983,2.6983,2.6983,2.6983,2.6983,2.6983,2.6983,2.6983,2.6983,2.6983,2.6983,2.6983,2.6983,2.6983,2.6983,2.6983,2.6983,2.6983,2.6983,2.6983,2.6983,2.6983,2.6983,2.6983,2.6983,2.6983,2.6983,2.6983,2.6983,2.6983,2.6983,2.6983,2.6983,2.6983,2.6983,2.6983,2.6983,2.6983,2.6983,2.6983,2.6983,2.6983,2.6983,2.6983,2.6983,2.6983,2.6983,2.6983,2.6983,2.6838,2.6399,2.6093,2.5814,2.5373,2.4931,2.4931,2.4784,2.4823,2.5398,2.5144,2.5077,2.5638,2.5117,2.4676,2.4676,2.4275,2.4008,2.4008,2.3861,2.3768,2.3768,2.3768,2.3834,2.3968,2.1643,2.014,1.9618,1.7901,1.7951,1.9811,2.1464,2.298,2.4636,2.4636,2.4636,2.4636,2.4636,2.4636,2.4636,2.4636,2.4636,2.4636,2.4636,2.4636,2.4636,2.4636,2.4636,2.4636,2.4636,2.4636,2.4636,2.6983,2.6983,2.6983,2.6983,2.6983,2.6983,2.6983,2.7129,2.7129,2.6983,2.7129,2.7129,2.6983,2.6983,2.6983,2.6983,2.6983,2.6983,2.6983,2.6983,2.6983,2.6983,2.6983,2.6983,2.6983,2.6983,2.6983,2.6983,2.6983,2.6983,2.6983,2.6983,2.6983,2.6983,2.6983,2.6983,2.6983,2.6983,2.6983,2.6983,2.6983,2.6983,2.6983,2.6983,2.6983,2.6983,2.6983,2.6983,2.6983,2.6983,2.6983,2.6983,2.6983,2.6983,2.6983,2.6983,2.6983,2.6983,2.6983,2.6983,2.6983,2.6983,2.6983,2.6983,2.6983,2.6692,2.6399,2.6399,2.5814,2.5226,2.5226,2.4931,2.4783,2.5211,2.517,2.5211,2.5571,2.5304,2.505,2.4983,2.4583,2.4302,2.4302,2.4102,2.3968,2.3968,2.3968,2.3968,2.3968,2.2488,2.0816,1.8947,1.7918,1.8309,2.0414,2.1625,2.298,2.4636,2.4636,2.4636,2.4636,2.4636,2.4636,2.4636,2.4636,2.4636,2.4636,2.4636,2.4636,2.4636,2.4636,2.4636,2.4636,2.4636,2.4636,2.4636,2.6983,2.6983,2.6983,2.6983,2.6983,2.6983,2.6983,2.7565,2.771,2.7129,2.7565,2.771,2.7129,2.6983,2.6983,2.6983,2.6983,2.6983,2.6983,2.6983,2.6983,2.6983,2.6983,2.6983,2.6983,2.6983,2.6983,2.6983,2.6983,2.6983,2.6983,2.6983,2.6983,2.6983,2.6983,2.6983,2.6983,2.6983,2.6983,2.6983,2.6983,2.6983,2.6983,2.6983,2.6983,2.6983,2.6983,2.6983,2.6983,2.6983,2.6983,2.6983,2.6983,2.6983,2.6983,2.6983,2.6983,2.6983,2.6983,2.6983,2.6983,2.6983,2.6983,2.6983,2.6983,2.6692,2.6399,2.6399,2.5814,2.5226,2.5226,2.4931,2.4917,2.5758,2.5438,2.5277,2.5838,2.5438,2.497,2.4703,2.4636,2.4609,2.4609,2.4583,2.4569,2.4569,2.4569,2.4569,2.4569,2.3066,2.0669,1.7683,1.7398,1.8916,2.1924,2.2073,2.298,2.4636,2.4636,2.4636,2.4636,2.4636,2.4636,2.4636,2.4636,2.4636,2.4636,2.4636,2.4636,2.4636,2.4636,2.4636,2.4636,2.4636,2.4636,2.4636,2.8289,2.8145,2.8,2.8434,2.8707,2.8707,2.8434,2.8722,2.8722,2.8434,2.8722,2.8578,2.771,2.771,2.7565,2.6983,2.6983,2.6983,2.6983,2.6983,2.6983,2.6983,2.6983,2.6983,2.6983,2.6983,2.6983,2.6983,2.6983,2.6983,2.6983,2.6983,2.6983,2.6983,2.6983,2.6983,2.6983,2.6983,2.6983,2.6983,2.6983,2.6983,2.6983,2.6983,2.6983,2.6983,2.6983,2.6983,2.6983,2.6983,2.6983,2.6983,2.6983,2.6983,2.6983,2.6983,2.6983,2.6983,2.6983,2.6983,2.6983,2.6983,2.6983,2.6983,2.6983,2.6838,2.6838,2.6838,2.6399,2.5814,2.5653,2.5226,2.5107,2.5331,2.5077,2.4943,2.5358,2.5064,2.4756,2.4649,2.4636,2.4636,2.4636,2.4636,2.4636,2.4636,2.4636,2.4636,2.4636,2.3129,2.2073,2.1924,2.0864,2.0414,2.0714,2.267,2.4031,2.4636,2.4636,2.4636,2.4636,2.4636,2.4636,2.4636,2.4636,2.4636,2.4636,2.4636,2.4636,2.4636,2.4636,2.4636,2.4636,2.4636,2.4636,2.4636,2.9154,2.8995,2.8851,2.9298,2.9568,2.9712,2.9298,2.9425,2.9568,2.9298,2.9425,2.9282,2.8563,2.8289,2.7855,2.742,2.7129,2.6983,2.6983,2.6983,2.6983,2.6983,2.6983,2.6983,2.6983,2.6983,2.6983,2.6983,2.6983,2.6983,2.6983,2.6983,2.6983,2.6983,2.6983,2.6983,2.6983,2.6983,2.6983,2.6983,2.6983,2.6983,2.6983,2.6983,2.6983,2.6983,2.6983,2.6983,2.6983,2.6983,2.6983,2.6983,2.6983,2.6983,2.6983,2.6983,2.6983,2.6983,2.6983,2.6983,2.6983,2.6983,2.6983,2.6983,2.6983,2.6983,2.6983,2.6838,2.6546,2.6093,2.5653,2.5226,2.4999,2.4903,2.477,2.4703,2.4917,2.477,2.4636,2.4636,2.4636,2.4636,2.4636,2.4636,2.4636,2.4636,2.4636,2.4636,2.4636,2.3574,2.3277,2.3883,2.3277,2.2223,2.0564,2.3277,2.4636,2.4636,2.4636,2.4636,2.4636,2.4636,2.4636,2.4636,2.4636,2.4636,2.4636,2.4636,2.4636,2.4636,2.4636,2.4636,2.4636,2.4636,2.4636,2.4636,2.9298,2.9298,2.9298,2.9298,2.9298,2.9298,2.9298,2.9997,3.0124,2.9441,2.9997,3.0124,2.9441,2.8563,2.813,2.813,2.742,2.6983,2.6983,2.6998,2.6983,2.6983,2.6983,2.6983,2.6983,2.6983,2.6983,2.6983,2.6983,2.6983,2.6983,2.6983,2.6983,2.6983,2.6983,2.6983,2.6983,2.6983,2.6983,2.6983,2.6983,2.6983,2.6983,2.6983,2.6983,2.6983,2.6983,2.6983,2.6983,2.6983,2.6983,2.6983,2.6983,2.6983,2.6983,2.6983,2.6983,2.6983,2.6983,2.6983,2.6983,2.6983,2.6983,2.6983,2.6983,2.6983,2.6838,2.6546,2.6093,2.5653,2.5226,2.4931,2.4636,2.4636,2.4636,2.4636,2.4636,2.4636,2.4636,2.4636,2.4636,2.4636,2.4636,2.4636,2.4636,2.4636,2.4636,2.4636,2.4636,2.4636,2.3883,2.2223,2.3735,2.3883,2.2223,2.3735,2.4636,2.4636,2.4636,2.4636,2.4636,2.4636,2.4636,2.4636,2.4636,2.4636,2.4636,2.4636,2.4636,2.4636,2.4636,2.4636,2.4636,2.4636,2.4636,2.4636,3.0852,3.0425,3.0266,3.0852,3.0852,3.0852,3.0852,3.1683,3.2228,3.2088,3.2228,3.2351,3.2333,3.1491,3.0943,3.0785,3.0643,2.9949,2.8676,2.755,2.6983,2.6983,2.6983,2.6983,2.6983,2.6983,2.6983,2.6983,2.6983,2.6983,2.6983,2.6983,2.6983,2.6983,2.6983,2.6983,2.6983,2.6983,2.6983,2.6983,2.6983,2.6983,2.6983,2.6983,2.6983,2.6983,2.6983,2.6983,2.6983,2.6983,2.6983,2.6983,2.6983,2.6983,2.6983,2.6983,2.6983,2.6983,2.6983,2.6983,2.6983,2.6983,2.6983,2.6983,2.6983,2.6983,2.6838,2.6546,2.6239,2.5946,2.5373,2.5079,2.4931,2.4636,2.4636,2.4636,2.4636,2.4636,2.4636,2.4636,2.4636,2.4636,2.4636,2.4636,2.4636,2.4636,2.4636,2.4636,2.4636,2.4636,2.4341,2.3883,2.4341,2.4341,2.3883,2.4341,2.4636,2.4636,2.4636,2.4636,2.4636,2.4636,2.4636,2.4636,2.4636,2.4636,2.4636,2.4636,2.4636,2.4636,2.4636,2.4636,2.4636,2.4636,2.4636,2.4636,3.2806,3.2088,3.1666,3.2105,3.1841,3.17,3.2105,3.2788,3.3345,3.3762,3.39,3.39,3.4139,3.3309,3.2752,3.2735,3.2316,3.1491,3.0359,2.8819,2.784,2.784,2.7274,2.6983,2.6983,2.6983,2.6983,2.6983,2.6983,2.6983,2.6983,2.6983,2.6983,2.6983,2.6983,2.6983,2.6983,2.6983,2.6983,2.6983,2.6983,2.6983,2.6983,2.6983,2.6983,2.6983,2.6983,2.6983,2.6983,2.6983,2.6983,2.6983,2.6983,2.6983,2.6983,2.6983,2.6983,2.6983,2.6983,2.6983,2.6983,2.6983,2.6983,2.6983,2.6983,2.6983,2.6838,2.6239,2.6093,2.5946,2.5079,2.4931,2.4931,2.4636,2.4636,2.4636,2.4636,2.4636,2.4636,2.4636,2.4636,2.4636,2.4636,2.4636,2.4636,2.4636,2.4636,2.4636,2.4636,2.4636,2.4636,2.4636,2.4636,2.4636,2.4636,2.4636,2.4636,2.4636,2.4636,2.4636,2.4636,2.4636,2.4636,2.4636,2.4636,2.4636,2.4636,2.4636,2.4636,2.4636,2.4636,2.4636,2.4636,2.4636,2.4636,2.4636,3.4865,3.4038,3.3345,3.3345,3.2526,3.2246,3.3206,3.3484,3.39,3.4865,3.5002,3.5158,3.5158,3.4433,3.3983,3.3983,3.2874,3.2193,3.2193,3.0501,2.9377,2.925,2.797,2.7129,2.7129,2.7129,2.6983,2.6983,2.6983,2.6983,2.6983,2.6983,2.6983,2.6983,2.6983,2.6983,2.6983,2.6983,2.6983,2.6983,2.6983,2.6983,2.6983,2.6983,2.6983,2.6983,2.6983,2.6983,2.6983,2.6983,2.6983,2.6983,2.6983,2.6983,2.6983,2.6983,2.6983,2.6983,2.6983,2.6983,2.6983,2.6983,2.6983,2.6983,2.6983,2.6983,2.6838,2.5946,2.58,2.5506,2.4784,2.4636,2.4636,2.4636,2.4636,2.4636,2.4636,2.4636,2.4636,2.4636,2.4636,2.4636,2.4636,2.4636,2.4636,2.4636,2.4636,2.4636,2.4636,2.4636,2.4636,2.4636,2.4636,2.4636,2.4636,2.4636,2.4636,2.4636,2.4636,2.4636,2.4636,2.4636,2.4636,2.4636,2.4636,2.4636,2.4636,2.4636,2.4636,2.4636,2.4636,2.4636,2.4636,2.4636,2.4636,2.4636,3.4865,3.4727,3.459,3.459,3.4314,3.4314,3.4452,3.5275,3.5821,3.6112,3.6112,3.6519,3.7348,3.6519,3.6093,3.6634,3.4983,3.3743,3.3743,3.207,3.0518,2.9234,2.8963,2.8676,2.8676,2.755,2.6983,2.6983,2.6983,2.6983,2.6983,2.6983,2.6983,2.6983,2.6983,2.6983,2.6983,2.6983,2.6983,2.6983,2.6983,2.6983,2.6983,2.6983,2.6983,2.6983,2.6983,2.6983,2.6983,2.6983,2.6983,2.6983,2.6983,2.6983,2.6983,2.6983,2.6983,2.6983,2.6983,2.6983,2.6983,2.6983,2.6983,2.6983,2.6983,2.6983,2.6838,2.5946,2.58,2.5506,2.4784,2.4636,2.4636,2.4636,2.4636,2.4636,2.4636,2.4636,2.4636,2.4636,2.4636,2.4636,2.4636,2.4636,2.4636,2.4636,2.4636,2.4636,2.4636,2.4636,2.4636,2.4636,2.4636,2.4636,2.4636,2.4636,2.4636,2.4636,2.4636,2.4636,2.4636,2.4636,2.4636,2.4636,2.4636,2.4636,2.4636,2.4636,2.4636,2.4636,2.4636,2.4636,2.4636,2.4636,2.4636,2.4636,3.6519,3.5976,3.5685,3.5685,3.5275,3.5002,3.5549,3.6112,3.6654,3.7213,3.7348,3.7482,3.8171,3.7636,3.7482,3.7904,3.6519,3.5685,3.5685,3.3743,3.2211,3.1367,3.066,3.0233,3.0233,2.9536,2.8819,2.8114,2.7274,2.6983,2.6983,2.6983,2.6983,2.6983,2.6983,2.6983,2.6983,2.6983,2.6983,2.6983,2.6983,2.6983,2.6983,2.6983,2.6983,2.6983,2.6983,2.6983,2.6983,2.6983,2.6983,2.6983,2.6983,2.6983,2.6983,2.6983,2.6983,2.6983,2.6983,2.6983,2.6983,2.6983,2.6983,2.6983,2.6983,2.6838,2.6546,2.5946,2.5653,2.5373,2.4784,2.4636,2.4636,2.4636,2.4636,2.4636,2.4636,2.4636,2.4636,2.4636,2.4636,2.4636,2.4636,2.4636,2.4636,2.4636,2.4636,2.4636,2.4636,2.4636,2.4636,2.4636,2.4636,2.4636,2.4636,2.4636,2.4636,2.4636,2.4636,2.4636,2.4636,2.4636,2.4636,2.4636,2.4636,2.4636,2.4636,2.4636,2.4636,2.4636,2.4636,2.4636,2.4636,2.4636,2.4636,2.4636,3.8191,3.7482,3.6789,3.6789,3.6112,3.5704,3.6654,3.6789,3.7079,3.8058,3.8191,3.8191,3.8191,3.8191,3.8191,3.8191,3.7636,3.7213,3.7213,3.5295,3.4176,3.4195,3.277,3.193,3.193,3.1649,3.0801,2.925,2.797,2.7274,2.6983,2.6983,2.6983,2.6983,2.6983,2.6983,2.6983,2.6983,2.6983,2.6983,2.6983,2.6983,2.6983,2.6983,2.6983,2.6983,2.6983,2.6983,2.6983,2.6983,2.6983,2.6983,2.6983,2.6983,2.6983,2.6983,2.6983,2.6983,2.6983,2.6983,2.6983,2.6983,2.6983,2.6983,2.6983,2.6692,2.6239,2.5946,2.552,2.5079,2.4636,2.4636,2.4636,2.4636,2.4636,2.4636,2.4636,2.4636,2.4636,2.4636,2.4636,2.4636,2.4636,2.4636,2.4636,2.4636,2.4636,2.4636,2.4636,2.4636,2.4636,2.4636,2.4636,2.4636,2.4636,2.4636,2.4636,2.4636,2.4636,2.4636,2.4636,2.4636,2.4636,2.4636,2.4636,2.4636,2.4636,2.4636,2.4636,2.4636,2.4636,2.4636,2.4636,2.4636,2.4636,2.4636,3.8191,3.8058,3.7904,3.7904,3.7904,3.777,3.7904,3.7904,3.8037,3.8191,3.8191,3.8191,3.8191,3.8191,3.8191,3.8191,3.777,3.7482,3.7348,3.6654,3.5976,3.5743,3.4333,3.3484,3.3484,3.2211,3.0801,2.925,2.8963,2.8259,2.6983,2.6983,2.6983,2.6983,2.6983,2.6983,2.6983,2.6983,2.6983,2.6983,2.6983,2.6983,2.6983,2.6983,2.6983,2.6983,2.6983,2.6983,2.6983,2.6983,2.6983,2.6983,2.6983,2.6983,2.6983,2.6983,2.6983,2.6983,2.6983,2.6983,2.6983,2.6983,2.6983,2.6983,2.6983,2.6692,2.6239,2.5946,2.552,2.5079,2.4636,2.4636,2.4636,2.4636,2.4636,2.4636,2.4636,2.4636,2.4636,2.4636,2.4636,2.4636,2.4636,2.4636,2.4636,2.4636,2.4636,2.4636,2.4636,2.4636,2.4636,2.4636,2.4636,2.4636,2.4636,2.4636,2.4636,2.4636,2.4636,2.4636,2.4636,2.4636,2.4636,2.4636,2.4636,2.4636,2.4636,2.4636,2.4636,2.4636,2.4636,2.4636,2.4636,2.4636,2.4636,2.4636,3.8191,3.8191,3.8191,3.8191,3.8191,3.8191,3.8191,3.8191,3.8191,3.8191,3.8191,3.8191,3.8191,3.8191,3.8191,3.8191,3.7904,3.7482,3.7213,3.6789,3.6403,3.6016,3.5314,3.504,3.504,3.4333,3.3345,3.1789,3.0091,2.8403,2.6983,2.6983,2.6983,2.6983,2.6983,2.6983,2.6983,2.6983,2.6983,2.6983,2.6983,2.6983,2.6983,2.6983,2.6983,2.7129,2.797,2.7695,2.7129,2.797,2.7695,2.6983,2.6983,2.6983,2.6983,2.6983,2.6983,2.6983,2.6983,2.6983,2.6983,2.6983,2.6983,2.6983,2.6692,2.6399,2.5946,2.58,2.5359,2.4784,2.4636,2.4636,2.4636,2.4636,2.4636,2.4636,2.4636,2.4636,2.4636,2.4636,2.4636,2.4636,2.4636,2.4636,2.4636,2.4636,2.4636,2.4636,2.4636,2.4636,2.4636,2.4636,2.4636,2.4636,2.4636,2.4636,2.4636,2.4636,2.4636,2.4636,2.4636,2.4636,2.4636,2.4636,2.4636,2.4636,2.4636,2.4636,2.4636,2.4636,2.4636,2.4636,2.4636,2.4636,2.4636,2.4636]}]]